<?xml version="1.0" encoding="UTF-8" standalone="no" ?>
<gpx xmlns="http://www.topografix.com/GPX/1/1" xmlns:xsi="http://www.w3.org/2001/XMLSchema-instance" xsi:schemaLocation="http://www.topografix.com/GPX/1/1 http://www.topografix.com/GPX/1/1/gpx.xsd" version="1.1" creator="VisuGPX - https://www.visugpx.com">
  <metadata>
    <name>GR52 / GR5 par Menton</name>
    <desc><![CDATA[Randonnée de 7 jours par le GR5 de Menton en direction du Nord en traversant notamment le parc du Mercantour.Enorme variété de paysages dès le départ et vues imprenables dès les premières heures, on est tout de suite dans le bain. Altitude max 2800 m mais encore pas mal de névés à cette période surtout à la descente vers le refuge de Nice. Comme d'habitude nous avons préféré les bivouacs "into the wild" et nous n'avons pas été déçus ! Terrain correct cependant les 2 premiers jours nécessitent de pouvoir enquiller beaucoup de D+.]]></desc>
  </metadata>
  <wpt lat="43.72679" lon="6.51125">
    <ele>955.9</ele>
    <name><![CDATA[xXSNAjco--.1.3gp]]></name>
  </wpt>
  <wpt lat="43.72679" lon="6.51125">
    <ele>955.9</ele>
    <name><![CDATA[xXSNAjco--.1.3gp]]></name>
  </wpt>
  <trk>
    <name><![CDATA[GR52 / GR5 par Menton_1]]></name>
    <trkseg>
      <trkpt lat="43.77422" lon="7.5013">
        <ele>71.782</ele>
        <time>2020-06-24T05:41:18Z</time>
      </trkpt>
      <trkpt lat="43.77425" lon="7.50132">
        <ele>74.704</ele>
        <time>2020-06-24T05:41:33Z</time>
      </trkpt>
      <trkpt lat="43.77413" lon="7.50149">
        <ele>76.264</ele>
        <time>2020-06-24T05:41:50Z</time>
      </trkpt>
      <trkpt lat="43.77379" lon="7.50152">
        <ele>73.36</ele>
        <time>2020-06-24T05:42:05Z</time>
      </trkpt>
      <trkpt lat="43.77375" lon="7.50149">
        <ele>72.032</ele>
        <time>2020-06-24T05:42:21Z</time>
      </trkpt>
      <trkpt lat="43.77376" lon="7.50146">
        <ele>70.444</ele>
        <time>2020-06-24T05:42:37Z</time>
      </trkpt>
      <trkpt lat="43.77376" lon="7.50146">
        <ele>70.444</ele>
        <time>2020-06-24T05:42:52Z</time>
      </trkpt>
      <trkpt lat="43.77368" lon="7.50151">
        <ele>70.846</ele>
        <time>2020-06-24T05:43:07Z</time>
      </trkpt>
      <trkpt lat="43.77378" lon="7.50185">
        <ele>61.255</ele>
        <time>2020-06-24T05:43:23Z</time>
      </trkpt>
      <trkpt lat="43.77384" lon="7.50212">
        <ele>58.791</ele>
        <time>2020-06-24T05:43:38Z</time>
      </trkpt>
      <trkpt lat="43.7739" lon="7.50235">
        <ele>58.649</ele>
        <time>2020-06-24T05:43:54Z</time>
      </trkpt>
      <trkpt lat="43.77394" lon="7.50263">
        <ele>59.617</ele>
        <time>2020-06-24T05:44:10Z</time>
      </trkpt>
      <trkpt lat="43.77406" lon="7.50289">
        <ele>57.624</ele>
        <time>2020-06-24T05:44:25Z</time>
      </trkpt>
      <trkpt lat="43.77414" lon="7.50314">
        <ele>54.237</ele>
        <time>2020-06-24T05:44:41Z</time>
      </trkpt>
      <trkpt lat="43.77421" lon="7.50339">
        <ele>54.968</ele>
        <time>2020-06-24T05:44:56Z</time>
      </trkpt>
      <trkpt lat="43.77426" lon="7.50368">
        <ele>58.047</ele>
        <time>2020-06-24T05:45:11Z</time>
      </trkpt>
      <trkpt lat="43.77435" lon="7.50402">
        <ele>58.334</ele>
        <time>2020-06-24T05:45:27Z</time>
      </trkpt>
      <trkpt lat="43.77443" lon="7.50428">
        <ele>58.987</ele>
        <time>2020-06-24T05:45:43Z</time>
      </trkpt>
      <trkpt lat="43.77452" lon="7.50449">
        <ele>59.113</ele>
        <time>2020-06-24T05:45:59Z</time>
      </trkpt>
      <trkpt lat="43.77458" lon="7.50475">
        <ele>60.356</ele>
        <time>2020-06-24T05:46:14Z</time>
      </trkpt>
      <trkpt lat="43.77462" lon="7.50503">
        <ele>60.69</ele>
        <time>2020-06-24T05:46:30Z</time>
      </trkpt>
      <trkpt lat="43.77457" lon="7.50529">
        <ele>61.677</ele>
        <time>2020-06-24T05:46:45Z</time>
      </trkpt>
      <trkpt lat="43.77451" lon="7.50552">
        <ele>60.795</ele>
        <time>2020-06-24T05:47:01Z</time>
      </trkpt>
      <trkpt lat="43.77441" lon="7.50581">
        <ele>54.477</ele>
        <time>2020-06-24T05:47:16Z</time>
      </trkpt>
      <trkpt lat="43.77434" lon="7.50606">
        <ele>51.553</ele>
        <time>2020-06-24T05:47:31Z</time>
      </trkpt>
      <trkpt lat="43.7743" lon="7.50634">
        <ele>50.836</ele>
        <time>2020-06-24T05:47:47Z</time>
      </trkpt>
      <trkpt lat="43.77431" lon="7.50658">
        <ele>49.375</ele>
        <time>2020-06-24T05:48:02Z</time>
      </trkpt>
      <trkpt lat="43.77435" lon="7.50692">
        <ele>49.607</ele>
        <time>2020-06-24T05:48:18Z</time>
      </trkpt>
      <trkpt lat="43.77438" lon="7.50707">
        <ele>48.405</ele>
        <time>2020-06-24T05:48:33Z</time>
      </trkpt>
      <trkpt lat="43.77441" lon="7.50712">
        <ele>49.256</ele>
        <time>2020-06-24T05:48:49Z</time>
      </trkpt>
      <trkpt lat="43.77447" lon="7.50737">
        <ele>51.215</ele>
        <time>2020-06-24T05:49:05Z</time>
      </trkpt>
      <trkpt lat="43.77457" lon="7.50761">
        <ele>52.654</ele>
        <time>2020-06-24T05:49:20Z</time>
      </trkpt>
      <trkpt lat="43.77469" lon="7.50784">
        <ele>52.477</ele>
        <time>2020-06-24T05:49:36Z</time>
      </trkpt>
      <trkpt lat="43.77481" lon="7.50812">
        <ele>52.928</ele>
        <time>2020-06-24T05:49:52Z</time>
      </trkpt>
      <trkpt lat="43.7749" lon="7.50827">
        <ele>54.719</ele>
        <time>2020-06-24T05:50:07Z</time>
      </trkpt>
      <trkpt lat="43.77493" lon="7.50853">
        <ele>52.565</ele>
        <time>2020-06-24T05:50:22Z</time>
      </trkpt>
      <trkpt lat="43.77511" lon="7.50865">
        <ele>51.269</ele>
        <time>2020-06-24T05:50:38Z</time>
      </trkpt>
      <trkpt lat="43.77522" lon="7.50862">
        <ele>49.243</ele>
        <time>2020-06-24T05:50:53Z</time>
      </trkpt>
      <trkpt lat="43.77544" lon="7.50864">
        <ele>49.42</ele>
        <time>2020-06-24T05:51:08Z</time>
      </trkpt>
      <trkpt lat="43.77562" lon="7.5087">
        <ele>52.025</ele>
        <time>2020-06-24T05:51:24Z</time>
      </trkpt>
      <trkpt lat="43.77583" lon="7.50874">
        <ele>55.4</ele>
        <time>2020-06-24T05:51:40Z</time>
      </trkpt>
      <trkpt lat="43.77604" lon="7.50867">
        <ele>51.649</ele>
        <time>2020-06-24T05:51:56Z</time>
      </trkpt>
      <trkpt lat="43.77623" lon="7.50854">
        <ele>46.369</ele>
        <time>2020-06-24T05:52:12Z</time>
      </trkpt>
      <trkpt lat="43.77642" lon="7.50845">
        <ele>48.414</ele>
        <time>2020-06-24T05:52:27Z</time>
      </trkpt>
      <trkpt lat="43.77661" lon="7.50836">
        <ele>50.058</ele>
        <time>2020-06-24T05:52:42Z</time>
      </trkpt>
      <trkpt lat="43.77673" lon="7.50821">
        <ele>51.778</ele>
        <time>2020-06-24T05:52:58Z</time>
      </trkpt>
      <trkpt lat="43.77694" lon="7.50813">
        <ele>56.069</ele>
        <time>2020-06-24T05:53:14Z</time>
      </trkpt>
      <trkpt lat="43.77715" lon="7.50803">
        <ele>58.001</ele>
        <time>2020-06-24T05:53:29Z</time>
      </trkpt>
      <trkpt lat="43.77734" lon="7.50792">
        <ele>57.77</ele>
        <time>2020-06-24T05:53:45Z</time>
      </trkpt>
      <trkpt lat="43.77752" lon="7.50783">
        <ele>55.086</ele>
        <time>2020-06-24T05:54:01Z</time>
      </trkpt>
      <trkpt lat="43.77772" lon="7.50774">
        <ele>53.866</ele>
        <time>2020-06-24T05:54:16Z</time>
      </trkpt>
      <trkpt lat="43.77793" lon="7.50768">
        <ele>52.969</ele>
        <time>2020-06-24T05:54:32Z</time>
      </trkpt>
      <trkpt lat="43.77813" lon="7.5076">
        <ele>53.654</ele>
        <time>2020-06-24T05:54:47Z</time>
      </trkpt>
      <trkpt lat="43.77834" lon="7.50754">
        <ele>54.097</ele>
        <time>2020-06-24T05:55:03Z</time>
      </trkpt>
      <trkpt lat="43.77853" lon="7.50752">
        <ele>56.676</ele>
        <time>2020-06-24T05:55:19Z</time>
      </trkpt>
      <trkpt lat="43.77875" lon="7.50757">
        <ele>58.112</ele>
        <time>2020-06-24T05:55:35Z</time>
      </trkpt>
      <trkpt lat="43.77894" lon="7.50769">
        <ele>57.019</ele>
        <time>2020-06-24T05:55:51Z</time>
      </trkpt>
      <trkpt lat="43.77909" lon="7.50783">
        <ele>58.098</ele>
        <time>2020-06-24T05:56:06Z</time>
      </trkpt>
      <trkpt lat="43.77912" lon="7.50784">
        <ele>56.788</ele>
        <time>2020-06-24T05:56:22Z</time>
      </trkpt>
      <trkpt lat="43.77921" lon="7.50793">
        <ele>57.08</ele>
        <time>2020-06-24T05:56:38Z</time>
      </trkpt>
      <trkpt lat="43.77939" lon="7.5081">
        <ele>53.035</ele>
        <time>2020-06-24T05:56:53Z</time>
      </trkpt>
      <trkpt lat="43.77956" lon="7.50824">
        <ele>52.851</ele>
        <time>2020-06-24T05:57:09Z</time>
      </trkpt>
      <trkpt lat="43.77973" lon="7.50839">
        <ele>50.445</ele>
        <time>2020-06-24T05:57:25Z</time>
      </trkpt>
      <trkpt lat="43.77991" lon="7.50857">
        <ele>49.84</ele>
        <time>2020-06-24T05:57:41Z</time>
      </trkpt>
      <trkpt lat="43.78007" lon="7.50876">
        <ele>49.223</ele>
        <time>2020-06-24T05:57:57Z</time>
      </trkpt>
      <trkpt lat="43.78022" lon="7.50895">
        <ele>49.949</ele>
        <time>2020-06-24T05:58:12Z</time>
      </trkpt>
      <trkpt lat="43.78036" lon="7.50913">
        <ele>49.632</ele>
        <time>2020-06-24T05:58:27Z</time>
      </trkpt>
      <trkpt lat="43.78056" lon="7.50925">
        <ele>49.229</ele>
        <time>2020-06-24T05:58:42Z</time>
      </trkpt>
      <trkpt lat="43.78072" lon="7.50941">
        <ele>49.555</ele>
        <time>2020-06-24T05:58:58Z</time>
      </trkpt>
      <trkpt lat="43.78089" lon="7.50957">
        <ele>48.889</ele>
        <time>2020-06-24T05:59:13Z</time>
      </trkpt>
      <trkpt lat="43.78105" lon="7.50974">
        <ele>49.819</ele>
        <time>2020-06-24T05:59:28Z</time>
      </trkpt>
      <trkpt lat="43.7812" lon="7.50995">
        <ele>52.799</ele>
        <time>2020-06-24T05:59:44Z</time>
      </trkpt>
      <trkpt lat="43.78133" lon="7.51017">
        <ele>51.875</ele>
        <time>2020-06-24T05:59:59Z</time>
      </trkpt>
      <trkpt lat="43.78148" lon="7.51036">
        <ele>51.729</ele>
        <time>2020-06-24T06:00:15Z</time>
      </trkpt>
      <trkpt lat="43.78164" lon="7.51059">
        <ele>51.78</ele>
        <time>2020-06-24T06:00:31Z</time>
      </trkpt>
      <trkpt lat="43.78174" lon="7.51084">
        <ele>53.528</ele>
        <time>2020-06-24T06:00:46Z</time>
      </trkpt>
      <trkpt lat="43.78185" lon="7.51106">
        <ele>52.502</ele>
        <time>2020-06-24T06:01:02Z</time>
      </trkpt>
      <trkpt lat="43.78196" lon="7.51128">
        <ele>50.706</ele>
        <time>2020-06-24T06:01:17Z</time>
      </trkpt>
      <trkpt lat="43.78206" lon="7.51156">
        <ele>51.178</ele>
        <time>2020-06-24T06:01:33Z</time>
      </trkpt>
      <trkpt lat="43.78218" lon="7.51181">
        <ele>50.716</ele>
        <time>2020-06-24T06:01:48Z</time>
      </trkpt>
      <trkpt lat="43.78228" lon="7.51202">
        <ele>48.692</ele>
        <time>2020-06-24T06:02:03Z</time>
      </trkpt>
      <trkpt lat="43.78239" lon="7.51228">
        <ele>48.943</ele>
        <time>2020-06-24T06:02:19Z</time>
      </trkpt>
      <trkpt lat="43.78253" lon="7.5125">
        <ele>52.468</ele>
        <time>2020-06-24T06:02:34Z</time>
      </trkpt>
      <trkpt lat="43.78265" lon="7.51272">
        <ele>54.322</ele>
        <time>2020-06-24T06:02:50Z</time>
      </trkpt>
      <trkpt lat="43.78273" lon="7.51301">
        <ele>55.403</ele>
        <time>2020-06-24T06:03:06Z</time>
      </trkpt>
      <trkpt lat="43.78283" lon="7.51325">
        <ele>55.879</ele>
        <time>2020-06-24T06:03:22Z</time>
      </trkpt>
      <trkpt lat="43.78291" lon="7.51349">
        <ele>55.563</ele>
        <time>2020-06-24T06:03:37Z</time>
      </trkpt>
      <trkpt lat="43.783" lon="7.51375">
        <ele>52.225</ele>
        <time>2020-06-24T06:03:53Z</time>
      </trkpt>
      <trkpt lat="43.78311" lon="7.51403">
        <ele>51.223</ele>
        <time>2020-06-24T06:04:09Z</time>
      </trkpt>
      <trkpt lat="43.7832" lon="7.51429">
        <ele>53.214</ele>
        <time>2020-06-24T06:04:25Z</time>
      </trkpt>
      <trkpt lat="43.78324" lon="7.51454">
        <ele>54.634</ele>
        <time>2020-06-24T06:04:40Z</time>
      </trkpt>
      <trkpt lat="43.78332" lon="7.51474">
        <ele>51.661</ele>
        <time>2020-06-24T06:04:55Z</time>
      </trkpt>
      <trkpt lat="43.7834" lon="7.51497">
        <ele>48.478</ele>
        <time>2020-06-24T06:05:11Z</time>
      </trkpt>
      <trkpt lat="43.78344" lon="7.51527">
        <ele>49.809</ele>
        <time>2020-06-24T06:05:26Z</time>
      </trkpt>
      <trkpt lat="43.78349" lon="7.51556">
        <ele>54.986</ele>
        <time>2020-06-24T06:05:42Z</time>
      </trkpt>
      <trkpt lat="43.78356" lon="7.51582">
        <ele>53.873</ele>
        <time>2020-06-24T06:05:57Z</time>
      </trkpt>
      <trkpt lat="43.78364" lon="7.51613">
        <ele>55.016</ele>
        <time>2020-06-24T06:06:13Z</time>
      </trkpt>
      <trkpt lat="43.7837" lon="7.51633">
        <ele>49.968</ele>
        <time>2020-06-24T06:06:29Z</time>
      </trkpt>
      <trkpt lat="43.78374" lon="7.51657">
        <ele>49.785</ele>
        <time>2020-06-24T06:06:44Z</time>
      </trkpt>
      <trkpt lat="43.78377" lon="7.51681">
        <ele>52.039</ele>
        <time>2020-06-24T06:07:00Z</time>
      </trkpt>
      <trkpt lat="43.78381" lon="7.51706">
        <ele>51.914</ele>
        <time>2020-06-24T06:07:15Z</time>
      </trkpt>
      <trkpt lat="43.78389" lon="7.51735">
        <ele>52.304</ele>
        <time>2020-06-24T06:07:30Z</time>
      </trkpt>
      <trkpt lat="43.78395" lon="7.51755">
        <ele>52.186</ele>
        <time>2020-06-24T06:07:46Z</time>
      </trkpt>
      <trkpt lat="43.78399" lon="7.51782">
        <ele>52.43</ele>
        <time>2020-06-24T06:08:02Z</time>
      </trkpt>
      <trkpt lat="43.78406" lon="7.51806">
        <ele>52.425</ele>
        <time>2020-06-24T06:08:18Z</time>
      </trkpt>
      <trkpt lat="43.78414" lon="7.51829">
        <ele>54.116</ele>
        <time>2020-06-24T06:08:33Z</time>
      </trkpt>
      <trkpt lat="43.78417" lon="7.5184">
        <ele>51.986</ele>
        <time>2020-06-24T06:08:48Z</time>
      </trkpt>
      <trkpt lat="43.78422" lon="7.51851">
        <ele>49.082</ele>
        <time>2020-06-24T06:09:03Z</time>
      </trkpt>
      <trkpt lat="43.78426" lon="7.51871">
        <ele>45.904</ele>
        <time>2020-06-24T06:09:19Z</time>
      </trkpt>
      <trkpt lat="43.78433" lon="7.51895">
        <ele>45.167</ele>
        <time>2020-06-24T06:09:34Z</time>
      </trkpt>
      <trkpt lat="43.78447" lon="7.51897">
        <ele>48.438</ele>
        <time>2020-06-24T06:09:50Z</time>
      </trkpt>
      <trkpt lat="43.78452" lon="7.51899">
        <ele>48.726</ele>
        <time>2020-06-24T06:10:06Z</time>
      </trkpt>
      <trkpt lat="43.78453" lon="7.51898">
        <ele>48.691</ele>
        <time>2020-06-24T06:10:21Z</time>
      </trkpt>
      <trkpt lat="43.7847" lon="7.51892">
        <ele>52.419</ele>
        <time>2020-06-24T06:10:37Z</time>
      </trkpt>
      <trkpt lat="43.78488" lon="7.51882">
        <ele>57.791</ele>
        <time>2020-06-24T06:10:53Z</time>
      </trkpt>
      <trkpt lat="43.78501" lon="7.51872">
        <ele>62.412</ele>
        <time>2020-06-24T06:11:08Z</time>
      </trkpt>
      <trkpt lat="43.78519" lon="7.51874">
        <ele>64.088</ele>
        <time>2020-06-24T06:11:23Z</time>
      </trkpt>
      <trkpt lat="43.78537" lon="7.51863">
        <ele>64.86</ele>
        <time>2020-06-24T06:11:39Z</time>
      </trkpt>
      <trkpt lat="43.78552" lon="7.51868">
        <ele>68.589</ele>
        <time>2020-06-24T06:11:55Z</time>
      </trkpt>
      <trkpt lat="43.7856" lon="7.51878">
        <ele>70.236</ele>
        <time>2020-06-24T06:12:11Z</time>
      </trkpt>
      <trkpt lat="43.78575" lon="7.5186">
        <ele>75.743</ele>
        <time>2020-06-24T06:12:26Z</time>
      </trkpt>
      <trkpt lat="43.78584" lon="7.51838">
        <ele>76.613</ele>
        <time>2020-06-24T06:12:42Z</time>
      </trkpt>
      <trkpt lat="43.78587" lon="7.51825">
        <ele>74.68</ele>
        <time>2020-06-24T06:12:57Z</time>
      </trkpt>
      <trkpt lat="43.7859" lon="7.51819">
        <ele>73.458</ele>
        <time>2020-06-24T06:13:12Z</time>
      </trkpt>
      <trkpt lat="43.78593" lon="7.51816">
        <ele>71.01</ele>
        <time>2020-06-24T06:13:28Z</time>
      </trkpt>
      <trkpt lat="43.78593" lon="7.51816">
        <ele>71.01</ele>
        <time>2020-06-24T06:13:44Z</time>
      </trkpt>
      <trkpt lat="43.78597" lon="7.51817">
        <ele>71.182</ele>
        <time>2020-06-24T06:13:59Z</time>
      </trkpt>
      <trkpt lat="43.78598" lon="7.51814">
        <ele>71.467</ele>
        <time>2020-06-24T06:14:15Z</time>
      </trkpt>
      <trkpt lat="43.786" lon="7.51807">
        <ele>71.409</ele>
        <time>2020-06-24T06:14:31Z</time>
      </trkpt>
      <trkpt lat="43.78606" lon="7.51796">
        <ele>74.593</ele>
        <time>2020-06-24T06:14:47Z</time>
      </trkpt>
      <trkpt lat="43.78613" lon="7.51786">
        <ele>77.65</ele>
        <time>2020-06-24T06:15:03Z</time>
      </trkpt>
      <trkpt lat="43.78607" lon="7.51778">
        <ele>85.01</ele>
        <time>2020-06-24T06:15:18Z</time>
      </trkpt>
      <trkpt lat="43.78611" lon="7.51779">
        <ele>85.599</ele>
        <time>2020-06-24T06:15:34Z</time>
      </trkpt>
      <trkpt lat="43.78611" lon="7.51779">
        <ele>85.599</ele>
        <time>2020-06-24T06:15:49Z</time>
      </trkpt>
      <trkpt lat="43.78615" lon="7.5178">
        <ele>86.405</ele>
        <time>2020-06-24T06:16:05Z</time>
      </trkpt>
      <trkpt lat="43.78619" lon="7.51769">
        <ele>92.179</ele>
        <time>2020-06-24T06:16:21Z</time>
      </trkpt>
      <trkpt lat="43.78612" lon="7.51753">
        <ele>95.095</ele>
        <time>2020-06-24T06:16:37Z</time>
      </trkpt>
      <trkpt lat="43.78622" lon="7.51756">
        <ele>95.478</ele>
        <time>2020-06-24T06:16:52Z</time>
      </trkpt>
      <trkpt lat="43.78628" lon="7.51756">
        <ele>96.021</ele>
        <time>2020-06-24T06:17:08Z</time>
      </trkpt>
      <trkpt lat="43.7863" lon="7.51757">
        <ele>98.625</ele>
        <time>2020-06-24T06:17:24Z</time>
      </trkpt>
      <trkpt lat="43.78631" lon="7.5175">
        <ele>99.016</ele>
        <time>2020-06-24T06:17:39Z</time>
      </trkpt>
      <trkpt lat="43.78639" lon="7.5174">
        <ele>100.317</ele>
        <time>2020-06-24T06:17:54Z</time>
      </trkpt>
      <trkpt lat="43.78643" lon="7.51722">
        <ele>100.857</ele>
        <time>2020-06-24T06:18:10Z</time>
      </trkpt>
      <trkpt lat="43.7865" lon="7.5171">
        <ele>100.962</ele>
        <time>2020-06-24T06:18:25Z</time>
      </trkpt>
      <trkpt lat="43.78661" lon="7.51708">
        <ele>100.063</ele>
        <time>2020-06-24T06:18:41Z</time>
      </trkpt>
      <trkpt lat="43.78674" lon="7.5171">
        <ele>103.265</ele>
        <time>2020-06-24T06:18:56Z</time>
      </trkpt>
      <trkpt lat="43.7868" lon="7.51715">
        <ele>118.925</ele>
        <time>2020-06-24T06:19:12Z</time>
      </trkpt>
      <trkpt lat="43.78691" lon="7.517">
        <ele>126.23</ele>
        <time>2020-06-24T06:19:28Z</time>
      </trkpt>
      <trkpt lat="43.78701" lon="7.51698">
        <ele>124.638</ele>
        <time>2020-06-24T06:19:43Z</time>
      </trkpt>
      <trkpt lat="43.78709" lon="7.51687">
        <ele>120.401</ele>
        <time>2020-06-24T06:19:58Z</time>
      </trkpt>
      <trkpt lat="43.78711" lon="7.51688">
        <ele>128.509</ele>
        <time>2020-06-24T06:20:13Z</time>
      </trkpt>
      <trkpt lat="43.78724" lon="7.51672">
        <ele>124.926</ele>
        <time>2020-06-24T06:20:29Z</time>
      </trkpt>
      <trkpt lat="43.78736" lon="7.51659">
        <ele>120.729</ele>
        <time>2020-06-24T06:20:45Z</time>
      </trkpt>
      <trkpt lat="43.78742" lon="7.51644">
        <ele>119.995</ele>
        <time>2020-06-24T06:21:00Z</time>
      </trkpt>
      <trkpt lat="43.78755" lon="7.51635">
        <ele>119.283</ele>
        <time>2020-06-24T06:21:15Z</time>
      </trkpt>
      <trkpt lat="43.78763" lon="7.51628">
        <ele>123.695</ele>
        <time>2020-06-24T06:21:30Z</time>
      </trkpt>
      <trkpt lat="43.78771" lon="7.51623">
        <ele>121.851</ele>
        <time>2020-06-24T06:21:46Z</time>
      </trkpt>
      <trkpt lat="43.78779" lon="7.51624">
        <ele>125.778</ele>
        <time>2020-06-24T06:22:02Z</time>
      </trkpt>
      <trkpt lat="43.78793" lon="7.51625">
        <ele>134.795</ele>
        <time>2020-06-24T06:22:18Z</time>
      </trkpt>
      <trkpt lat="43.78802" lon="7.51634">
        <ele>136.536</ele>
        <time>2020-06-24T06:22:34Z</time>
      </trkpt>
      <trkpt lat="43.78804" lon="7.51651">
        <ele>139.889</ele>
        <time>2020-06-24T06:22:49Z</time>
      </trkpt>
      <trkpt lat="43.7881" lon="7.5167">
        <ele>142.215</ele>
        <time>2020-06-24T06:23:04Z</time>
      </trkpt>
      <trkpt lat="43.78811" lon="7.5169">
        <ele>152.461</ele>
        <time>2020-06-24T06:23:20Z</time>
      </trkpt>
      <trkpt lat="43.78817" lon="7.5171">
        <ele>153.864</ele>
        <time>2020-06-24T06:23:35Z</time>
      </trkpt>
      <trkpt lat="43.7882" lon="7.51711">
        <ele>151.883</ele>
        <time>2020-06-24T06:23:50Z</time>
      </trkpt>
      <trkpt lat="43.78824" lon="7.51731">
        <ele>153.714</ele>
        <time>2020-06-24T06:24:06Z</time>
      </trkpt>
      <trkpt lat="43.78831" lon="7.51749">
        <ele>153.472</ele>
        <time>2020-06-24T06:24:21Z</time>
      </trkpt>
      <trkpt lat="43.78833" lon="7.51756">
        <ele>149.99</ele>
        <time>2020-06-24T06:24:37Z</time>
      </trkpt>
      <trkpt lat="43.7884" lon="7.51758">
        <ele>149.223</ele>
        <time>2020-06-24T06:24:52Z</time>
      </trkpt>
      <trkpt lat="43.7884" lon="7.51758">
        <ele>148.824</ele>
        <time>2020-06-24T06:25:07Z</time>
      </trkpt>
      <trkpt lat="43.78831" lon="7.51767">
        <ele>151.403</ele>
        <time>2020-06-24T06:25:23Z</time>
      </trkpt>
      <trkpt lat="43.78824" lon="7.51779">
        <ele>156.597</ele>
        <time>2020-06-24T06:25:39Z</time>
      </trkpt>
      <trkpt lat="43.78825" lon="7.518">
        <ele>149.323</ele>
        <time>2020-06-24T06:25:55Z</time>
      </trkpt>
      <trkpt lat="43.78819" lon="7.51815">
        <ele>148.969</ele>
        <time>2020-06-24T06:26:11Z</time>
      </trkpt>
      <trkpt lat="43.78818" lon="7.51819">
        <ele>151.022</ele>
        <time>2020-06-24T06:26:26Z</time>
      </trkpt>
      <trkpt lat="43.78826" lon="7.51816">
        <ele>154.433</ele>
        <time>2020-06-24T06:26:41Z</time>
      </trkpt>
      <trkpt lat="43.7882" lon="7.51818">
        <ele>159.331</ele>
        <time>2020-06-24T06:26:57Z</time>
      </trkpt>
      <trkpt lat="43.78828" lon="7.51818">
        <ele>162.596</ele>
        <time>2020-06-24T06:27:13Z</time>
      </trkpt>
      <trkpt lat="43.78831" lon="7.51825">
        <ele>169.443</ele>
        <time>2020-06-24T06:27:28Z</time>
      </trkpt>
      <trkpt lat="43.78834" lon="7.51835">
        <ele>174.367</ele>
        <time>2020-06-24T06:27:44Z</time>
      </trkpt>
      <trkpt lat="43.78843" lon="7.51836">
        <ele>167.54</ele>
        <time>2020-06-24T06:27:59Z</time>
      </trkpt>
      <trkpt lat="43.78844" lon="7.51829">
        <ele>169.088</ele>
        <time>2020-06-24T06:28:15Z</time>
      </trkpt>
      <trkpt lat="43.78848" lon="7.51815">
        <ele>171.887</ele>
        <time>2020-06-24T06:28:31Z</time>
      </trkpt>
      <trkpt lat="43.7885" lon="7.5181">
        <ele>172.654</ele>
        <time>2020-06-24T06:28:46Z</time>
      </trkpt>
      <trkpt lat="43.78856" lon="7.51807">
        <ele>175.006</ele>
        <time>2020-06-24T06:29:02Z</time>
      </trkpt>
      <trkpt lat="43.78861" lon="7.51801">
        <ele>176.139</ele>
        <time>2020-06-24T06:29:18Z</time>
      </trkpt>
      <trkpt lat="43.78871" lon="7.51788">
        <ele>176.294</ele>
        <time>2020-06-24T06:29:34Z</time>
      </trkpt>
      <trkpt lat="43.78883" lon="7.51786">
        <ele>183.592</ele>
        <time>2020-06-24T06:29:49Z</time>
      </trkpt>
      <trkpt lat="43.78889" lon="7.51804">
        <ele>182.963</ele>
        <time>2020-06-24T06:30:05Z</time>
      </trkpt>
      <trkpt lat="43.78895" lon="7.51816">
        <ele>181.748</ele>
        <time>2020-06-24T06:30:21Z</time>
      </trkpt>
      <trkpt lat="43.78903" lon="7.51834">
        <ele>181.884</ele>
        <time>2020-06-24T06:30:37Z</time>
      </trkpt>
      <trkpt lat="43.78914" lon="7.51836">
        <ele>185.951</ele>
        <time>2020-06-24T06:30:53Z</time>
      </trkpt>
      <trkpt lat="43.7893" lon="7.51844">
        <ele>184.063</ele>
        <time>2020-06-24T06:31:08Z</time>
      </trkpt>
      <trkpt lat="43.78931" lon="7.51832">
        <ele>190.947</ele>
        <time>2020-06-24T06:31:23Z</time>
      </trkpt>
      <trkpt lat="43.78926" lon="7.51812">
        <ele>189.641</ele>
        <time>2020-06-24T06:31:39Z</time>
      </trkpt>
      <trkpt lat="43.78917" lon="7.51795">
        <ele>192.354</ele>
        <time>2020-06-24T06:31:54Z</time>
      </trkpt>
      <trkpt lat="43.78914" lon="7.51778">
        <ele>194.091</ele>
        <time>2020-06-24T06:32:10Z</time>
      </trkpt>
      <trkpt lat="43.78918" lon="7.51767">
        <ele>194.052</ele>
        <time>2020-06-24T06:32:25Z</time>
      </trkpt>
      <trkpt lat="43.78919" lon="7.51768">
        <ele>198.941</ele>
        <time>2020-06-24T06:32:41Z</time>
      </trkpt>
      <trkpt lat="43.78916" lon="7.51774">
        <ele>197.814</ele>
        <time>2020-06-24T06:32:56Z</time>
      </trkpt>
      <trkpt lat="43.78923" lon="7.51767">
        <ele>198.003</ele>
        <time>2020-06-24T06:33:11Z</time>
      </trkpt>
      <trkpt lat="43.78926" lon="7.51764">
        <ele>198.467</ele>
        <time>2020-06-24T06:33:27Z</time>
      </trkpt>
      <trkpt lat="43.78935" lon="7.51768">
        <ele>198.202</ele>
        <time>2020-06-24T06:33:42Z</time>
      </trkpt>
      <trkpt lat="43.78943" lon="7.51767">
        <ele>199.134</ele>
        <time>2020-06-24T06:33:58Z</time>
      </trkpt>
      <trkpt lat="43.78947" lon="7.51771">
        <ele>203.041</ele>
        <time>2020-06-24T06:34:13Z</time>
      </trkpt>
      <trkpt lat="43.78948" lon="7.5177">
        <ele>204.823</ele>
        <time>2020-06-24T06:34:29Z</time>
      </trkpt>
      <trkpt lat="43.78956" lon="7.51759">
        <ele>206.263</ele>
        <time>2020-06-24T06:34:44Z</time>
      </trkpt>
      <trkpt lat="43.78962" lon="7.51756">
        <ele>207.375</ele>
        <time>2020-06-24T06:35:00Z</time>
      </trkpt>
      <trkpt lat="43.78966" lon="7.51758">
        <ele>208.743</ele>
        <time>2020-06-24T06:35:16Z</time>
      </trkpt>
      <trkpt lat="43.78971" lon="7.51756">
        <ele>215.333</ele>
        <time>2020-06-24T06:35:31Z</time>
      </trkpt>
      <trkpt lat="43.78975" lon="7.51742">
        <ele>217.192</ele>
        <time>2020-06-24T06:35:47Z</time>
      </trkpt>
      <trkpt lat="43.78974" lon="7.51741">
        <ele>218.195</ele>
        <time>2020-06-24T06:36:03Z</time>
      </trkpt>
      <trkpt lat="43.78974" lon="7.51741">
        <ele>218.195</ele>
        <time>2020-06-24T06:36:18Z</time>
      </trkpt>
      <trkpt lat="43.78974" lon="7.51741">
        <ele>218.195</ele>
        <time>2020-06-24T06:36:33Z</time>
      </trkpt>
      <trkpt lat="43.78974" lon="7.51741">
        <ele>218.195</ele>
        <time>2020-06-24T06:36:49Z</time>
      </trkpt>
      <trkpt lat="43.78974" lon="7.51741">
        <ele>218.195</ele>
        <time>2020-06-24T06:37:05Z</time>
      </trkpt>
      <trkpt lat="43.78974" lon="7.51741">
        <ele>218.195</ele>
        <time>2020-06-24T06:37:20Z</time>
      </trkpt>
      <trkpt lat="43.78976" lon="7.51736">
        <ele>217.139</ele>
        <time>2020-06-24T06:37:36Z</time>
      </trkpt>
      <trkpt lat="43.78975" lon="7.51737">
        <ele>216.735</ele>
        <time>2020-06-24T06:37:52Z</time>
      </trkpt>
      <trkpt lat="43.78975" lon="7.51746">
        <ele>221.794</ele>
        <time>2020-06-24T06:38:08Z</time>
      </trkpt>
      <trkpt lat="43.78979" lon="7.51753">
        <ele>225.195</ele>
        <time>2020-06-24T06:38:24Z</time>
      </trkpt>
      <trkpt lat="43.78987" lon="7.51769">
        <ele>230.068</ele>
        <time>2020-06-24T06:38:40Z</time>
      </trkpt>
      <trkpt lat="43.78996" lon="7.51771">
        <ele>228.433</ele>
        <time>2020-06-24T06:38:56Z</time>
      </trkpt>
      <trkpt lat="43.79005" lon="7.51753">
        <ele>227.878</ele>
        <time>2020-06-24T06:39:12Z</time>
      </trkpt>
      <trkpt lat="43.79008" lon="7.51751">
        <ele>234.448</ele>
        <time>2020-06-24T06:39:27Z</time>
      </trkpt>
      <trkpt lat="43.7901" lon="7.51732">
        <ele>239.72</ele>
        <time>2020-06-24T06:39:42Z</time>
      </trkpt>
      <trkpt lat="43.79013" lon="7.51709">
        <ele>241.937</ele>
        <time>2020-06-24T06:39:58Z</time>
      </trkpt>
      <trkpt lat="43.79016" lon="7.51685">
        <ele>244.595</ele>
        <time>2020-06-24T06:40:13Z</time>
      </trkpt>
      <trkpt lat="43.79015" lon="7.51662">
        <ele>245.457</ele>
        <time>2020-06-24T06:40:28Z</time>
      </trkpt>
      <trkpt lat="43.7902" lon="7.51635">
        <ele>245.487</ele>
        <time>2020-06-24T06:40:44Z</time>
      </trkpt>
      <trkpt lat="43.79027" lon="7.51609">
        <ele>243.833</ele>
        <time>2020-06-24T06:40:59Z</time>
      </trkpt>
      <trkpt lat="43.79033" lon="7.51583">
        <ele>246.464</ele>
        <time>2020-06-24T06:41:14Z</time>
      </trkpt>
      <trkpt lat="43.79039" lon="7.51558">
        <ele>241.242</ele>
        <time>2020-06-24T06:41:30Z</time>
      </trkpt>
      <trkpt lat="43.79042" lon="7.5155">
        <ele>239.705</ele>
        <time>2020-06-24T06:41:45Z</time>
      </trkpt>
      <trkpt lat="43.79047" lon="7.51561">
        <ele>238.061</ele>
        <time>2020-06-24T06:42:00Z</time>
      </trkpt>
      <trkpt lat="43.79064" lon="7.51585">
        <ele>234.233</ele>
        <time>2020-06-24T06:42:16Z</time>
      </trkpt>
      <trkpt lat="43.79072" lon="7.51598">
        <ele>236.736</ele>
        <time>2020-06-24T06:42:32Z</time>
      </trkpt>
      <trkpt lat="43.79083" lon="7.51614">
        <ele>239.903</ele>
        <time>2020-06-24T06:42:47Z</time>
      </trkpt>
      <trkpt lat="43.79096" lon="7.51617">
        <ele>243.922</ele>
        <time>2020-06-24T06:43:02Z</time>
      </trkpt>
      <trkpt lat="43.79119" lon="7.51608">
        <ele>245.86</ele>
        <time>2020-06-24T06:43:18Z</time>
      </trkpt>
      <trkpt lat="43.79125" lon="7.51585">
        <ele>247.595</ele>
        <time>2020-06-24T06:43:33Z</time>
      </trkpt>
      <trkpt lat="43.79131" lon="7.51565">
        <ele>246.186</ele>
        <time>2020-06-24T06:43:49Z</time>
      </trkpt>
      <trkpt lat="43.79139" lon="7.51548">
        <ele>250.671</ele>
        <time>2020-06-24T06:44:05Z</time>
      </trkpt>
      <trkpt lat="43.79146" lon="7.51546">
        <ele>251.49</ele>
        <time>2020-06-24T06:44:21Z</time>
      </trkpt>
      <trkpt lat="43.79134" lon="7.51556">
        <ele>255.126</ele>
        <time>2020-06-24T06:44:37Z</time>
      </trkpt>
      <trkpt lat="43.79125" lon="7.51579">
        <ele>251.937</ele>
        <time>2020-06-24T06:44:52Z</time>
      </trkpt>
      <trkpt lat="43.79122" lon="7.51599">
        <ele>249.131</ele>
        <time>2020-06-24T06:45:08Z</time>
      </trkpt>
      <trkpt lat="43.79122" lon="7.51627">
        <ele>249.541</ele>
        <time>2020-06-24T06:45:24Z</time>
      </trkpt>
      <trkpt lat="43.79115" lon="7.51651">
        <ele>251.239</ele>
        <time>2020-06-24T06:45:40Z</time>
      </trkpt>
      <trkpt lat="43.79106" lon="7.51656">
        <ele>254.034</ele>
        <time>2020-06-24T06:45:56Z</time>
      </trkpt>
      <trkpt lat="43.79106" lon="7.51656">
        <ele>254.034</ele>
        <time>2020-06-24T06:46:11Z</time>
      </trkpt>
      <trkpt lat="43.79105" lon="7.51656">
        <ele>258.006</ele>
        <time>2020-06-24T06:46:27Z</time>
      </trkpt>
      <trkpt lat="43.79111" lon="7.5166">
        <ele>259.698</ele>
        <time>2020-06-24T06:46:43Z</time>
      </trkpt>
      <trkpt lat="43.7911" lon="7.51661">
        <ele>261.041</ele>
        <time>2020-06-24T06:46:58Z</time>
      </trkpt>
      <trkpt lat="43.79111" lon="7.51663">
        <ele>261.714</ele>
        <time>2020-06-24T06:47:13Z</time>
      </trkpt>
      <trkpt lat="43.79115" lon="7.51668">
        <ele>264.943</ele>
        <time>2020-06-24T06:47:29Z</time>
      </trkpt>
      <trkpt lat="43.79108" lon="7.51671">
        <ele>269.295</ele>
        <time>2020-06-24T06:47:44Z</time>
      </trkpt>
      <trkpt lat="43.79102" lon="7.51653">
        <ele>282.124</ele>
        <time>2020-06-24T06:47:59Z</time>
      </trkpt>
      <trkpt lat="43.79095" lon="7.51659">
        <ele>282.227</ele>
        <time>2020-06-24T06:48:15Z</time>
      </trkpt>
      <trkpt lat="43.79098" lon="7.51663">
        <ele>280.162</ele>
        <time>2020-06-24T06:48:31Z</time>
      </trkpt>
      <trkpt lat="43.79115" lon="7.51684">
        <ele>276.633</ele>
        <time>2020-06-24T06:48:47Z</time>
      </trkpt>
      <trkpt lat="43.79121" lon="7.51691">
        <ele>278.192</ele>
        <time>2020-06-24T06:49:02Z</time>
      </trkpt>
      <trkpt lat="43.79123" lon="7.51697">
        <ele>280.268</ele>
        <time>2020-06-24T06:49:18Z</time>
      </trkpt>
      <trkpt lat="43.79133" lon="7.51705">
        <ele>285.91</ele>
        <time>2020-06-24T06:49:34Z</time>
      </trkpt>
      <trkpt lat="43.79131" lon="7.51709">
        <ele>285.514</ele>
        <time>2020-06-24T06:49:49Z</time>
      </trkpt>
      <trkpt lat="43.79136" lon="7.51719">
        <ele>282.476</ele>
        <time>2020-06-24T06:50:05Z</time>
      </trkpt>
      <trkpt lat="43.79141" lon="7.51728">
        <ele>284.501</ele>
        <time>2020-06-24T06:50:20Z</time>
      </trkpt>
      <trkpt lat="43.79143" lon="7.51733">
        <ele>284.539</ele>
        <time>2020-06-24T06:50:35Z</time>
      </trkpt>
      <trkpt lat="43.79144" lon="7.51742">
        <ele>284.643</ele>
        <time>2020-06-24T06:50:51Z</time>
      </trkpt>
      <trkpt lat="43.79147" lon="7.51748">
        <ele>285.917</ele>
        <time>2020-06-24T06:51:07Z</time>
      </trkpt>
      <trkpt lat="43.79147" lon="7.51754">
        <ele>286.515</ele>
        <time>2020-06-24T06:51:23Z</time>
      </trkpt>
      <trkpt lat="43.7915" lon="7.51758">
        <ele>288.034</ele>
        <time>2020-06-24T06:51:39Z</time>
      </trkpt>
      <trkpt lat="43.79157" lon="7.51764">
        <ele>291.263</ele>
        <time>2020-06-24T06:51:55Z</time>
      </trkpt>
      <trkpt lat="43.79162" lon="7.51769">
        <ele>293.225</ele>
        <time>2020-06-24T06:52:11Z</time>
      </trkpt>
      <trkpt lat="43.79163" lon="7.51769">
        <ele>294.931</ele>
        <time>2020-06-24T06:52:26Z</time>
      </trkpt>
      <trkpt lat="43.79172" lon="7.51772">
        <ele>302.08</ele>
        <time>2020-06-24T06:52:42Z</time>
      </trkpt>
      <trkpt lat="43.79177" lon="7.51776">
        <ele>303.988</ele>
        <time>2020-06-24T06:52:58Z</time>
      </trkpt>
      <trkpt lat="43.79177" lon="7.51776">
        <ele>303.813</ele>
        <time>2020-06-24T06:53:13Z</time>
      </trkpt>
      <trkpt lat="43.79178" lon="7.51777">
        <ele>304.942</ele>
        <time>2020-06-24T06:53:28Z</time>
      </trkpt>
      <trkpt lat="43.79177" lon="7.51776">
        <ele>305.377</ele>
        <time>2020-06-24T06:53:43Z</time>
      </trkpt>
      <trkpt lat="43.79179" lon="7.51779">
        <ele>305.456</ele>
        <time>2020-06-24T06:53:59Z</time>
      </trkpt>
      <trkpt lat="43.79183" lon="7.51783">
        <ele>304.709</ele>
        <time>2020-06-24T06:54:14Z</time>
      </trkpt>
      <trkpt lat="43.79178" lon="7.5179">
        <ele>308.783</ele>
        <time>2020-06-24T06:54:30Z</time>
      </trkpt>
      <trkpt lat="43.79179" lon="7.5179">
        <ele>309.711</ele>
        <time>2020-06-24T06:54:45Z</time>
      </trkpt>
      <trkpt lat="43.79179" lon="7.5179">
        <ele>309.711</ele>
        <time>2020-06-24T06:55:00Z</time>
      </trkpt>
      <trkpt lat="43.79179" lon="7.51789">
        <ele>310.099</ele>
        <time>2020-06-24T06:55:16Z</time>
      </trkpt>
      <trkpt lat="43.79178" lon="7.5179">
        <ele>308.582</ele>
        <time>2020-06-24T06:55:31Z</time>
      </trkpt>
      <trkpt lat="43.79178" lon="7.5179">
        <ele>308.582</ele>
        <time>2020-06-24T06:55:46Z</time>
      </trkpt>
      <trkpt lat="43.79178" lon="7.5179">
        <ele>308.582</ele>
        <time>2020-06-24T06:56:02Z</time>
      </trkpt>
      <trkpt lat="43.79181" lon="7.51794">
        <ele>311.125</ele>
        <time>2020-06-24T06:56:17Z</time>
      </trkpt>
      <trkpt lat="43.79186" lon="7.518">
        <ele>316.021</ele>
        <time>2020-06-24T06:56:33Z</time>
      </trkpt>
      <trkpt lat="43.79189" lon="7.51802">
        <ele>315.208</ele>
        <time>2020-06-24T06:56:48Z</time>
      </trkpt>
      <trkpt lat="43.79194" lon="7.51803">
        <ele>317.48</ele>
        <time>2020-06-24T06:57:03Z</time>
      </trkpt>
      <trkpt lat="43.79196" lon="7.51801">
        <ele>317.263</ele>
        <time>2020-06-24T06:57:19Z</time>
      </trkpt>
      <trkpt lat="43.79202" lon="7.51803">
        <ele>320.77</ele>
        <time>2020-06-24T06:57:34Z</time>
      </trkpt>
      <trkpt lat="43.79205" lon="7.51811">
        <ele>327.494</ele>
        <time>2020-06-24T06:57:50Z</time>
      </trkpt>
      <trkpt lat="43.79204" lon="7.51811">
        <ele>329.559</ele>
        <time>2020-06-24T06:58:05Z</time>
      </trkpt>
      <trkpt lat="43.79205" lon="7.51815">
        <ele>330.346</ele>
        <time>2020-06-24T06:58:21Z</time>
      </trkpt>
      <trkpt lat="43.79209" lon="7.51816">
        <ele>331.076</ele>
        <time>2020-06-24T06:58:36Z</time>
      </trkpt>
      <trkpt lat="43.79212" lon="7.51819">
        <ele>331.201</ele>
        <time>2020-06-24T06:58:52Z</time>
      </trkpt>
      <trkpt lat="43.79216" lon="7.51823">
        <ele>333.946</ele>
        <time>2020-06-24T06:59:08Z</time>
      </trkpt>
      <trkpt lat="43.79215" lon="7.51829">
        <ele>338.019</ele>
        <time>2020-06-24T06:59:24Z</time>
      </trkpt>
      <trkpt lat="43.79225" lon="7.51831">
        <ele>344.233</ele>
        <time>2020-06-24T06:59:39Z</time>
      </trkpt>
      <trkpt lat="43.79234" lon="7.51825">
        <ele>348.68</ele>
        <time>2020-06-24T06:59:55Z</time>
      </trkpt>
      <trkpt lat="43.79232" lon="7.51832">
        <ele>347.616</ele>
        <time>2020-06-24T07:00:10Z</time>
      </trkpt>
      <trkpt lat="43.7923" lon="7.51837">
        <ele>352.877</ele>
        <time>2020-06-24T07:00:25Z</time>
      </trkpt>
      <trkpt lat="43.79229" lon="7.51843">
        <ele>355.127</ele>
        <time>2020-06-24T07:00:41Z</time>
      </trkpt>
      <trkpt lat="43.79232" lon="7.51854">
        <ele>354.846</ele>
        <time>2020-06-24T07:00:57Z</time>
      </trkpt>
      <trkpt lat="43.79238" lon="7.5186">
        <ele>356.25</ele>
        <time>2020-06-24T07:01:13Z</time>
      </trkpt>
      <trkpt lat="43.79241" lon="7.51868">
        <ele>355.039</ele>
        <time>2020-06-24T07:01:29Z</time>
      </trkpt>
      <trkpt lat="43.79242" lon="7.51875">
        <ele>354.473</ele>
        <time>2020-06-24T07:01:44Z</time>
      </trkpt>
      <trkpt lat="43.79241" lon="7.51877">
        <ele>354.497</ele>
        <time>2020-06-24T07:02:00Z</time>
      </trkpt>
      <trkpt lat="43.79243" lon="7.5188">
        <ele>355.609</ele>
        <time>2020-06-24T07:02:15Z</time>
      </trkpt>
      <trkpt lat="43.79246" lon="7.51892">
        <ele>362.198</ele>
        <time>2020-06-24T07:02:30Z</time>
      </trkpt>
      <trkpt lat="43.7925" lon="7.51893">
        <ele>365.563</ele>
        <time>2020-06-24T07:02:46Z</time>
      </trkpt>
      <trkpt lat="43.79258" lon="7.51894">
        <ele>368.115</ele>
        <time>2020-06-24T07:03:02Z</time>
      </trkpt>
      <trkpt lat="43.79262" lon="7.51902">
        <ele>371.325</ele>
        <time>2020-06-24T07:03:18Z</time>
      </trkpt>
      <trkpt lat="43.7926" lon="7.51908">
        <ele>374.157</ele>
        <time>2020-06-24T07:03:33Z</time>
      </trkpt>
      <trkpt lat="43.7926" lon="7.51908">
        <ele>374.157</ele>
        <time>2020-06-24T07:03:48Z</time>
      </trkpt>
      <trkpt lat="43.7926" lon="7.51909">
        <ele>373.323</ele>
        <time>2020-06-24T07:04:04Z</time>
      </trkpt>
      <trkpt lat="43.7926" lon="7.51909">
        <ele>373.323</ele>
        <time>2020-06-24T07:04:20Z</time>
      </trkpt>
      <trkpt lat="43.79265" lon="7.51923">
        <ele>374.725</ele>
        <time>2020-06-24T07:04:36Z</time>
      </trkpt>
      <trkpt lat="43.79268" lon="7.51925">
        <ele>376.336</ele>
        <time>2020-06-24T07:04:52Z</time>
      </trkpt>
      <trkpt lat="43.79282" lon="7.51926">
        <ele>383.359</ele>
        <time>2020-06-24T07:05:08Z</time>
      </trkpt>
      <trkpt lat="43.79285" lon="7.51932">
        <ele>384.591</ele>
        <time>2020-06-24T07:05:24Z</time>
      </trkpt>
      <trkpt lat="43.79291" lon="7.51935">
        <ele>390.366</ele>
        <time>2020-06-24T07:05:39Z</time>
      </trkpt>
      <trkpt lat="43.79294" lon="7.51937">
        <ele>391.472</ele>
        <time>2020-06-24T07:05:55Z</time>
      </trkpt>
      <trkpt lat="43.793" lon="7.51951">
        <ele>390.623</ele>
        <time>2020-06-24T07:06:10Z</time>
      </trkpt>
      <trkpt lat="43.793" lon="7.51954">
        <ele>390.572</ele>
        <time>2020-06-24T07:06:26Z</time>
      </trkpt>
      <trkpt lat="43.793" lon="7.51961">
        <ele>391.835</ele>
        <time>2020-06-24T07:06:42Z</time>
      </trkpt>
      <trkpt lat="43.79302" lon="7.51974">
        <ele>396.071</ele>
        <time>2020-06-24T07:06:57Z</time>
      </trkpt>
      <trkpt lat="43.79302" lon="7.51991">
        <ele>394.585</ele>
        <time>2020-06-24T07:07:13Z</time>
      </trkpt>
      <trkpt lat="43.79306" lon="7.52007">
        <ele>393.673</ele>
        <time>2020-06-24T07:07:29Z</time>
      </trkpt>
      <trkpt lat="43.79314" lon="7.52021">
        <ele>391.625</ele>
        <time>2020-06-24T07:07:45Z</time>
      </trkpt>
      <trkpt lat="43.79318" lon="7.52025">
        <ele>395.998</ele>
        <time>2020-06-24T07:08:01Z</time>
      </trkpt>
      <trkpt lat="43.79322" lon="7.52027">
        <ele>397.849</ele>
        <time>2020-06-24T07:08:16Z</time>
      </trkpt>
      <trkpt lat="43.79326" lon="7.5203">
        <ele>401.97</ele>
        <time>2020-06-24T07:08:31Z</time>
      </trkpt>
      <trkpt lat="43.79333" lon="7.52035">
        <ele>405.313</ele>
        <time>2020-06-24T07:08:47Z</time>
      </trkpt>
      <trkpt lat="43.79339" lon="7.52035">
        <ele>408.248</ele>
        <time>2020-06-24T07:09:02Z</time>
      </trkpt>
      <trkpt lat="43.79341" lon="7.52034">
        <ele>409.035</ele>
        <time>2020-06-24T07:09:18Z</time>
      </trkpt>
      <trkpt lat="43.79345" lon="7.52038">
        <ele>409.447</ele>
        <time>2020-06-24T07:09:33Z</time>
      </trkpt>
      <trkpt lat="43.79351" lon="7.5204">
        <ele>413.229</ele>
        <time>2020-06-24T07:09:49Z</time>
      </trkpt>
      <trkpt lat="43.79355" lon="7.52044">
        <ele>424.06</ele>
        <time>2020-06-24T07:10:04Z</time>
      </trkpt>
      <trkpt lat="43.79365" lon="7.52042">
        <ele>423.206</ele>
        <time>2020-06-24T07:10:20Z</time>
      </trkpt>
      <trkpt lat="43.7937" lon="7.52045">
        <ele>422.204</ele>
        <time>2020-06-24T07:10:36Z</time>
      </trkpt>
      <trkpt lat="43.79375" lon="7.52049">
        <ele>422.408</ele>
        <time>2020-06-24T07:10:51Z</time>
      </trkpt>
      <trkpt lat="43.79381" lon="7.52061">
        <ele>423.853</ele>
        <time>2020-06-24T07:11:07Z</time>
      </trkpt>
      <trkpt lat="43.79388" lon="7.52068">
        <ele>429.316</ele>
        <time>2020-06-24T07:11:23Z</time>
      </trkpt>
      <trkpt lat="43.79388" lon="7.52065">
        <ele>431.351</ele>
        <time>2020-06-24T07:11:38Z</time>
      </trkpt>
      <trkpt lat="43.79396" lon="7.52071">
        <ele>433.139</ele>
        <time>2020-06-24T07:11:53Z</time>
      </trkpt>
      <trkpt lat="43.79397" lon="7.52075">
        <ele>433.461</ele>
        <time>2020-06-24T07:12:08Z</time>
      </trkpt>
      <trkpt lat="43.79405" lon="7.52079">
        <ele>435.439</ele>
        <time>2020-06-24T07:12:24Z</time>
      </trkpt>
      <trkpt lat="43.79406" lon="7.52082">
        <ele>438.492</ele>
        <time>2020-06-24T07:12:39Z</time>
      </trkpt>
      <trkpt lat="43.79408" lon="7.5208">
        <ele>444.464</ele>
        <time>2020-06-24T07:12:55Z</time>
      </trkpt>
      <trkpt lat="43.79413" lon="7.52087">
        <ele>449.173</ele>
        <time>2020-06-24T07:13:10Z</time>
      </trkpt>
      <trkpt lat="43.79416" lon="7.52088">
        <ele>451.11</ele>
        <time>2020-06-24T07:13:25Z</time>
      </trkpt>
      <trkpt lat="43.79418" lon="7.52093">
        <ele>451.423</ele>
        <time>2020-06-24T07:13:41Z</time>
      </trkpt>
      <trkpt lat="43.79424" lon="7.52105">
        <ele>456.9</ele>
        <time>2020-06-24T07:13:56Z</time>
      </trkpt>
      <trkpt lat="43.79426" lon="7.52106">
        <ele>458.027</ele>
        <time>2020-06-24T07:14:12Z</time>
      </trkpt>
      <trkpt lat="43.79433" lon="7.52116">
        <ele>458.426</ele>
        <time>2020-06-24T07:14:27Z</time>
      </trkpt>
      <trkpt lat="43.79433" lon="7.52116">
        <ele>458.426</ele>
        <time>2020-06-24T07:14:43Z</time>
      </trkpt>
      <trkpt lat="43.79438" lon="7.52115">
        <ele>460.483</ele>
        <time>2020-06-24T07:14:58Z</time>
      </trkpt>
      <trkpt lat="43.79447" lon="7.52123">
        <ele>463.203</ele>
        <time>2020-06-24T07:15:13Z</time>
      </trkpt>
      <trkpt lat="43.79447" lon="7.52123">
        <ele>463.203</ele>
        <time>2020-06-24T07:15:29Z</time>
      </trkpt>
      <trkpt lat="43.79455" lon="7.52129">
        <ele>466.096</ele>
        <time>2020-06-24T07:15:44Z</time>
      </trkpt>
      <trkpt lat="43.79455" lon="7.52129">
        <ele>466.096</ele>
        <time>2020-06-24T07:15:59Z</time>
      </trkpt>
      <trkpt lat="43.79455" lon="7.52129">
        <ele>466.096</ele>
        <time>2020-06-24T07:16:15Z</time>
      </trkpt>
      <trkpt lat="43.79455" lon="7.52129">
        <ele>466.096</ele>
        <time>2020-06-24T07:16:31Z</time>
      </trkpt>
      <trkpt lat="43.79455" lon="7.52129">
        <ele>466.096</ele>
        <time>2020-06-24T07:16:46Z</time>
      </trkpt>
      <trkpt lat="43.79455" lon="7.52129">
        <ele>466.096</ele>
        <time>2020-06-24T07:17:02Z</time>
      </trkpt>
      <trkpt lat="43.79455" lon="7.52129">
        <ele>466.096</ele>
        <time>2020-06-24T07:17:18Z</time>
      </trkpt>
      <trkpt lat="43.79455" lon="7.52129">
        <ele>466.096</ele>
        <time>2020-06-24T07:17:34Z</time>
      </trkpt>
      <trkpt lat="43.79455" lon="7.52129">
        <ele>466.096</ele>
        <time>2020-06-24T07:17:49Z</time>
      </trkpt>
      <trkpt lat="43.79455" lon="7.52129">
        <ele>466.096</ele>
        <time>2020-06-24T07:18:04Z</time>
      </trkpt>
      <trkpt lat="43.79455" lon="7.5213">
        <ele>467.122</ele>
        <time>2020-06-24T07:18:20Z</time>
      </trkpt>
      <trkpt lat="43.79455" lon="7.5213">
        <ele>467.122</ele>
        <time>2020-06-24T07:18:36Z</time>
      </trkpt>
      <trkpt lat="43.79455" lon="7.5213">
        <ele>467.122</ele>
        <time>2020-06-24T07:18:51Z</time>
      </trkpt>
      <trkpt lat="43.79455" lon="7.5213">
        <ele>467.122</ele>
        <time>2020-06-24T07:19:07Z</time>
      </trkpt>
      <trkpt lat="43.79459" lon="7.52125">
        <ele>469.046</ele>
        <time>2020-06-24T07:19:22Z</time>
      </trkpt>
      <trkpt lat="43.7946" lon="7.52125">
        <ele>469.605</ele>
        <time>2020-06-24T07:19:38Z</time>
      </trkpt>
      <trkpt lat="43.79465" lon="7.52119">
        <ele>473.356</ele>
        <time>2020-06-24T07:19:54Z</time>
      </trkpt>
      <trkpt lat="43.79468" lon="7.52114">
        <ele>476.025</ele>
        <time>2020-06-24T07:20:10Z</time>
      </trkpt>
      <trkpt lat="43.79474" lon="7.52125">
        <ele>475.275</ele>
        <time>2020-06-24T07:20:25Z</time>
      </trkpt>
      <trkpt lat="43.79482" lon="7.52135">
        <ele>483.579</ele>
        <time>2020-06-24T07:20:41Z</time>
      </trkpt>
      <trkpt lat="43.7949" lon="7.5214">
        <ele>487.002</ele>
        <time>2020-06-24T07:20:56Z</time>
      </trkpt>
      <trkpt lat="43.79493" lon="7.52144">
        <ele>490.894</ele>
        <time>2020-06-24T07:21:11Z</time>
      </trkpt>
      <trkpt lat="43.79498" lon="7.52145">
        <ele>496.084</ele>
        <time>2020-06-24T07:21:27Z</time>
      </trkpt>
      <trkpt lat="43.79501" lon="7.52146">
        <ele>498.472</ele>
        <time>2020-06-24T07:21:42Z</time>
      </trkpt>
      <trkpt lat="43.79507" lon="7.5216">
        <ele>496.576</ele>
        <time>2020-06-24T07:21:58Z</time>
      </trkpt>
      <trkpt lat="43.7951" lon="7.5216">
        <ele>497.415</ele>
        <time>2020-06-24T07:22:14Z</time>
      </trkpt>
      <trkpt lat="43.79514" lon="7.52165">
        <ele>497.096</ele>
        <time>2020-06-24T07:22:29Z</time>
      </trkpt>
      <trkpt lat="43.79518" lon="7.52172">
        <ele>500.19</ele>
        <time>2020-06-24T07:22:45Z</time>
      </trkpt>
      <trkpt lat="43.79522" lon="7.52171">
        <ele>501.417</ele>
        <time>2020-06-24T07:23:00Z</time>
      </trkpt>
      <trkpt lat="43.79525" lon="7.52178">
        <ele>501.894</ele>
        <time>2020-06-24T07:23:16Z</time>
      </trkpt>
      <trkpt lat="43.79531" lon="7.52187">
        <ele>507.735</ele>
        <time>2020-06-24T07:23:31Z</time>
      </trkpt>
      <trkpt lat="43.79531" lon="7.52187">
        <ele>507.735</ele>
        <time>2020-06-24T07:23:47Z</time>
      </trkpt>
      <trkpt lat="43.79532" lon="7.5219">
        <ele>507.856</ele>
        <time>2020-06-24T07:24:02Z</time>
      </trkpt>
      <trkpt lat="43.7954" lon="7.52193">
        <ele>511.418</ele>
        <time>2020-06-24T07:24:18Z</time>
      </trkpt>
      <trkpt lat="43.79542" lon="7.52195">
        <ele>512.728</ele>
        <time>2020-06-24T07:24:33Z</time>
      </trkpt>
      <trkpt lat="43.79542" lon="7.52197">
        <ele>514.299</ele>
        <time>2020-06-24T07:24:49Z</time>
      </trkpt>
      <trkpt lat="43.79541" lon="7.52207">
        <ele>517.868</ele>
        <time>2020-06-24T07:25:04Z</time>
      </trkpt>
      <trkpt lat="43.79541" lon="7.52207">
        <ele>517.868</ele>
        <time>2020-06-24T07:25:20Z</time>
      </trkpt>
      <trkpt lat="43.79541" lon="7.52209">
        <ele>518.063</ele>
        <time>2020-06-24T07:25:36Z</time>
      </trkpt>
      <trkpt lat="43.79541" lon="7.52209">
        <ele>519.526</ele>
        <time>2020-06-24T07:25:52Z</time>
      </trkpt>
      <trkpt lat="43.79541" lon="7.52209">
        <ele>519.526</ele>
        <time>2020-06-24T07:26:07Z</time>
      </trkpt>
      <trkpt lat="43.79541" lon="7.52209">
        <ele>519.526</ele>
        <time>2020-06-24T07:26:23Z</time>
      </trkpt>
      <trkpt lat="43.79541" lon="7.52209">
        <ele>519.526</ele>
        <time>2020-06-24T07:26:38Z</time>
      </trkpt>
      <trkpt lat="43.7954" lon="7.52209">
        <ele>520.125</ele>
        <time>2020-06-24T07:26:54Z</time>
      </trkpt>
      <trkpt lat="43.79541" lon="7.52207">
        <ele>520.771</ele>
        <time>2020-06-24T07:27:09Z</time>
      </trkpt>
      <trkpt lat="43.79543" lon="7.52215">
        <ele>522.453</ele>
        <time>2020-06-24T07:27:25Z</time>
      </trkpt>
      <trkpt lat="43.7955" lon="7.52218">
        <ele>527.216</ele>
        <time>2020-06-24T07:27:41Z</time>
      </trkpt>
      <trkpt lat="43.79554" lon="7.52218">
        <ele>528.94</ele>
        <time>2020-06-24T07:27:56Z</time>
      </trkpt>
      <trkpt lat="43.7956" lon="7.52216">
        <ele>534.219</ele>
        <time>2020-06-24T07:28:11Z</time>
      </trkpt>
      <trkpt lat="43.79561" lon="7.52211">
        <ele>536.906</ele>
        <time>2020-06-24T07:28:27Z</time>
      </trkpt>
      <trkpt lat="43.79566" lon="7.52201">
        <ele>538.428</ele>
        <time>2020-06-24T07:28:42Z</time>
      </trkpt>
      <trkpt lat="43.79571" lon="7.52197">
        <ele>540.66</ele>
        <time>2020-06-24T07:28:57Z</time>
      </trkpt>
      <trkpt lat="43.79572" lon="7.52199">
        <ele>541.559</ele>
        <time>2020-06-24T07:29:12Z</time>
      </trkpt>
      <trkpt lat="43.79573" lon="7.52199">
        <ele>541.906</ele>
        <time>2020-06-24T07:29:28Z</time>
      </trkpt>
      <trkpt lat="43.79579" lon="7.52206">
        <ele>544.198</ele>
        <time>2020-06-24T07:29:43Z</time>
      </trkpt>
      <trkpt lat="43.79582" lon="7.52209">
        <ele>548.204</ele>
        <time>2020-06-24T07:29:59Z</time>
      </trkpt>
      <trkpt lat="43.79583" lon="7.5221">
        <ele>548.395</ele>
        <time>2020-06-24T07:30:15Z</time>
      </trkpt>
      <trkpt lat="43.79583" lon="7.5221">
        <ele>548.395</ele>
        <time>2020-06-24T07:30:30Z</time>
      </trkpt>
      <trkpt lat="43.79582" lon="7.52218">
        <ele>552.765</ele>
        <time>2020-06-24T07:30:45Z</time>
      </trkpt>
      <trkpt lat="43.79584" lon="7.52233">
        <ele>553.657</ele>
        <time>2020-06-24T07:31:01Z</time>
      </trkpt>
      <trkpt lat="43.79585" lon="7.52235">
        <ele>554.715</ele>
        <time>2020-06-24T07:31:17Z</time>
      </trkpt>
      <trkpt lat="43.79584" lon="7.52236">
        <ele>556.93</ele>
        <time>2020-06-24T07:31:33Z</time>
      </trkpt>
      <trkpt lat="43.79584" lon="7.52236">
        <ele>556.93</ele>
        <time>2020-06-24T07:31:48Z</time>
      </trkpt>
      <trkpt lat="43.79584" lon="7.52243">
        <ele>558.882</ele>
        <time>2020-06-24T07:32:03Z</time>
      </trkpt>
      <trkpt lat="43.79587" lon="7.52246">
        <ele>563.227</ele>
        <time>2020-06-24T07:32:19Z</time>
      </trkpt>
      <trkpt lat="43.79591" lon="7.52245">
        <ele>564.732</ele>
        <time>2020-06-24T07:32:34Z</time>
      </trkpt>
      <trkpt lat="43.79596" lon="7.52248">
        <ele>569.014</ele>
        <time>2020-06-24T07:32:50Z</time>
      </trkpt>
      <trkpt lat="43.79598" lon="7.52248">
        <ele>569.935</ele>
        <time>2020-06-24T07:33:05Z</time>
      </trkpt>
      <trkpt lat="43.79598" lon="7.52248">
        <ele>569.935</ele>
        <time>2020-06-24T07:33:21Z</time>
      </trkpt>
      <trkpt lat="43.79601" lon="7.52248">
        <ele>569.91</ele>
        <time>2020-06-24T07:33:37Z</time>
      </trkpt>
      <trkpt lat="43.7961" lon="7.52245">
        <ele>572.836</ele>
        <time>2020-06-24T07:33:52Z</time>
      </trkpt>
      <trkpt lat="43.79613" lon="7.52244">
        <ele>574.176</ele>
        <time>2020-06-24T07:34:08Z</time>
      </trkpt>
      <trkpt lat="43.79613" lon="7.52244">
        <ele>574.176</ele>
        <time>2020-06-24T07:34:24Z</time>
      </trkpt>
      <trkpt lat="43.79613" lon="7.52245">
        <ele>574.729</ele>
        <time>2020-06-24T07:34:40Z</time>
      </trkpt>
      <trkpt lat="43.79614" lon="7.52246">
        <ele>574.983</ele>
        <time>2020-06-24T07:34:56Z</time>
      </trkpt>
      <trkpt lat="43.79614" lon="7.52246">
        <ele>574.983</ele>
        <time>2020-06-24T07:35:12Z</time>
      </trkpt>
      <trkpt lat="43.79609" lon="7.52245">
        <ele>575.034</ele>
        <time>2020-06-24T07:35:28Z</time>
      </trkpt>
      <trkpt lat="43.79615" lon="7.5224">
        <ele>574.365</ele>
        <time>2020-06-24T07:35:43Z</time>
      </trkpt>
      <trkpt lat="43.7962" lon="7.52237">
        <ele>573.867</ele>
        <time>2020-06-24T07:35:59Z</time>
      </trkpt>
      <trkpt lat="43.79626" lon="7.52235">
        <ele>576.333</ele>
        <time>2020-06-24T07:36:15Z</time>
      </trkpt>
      <trkpt lat="43.79632" lon="7.52226">
        <ele>579.811</ele>
        <time>2020-06-24T07:36:31Z</time>
      </trkpt>
      <trkpt lat="43.79637" lon="7.52225">
        <ele>580.849</ele>
        <time>2020-06-24T07:36:47Z</time>
      </trkpt>
      <trkpt lat="43.79641" lon="7.52219">
        <ele>586.156</ele>
        <time>2020-06-24T07:37:02Z</time>
      </trkpt>
      <trkpt lat="43.79646" lon="7.52216">
        <ele>590.104</ele>
        <time>2020-06-24T07:37:18Z</time>
      </trkpt>
      <trkpt lat="43.79651" lon="7.52216">
        <ele>592.797</ele>
        <time>2020-06-24T07:37:33Z</time>
      </trkpt>
      <trkpt lat="43.79652" lon="7.52215">
        <ele>593.603</ele>
        <time>2020-06-24T07:37:48Z</time>
      </trkpt>
      <trkpt lat="43.79655" lon="7.52217">
        <ele>594.691</ele>
        <time>2020-06-24T07:38:03Z</time>
      </trkpt>
      <trkpt lat="43.79659" lon="7.52217">
        <ele>595.695</ele>
        <time>2020-06-24T07:38:19Z</time>
      </trkpt>
      <trkpt lat="43.79666" lon="7.52207">
        <ele>598.303</ele>
        <time>2020-06-24T07:38:35Z</time>
      </trkpt>
      <trkpt lat="43.79673" lon="7.52209">
        <ele>598.766</ele>
        <time>2020-06-24T07:38:51Z</time>
      </trkpt>
      <trkpt lat="43.79682" lon="7.52209">
        <ele>603.072</ele>
        <time>2020-06-24T07:39:06Z</time>
      </trkpt>
      <trkpt lat="43.79686" lon="7.52206">
        <ele>605.252</ele>
        <time>2020-06-24T07:39:21Z</time>
      </trkpt>
      <trkpt lat="43.79693" lon="7.52215">
        <ele>606.702</ele>
        <time>2020-06-24T07:39:37Z</time>
      </trkpt>
      <trkpt lat="43.79696" lon="7.52211">
        <ele>610.153</ele>
        <time>2020-06-24T07:39:52Z</time>
      </trkpt>
      <trkpt lat="43.79703" lon="7.52206">
        <ele>613.854</ele>
        <time>2020-06-24T07:40:08Z</time>
      </trkpt>
      <trkpt lat="43.79707" lon="7.52199">
        <ele>617.227</ele>
        <time>2020-06-24T07:40:23Z</time>
      </trkpt>
      <trkpt lat="43.79712" lon="7.52195">
        <ele>617.635</ele>
        <time>2020-06-24T07:40:38Z</time>
      </trkpt>
      <trkpt lat="43.79717" lon="7.52191">
        <ele>619.176</ele>
        <time>2020-06-24T07:40:53Z</time>
      </trkpt>
      <trkpt lat="43.79724" lon="7.52184">
        <ele>621.401</ele>
        <time>2020-06-24T07:41:09Z</time>
      </trkpt>
      <trkpt lat="43.7973" lon="7.52175">
        <ele>623.553</ele>
        <time>2020-06-24T07:41:24Z</time>
      </trkpt>
      <trkpt lat="43.7974" lon="7.52164">
        <ele>627.095</ele>
        <time>2020-06-24T07:41:39Z</time>
      </trkpt>
      <trkpt lat="43.79745" lon="7.52155">
        <ele>630.567</ele>
        <time>2020-06-24T07:41:55Z</time>
      </trkpt>
      <trkpt lat="43.7975" lon="7.52146">
        <ele>634.411</ele>
        <time>2020-06-24T07:42:10Z</time>
      </trkpt>
      <trkpt lat="43.79753" lon="7.52142">
        <ele>635.159</ele>
        <time>2020-06-24T07:42:25Z</time>
      </trkpt>
      <trkpt lat="43.79763" lon="7.52132">
        <ele>635.315</ele>
        <time>2020-06-24T07:42:41Z</time>
      </trkpt>
      <trkpt lat="43.7977" lon="7.5212">
        <ele>635.221</ele>
        <time>2020-06-24T07:42:57Z</time>
      </trkpt>
      <trkpt lat="43.7978" lon="7.52114">
        <ele>638.718</ele>
        <time>2020-06-24T07:43:13Z</time>
      </trkpt>
      <trkpt lat="43.79786" lon="7.52112">
        <ele>641.71</ele>
        <time>2020-06-24T07:43:28Z</time>
      </trkpt>
      <trkpt lat="43.79794" lon="7.52103">
        <ele>645.643</ele>
        <time>2020-06-24T07:43:44Z</time>
      </trkpt>
      <trkpt lat="43.79803" lon="7.52091">
        <ele>648.901</ele>
        <time>2020-06-24T07:43:59Z</time>
      </trkpt>
      <trkpt lat="43.79808" lon="7.5208">
        <ele>649.019</ele>
        <time>2020-06-24T07:44:15Z</time>
      </trkpt>
      <trkpt lat="43.79807" lon="7.5208">
        <ele>648.868</ele>
        <time>2020-06-24T07:44:31Z</time>
      </trkpt>
      <trkpt lat="43.79807" lon="7.5208">
        <ele>648.868</ele>
        <time>2020-06-24T07:44:47Z</time>
      </trkpt>
      <trkpt lat="43.79814" lon="7.52065">
        <ele>651.096</ele>
        <time>2020-06-24T07:45:02Z</time>
      </trkpt>
      <trkpt lat="43.79824" lon="7.52053">
        <ele>654.055</ele>
        <time>2020-06-24T07:45:18Z</time>
      </trkpt>
      <trkpt lat="43.79831" lon="7.5204">
        <ele>657.575</ele>
        <time>2020-06-24T07:45:34Z</time>
      </trkpt>
      <trkpt lat="43.79839" lon="7.52028">
        <ele>659.003</ele>
        <time>2020-06-24T07:45:50Z</time>
      </trkpt>
      <trkpt lat="43.79844" lon="7.52025">
        <ele>658.095</ele>
        <time>2020-06-24T07:46:05Z</time>
      </trkpt>
      <trkpt lat="43.79853" lon="7.52016">
        <ele>660.812</ele>
        <time>2020-06-24T07:46:21Z</time>
      </trkpt>
      <trkpt lat="43.79862" lon="7.52006">
        <ele>666.929</ele>
        <time>2020-06-24T07:46:36Z</time>
      </trkpt>
      <trkpt lat="43.7987" lon="7.52">
        <ele>668.826</ele>
        <time>2020-06-24T07:46:51Z</time>
      </trkpt>
      <trkpt lat="43.79875" lon="7.51996">
        <ele>670.179</ele>
        <time>2020-06-24T07:47:07Z</time>
      </trkpt>
      <trkpt lat="43.79881" lon="7.51984">
        <ele>672.21</ele>
        <time>2020-06-24T07:47:22Z</time>
      </trkpt>
      <trkpt lat="43.79888" lon="7.51976">
        <ele>675.325</ele>
        <time>2020-06-24T07:47:38Z</time>
      </trkpt>
      <trkpt lat="43.79899" lon="7.51962">
        <ele>679.638</ele>
        <time>2020-06-24T07:47:54Z</time>
      </trkpt>
      <trkpt lat="43.79908" lon="7.51953">
        <ele>679.361</ele>
        <time>2020-06-24T07:48:09Z</time>
      </trkpt>
      <trkpt lat="43.79915" lon="7.5194">
        <ele>681.963</ele>
        <time>2020-06-24T07:48:25Z</time>
      </trkpt>
      <trkpt lat="43.7992" lon="7.51933">
        <ele>684.414</ele>
        <time>2020-06-24T07:48:40Z</time>
      </trkpt>
      <trkpt lat="43.79926" lon="7.51926">
        <ele>686.141</ele>
        <time>2020-06-24T07:48:56Z</time>
      </trkpt>
      <trkpt lat="43.79932" lon="7.51922">
        <ele>688.072</ele>
        <time>2020-06-24T07:49:12Z</time>
      </trkpt>
      <trkpt lat="43.79934" lon="7.51944">
        <ele>647.4</ele>
      </trkpt>
      <trkpt lat="43.79941" lon="7.51955">
        <ele>651.2</ele>
      </trkpt>
      <trkpt lat="43.79953" lon="7.51959">
        <ele>654.5</ele>
      </trkpt>
      <trkpt lat="43.79972" lon="7.51948">
        <ele>658.4</ele>
      </trkpt>
      <trkpt lat="43.7998" lon="7.51943">
        <ele>660</ele>
      </trkpt>
      <trkpt lat="43.79993" lon="7.51934">
        <ele>662.5</ele>
      </trkpt>
      <trkpt lat="43.80005" lon="7.51923">
        <ele>676.8</ele>
      </trkpt>
      <trkpt lat="43.80024" lon="7.51912">
        <ele>678.5</ele>
      </trkpt>
      <trkpt lat="43.80048" lon="7.51892">
        <ele>685.9</ele>
      </trkpt>
      <trkpt lat="43.80066" lon="7.51876">
        <ele>688.4</ele>
      </trkpt>
      <trkpt lat="43.80074" lon="7.51885">
        <ele>691.7</ele>
      </trkpt>
      <trkpt lat="43.80079" lon="7.51888">
        <ele>693.7</ele>
      </trkpt>
      <trkpt lat="43.8009" lon="7.51876">
        <ele>718.4</ele>
      </trkpt>
      <trkpt lat="43.80099" lon="7.51888">
        <ele>720.8</ele>
      </trkpt>
      <trkpt lat="43.80111" lon="7.51885">
        <ele>723</ele>
      </trkpt>
      <trkpt lat="43.80137" lon="7.5185">
        <ele>727.4</ele>
      </trkpt>
      <trkpt lat="43.80176" lon="7.51802">
        <ele>743.8</ele>
      </trkpt>
      <trkpt lat="43.80191" lon="7.51772">
        <ele>814.239</ele>
        <time>2020-06-24T08:05:14Z</time>
      </trkpt>
      <trkpt lat="43.80191" lon="7.51772">
        <ele>814.239</ele>
        <time>2020-06-24T08:05:29Z</time>
      </trkpt>
      <trkpt lat="43.80191" lon="7.51772">
        <ele>814.239</ele>
        <time>2020-06-24T08:05:45Z</time>
      </trkpt>
      <trkpt lat="43.80183" lon="7.51791">
        <ele>806.854</ele>
        <time>2020-06-24T08:06:01Z</time>
      </trkpt>
      <trkpt lat="43.80183" lon="7.51794">
        <ele>805.845</ele>
        <time>2020-06-24T08:06:17Z</time>
      </trkpt>
      <trkpt lat="43.80183" lon="7.51794">
        <ele>805.845</ele>
        <time>2020-06-24T08:06:32Z</time>
      </trkpt>
      <trkpt lat="43.80183" lon="7.51793">
        <ele>803.589</ele>
        <time>2020-06-24T08:06:48Z</time>
      </trkpt>
      <trkpt lat="43.80194" lon="7.51782">
        <ele>797.636</ele>
        <time>2020-06-24T08:07:04Z</time>
      </trkpt>
      <trkpt lat="43.80196" lon="7.51782">
        <ele>795.722</ele>
        <time>2020-06-24T08:07:19Z</time>
      </trkpt>
      <trkpt lat="43.80201" lon="7.51774">
        <ele>791.339</ele>
        <time>2020-06-24T08:07:34Z</time>
      </trkpt>
      <trkpt lat="43.80208" lon="7.51759">
        <ele>789.568</ele>
        <time>2020-06-24T08:07:49Z</time>
      </trkpt>
      <trkpt lat="43.8022" lon="7.51743">
        <ele>790.267</ele>
        <time>2020-06-24T08:08:05Z</time>
      </trkpt>
      <trkpt lat="43.80231" lon="7.51732">
        <ele>790.52</ele>
        <time>2020-06-24T08:08:21Z</time>
      </trkpt>
      <trkpt lat="43.8024" lon="7.51716">
        <ele>785.982</ele>
        <time>2020-06-24T08:08:37Z</time>
      </trkpt>
      <trkpt lat="43.8025" lon="7.51707">
        <ele>782.497</ele>
        <time>2020-06-24T08:08:52Z</time>
      </trkpt>
      <trkpt lat="43.80256" lon="7.51692">
        <ele>780.461</ele>
        <time>2020-06-24T08:09:07Z</time>
      </trkpt>
      <trkpt lat="43.80261" lon="7.51683">
        <ele>777.532</ele>
        <time>2020-06-24T08:09:23Z</time>
      </trkpt>
      <trkpt lat="43.80261" lon="7.51683">
        <ele>777.532</ele>
        <time>2020-06-24T08:09:39Z</time>
      </trkpt>
      <trkpt lat="43.80266" lon="7.51683">
        <ele>776.309</ele>
        <time>2020-06-24T08:09:54Z</time>
      </trkpt>
      <trkpt lat="43.8027" lon="7.51668">
        <ele>775.426</ele>
        <time>2020-06-24T08:10:10Z</time>
      </trkpt>
      <trkpt lat="43.80283" lon="7.51651">
        <ele>771.924</ele>
        <time>2020-06-24T08:10:25Z</time>
      </trkpt>
      <trkpt lat="43.80297" lon="7.51642">
        <ele>771.871</ele>
        <time>2020-06-24T08:10:41Z</time>
      </trkpt>
      <trkpt lat="43.80309" lon="7.51626">
        <ele>772.857</ele>
        <time>2020-06-24T08:10:57Z</time>
      </trkpt>
      <trkpt lat="43.80318" lon="7.51607">
        <ele>770.763</ele>
        <time>2020-06-24T08:11:12Z</time>
      </trkpt>
      <trkpt lat="43.8032" lon="7.51596">
        <ele>766.54</ele>
        <time>2020-06-24T08:11:28Z</time>
      </trkpt>
      <trkpt lat="43.80337" lon="7.51576">
        <ele>768.344</ele>
        <time>2020-06-24T08:11:44Z</time>
      </trkpt>
      <trkpt lat="43.80352" lon="7.51563">
        <ele>766.865</ele>
        <time>2020-06-24T08:12:00Z</time>
      </trkpt>
      <trkpt lat="43.80368" lon="7.51547">
        <ele>767.697</ele>
        <time>2020-06-24T08:12:16Z</time>
      </trkpt>
      <trkpt lat="43.80379" lon="7.51525">
        <ele>766.051</ele>
        <time>2020-06-24T08:12:32Z</time>
      </trkpt>
      <trkpt lat="43.80398" lon="7.51521">
        <ele>763.709</ele>
        <time>2020-06-24T08:12:48Z</time>
      </trkpt>
      <trkpt lat="43.80412" lon="7.51505">
        <ele>765.03</ele>
        <time>2020-06-24T08:13:03Z</time>
      </trkpt>
      <trkpt lat="43.80423" lon="7.51483">
        <ele>763.718</ele>
        <time>2020-06-24T08:13:19Z</time>
      </trkpt>
      <trkpt lat="43.80442" lon="7.5147">
        <ele>764.967</ele>
        <time>2020-06-24T08:13:35Z</time>
      </trkpt>
      <trkpt lat="43.80458" lon="7.51455">
        <ele>766.591</ele>
        <time>2020-06-24T08:13:51Z</time>
      </trkpt>
      <trkpt lat="43.80477" lon="7.5144">
        <ele>766.891</ele>
        <time>2020-06-24T08:14:07Z</time>
      </trkpt>
      <trkpt lat="43.80488" lon="7.51441">
        <ele>769.987</ele>
        <time>2020-06-24T08:14:22Z</time>
      </trkpt>
      <trkpt lat="43.80498" lon="7.51434">
        <ele>771.684</ele>
        <time>2020-06-24T08:14:37Z</time>
      </trkpt>
      <trkpt lat="43.80509" lon="7.51437">
        <ele>771.378</ele>
        <time>2020-06-24T08:14:53Z</time>
      </trkpt>
      <trkpt lat="43.80521" lon="7.51438">
        <ele>769.089</ele>
        <time>2020-06-24T08:15:09Z</time>
      </trkpt>
      <trkpt lat="43.80542" lon="7.51452">
        <ele>765.598</ele>
        <time>2020-06-24T08:15:25Z</time>
      </trkpt>
      <trkpt lat="43.80558" lon="7.51464">
        <ele>762.448</ele>
        <time>2020-06-24T08:15:41Z</time>
      </trkpt>
      <trkpt lat="43.80575" lon="7.51468">
        <ele>761.802</ele>
        <time>2020-06-24T08:15:57Z</time>
      </trkpt>
      <trkpt lat="43.80592" lon="7.51466">
        <ele>768.426</ele>
        <time>2020-06-24T08:16:12Z</time>
      </trkpt>
      <trkpt lat="43.80614" lon="7.5147">
        <ele>772.85</ele>
        <time>2020-06-24T08:16:28Z</time>
      </trkpt>
      <trkpt lat="43.8063" lon="7.51475">
        <ele>772.218</ele>
        <time>2020-06-24T08:16:44Z</time>
      </trkpt>
      <trkpt lat="43.80646" lon="7.51479">
        <ele>770.84</ele>
        <time>2020-06-24T08:16:59Z</time>
      </trkpt>
      <trkpt lat="43.80662" lon="7.51472">
        <ele>766.201</ele>
        <time>2020-06-24T08:17:15Z</time>
      </trkpt>
      <trkpt lat="43.80676" lon="7.51467">
        <ele>766.816</ele>
        <time>2020-06-24T08:17:30Z</time>
      </trkpt>
      <trkpt lat="43.8069" lon="7.51463">
        <ele>765.978</ele>
        <time>2020-06-24T08:17:46Z</time>
      </trkpt>
      <trkpt lat="43.8069" lon="7.51463">
        <ele>765.978</ele>
        <time>2020-06-24T08:18:02Z</time>
      </trkpt>
      <trkpt lat="43.8069" lon="7.51463">
        <ele>765.978</ele>
        <time>2020-06-24T08:18:17Z</time>
      </trkpt>
      <trkpt lat="43.8069" lon="7.51463">
        <ele>765.978</ele>
        <time>2020-06-24T08:18:33Z</time>
      </trkpt>
      <trkpt lat="43.8069" lon="7.51463">
        <ele>765.978</ele>
        <time>2020-06-24T08:18:48Z</time>
      </trkpt>
      <trkpt lat="43.8069" lon="7.51463">
        <ele>765.978</ele>
        <time>2020-06-24T08:19:03Z</time>
      </trkpt>
      <trkpt lat="43.80701" lon="7.51454">
        <ele>762.228</ele>
        <time>2020-06-24T08:19:19Z</time>
      </trkpt>
      <trkpt lat="43.8072" lon="7.51443">
        <ele>759.468</ele>
        <time>2020-06-24T08:19:35Z</time>
      </trkpt>
      <trkpt lat="43.80739" lon="7.51433">
        <ele>758.192</ele>
        <time>2020-06-24T08:19:51Z</time>
      </trkpt>
      <trkpt lat="43.80747" lon="7.51425">
        <ele>758.918</ele>
        <time>2020-06-24T08:20:06Z</time>
      </trkpt>
      <trkpt lat="43.80752" lon="7.51424">
        <ele>758.567</ele>
        <time>2020-06-24T08:20:22Z</time>
      </trkpt>
      <trkpt lat="43.80752" lon="7.51424">
        <ele>758.567</ele>
        <time>2020-06-24T08:20:38Z</time>
      </trkpt>
      <trkpt lat="43.80752" lon="7.51424">
        <ele>758.567</ele>
        <time>2020-06-24T08:20:53Z</time>
      </trkpt>
      <trkpt lat="43.80752" lon="7.51424">
        <ele>758.567</ele>
        <time>2020-06-24T08:21:09Z</time>
      </trkpt>
      <trkpt lat="43.80752" lon="7.51424">
        <ele>758.567</ele>
        <time>2020-06-24T08:21:24Z</time>
      </trkpt>
      <trkpt lat="43.80752" lon="7.51424">
        <ele>758.567</ele>
        <time>2020-06-24T08:21:39Z</time>
      </trkpt>
      <trkpt lat="43.80752" lon="7.51424">
        <ele>758.567</ele>
        <time>2020-06-24T08:21:54Z</time>
      </trkpt>
      <trkpt lat="43.80752" lon="7.51424">
        <ele>758.567</ele>
        <time>2020-06-24T08:22:10Z</time>
      </trkpt>
      <trkpt lat="43.80752" lon="7.51424">
        <ele>758.567</ele>
        <time>2020-06-24T08:22:25Z</time>
      </trkpt>
      <trkpt lat="43.80752" lon="7.51424">
        <ele>758.567</ele>
        <time>2020-06-24T08:22:40Z</time>
      </trkpt>
      <trkpt lat="43.80752" lon="7.51424">
        <ele>758.567</ele>
        <time>2020-06-24T08:22:55Z</time>
      </trkpt>
      <trkpt lat="43.80752" lon="7.51424">
        <ele>758.567</ele>
        <time>2020-06-24T08:23:11Z</time>
      </trkpt>
      <trkpt lat="43.80752" lon="7.51424">
        <ele>758.567</ele>
        <time>2020-06-24T08:23:26Z</time>
      </trkpt>
      <trkpt lat="43.80752" lon="7.51427">
        <ele>758.458</ele>
        <time>2020-06-24T08:23:41Z</time>
      </trkpt>
      <trkpt lat="43.80752" lon="7.51427">
        <ele>758.458</ele>
        <time>2020-06-24T08:23:57Z</time>
      </trkpt>
      <trkpt lat="43.80752" lon="7.51427">
        <ele>758.458</ele>
        <time>2020-06-24T08:24:12Z</time>
      </trkpt>
      <trkpt lat="43.80752" lon="7.51427">
        <ele>758.458</ele>
        <time>2020-06-24T08:24:28Z</time>
      </trkpt>
      <trkpt lat="43.80757" lon="7.51431">
        <ele>758.5</ele>
        <time>2020-06-24T08:24:44Z</time>
      </trkpt>
      <trkpt lat="43.80757" lon="7.51431">
        <ele>758.5</ele>
        <time>2020-06-24T08:25:00Z</time>
      </trkpt>
      <trkpt lat="43.80753" lon="7.51428">
        <ele>758.634</ele>
        <time>2020-06-24T08:25:15Z</time>
      </trkpt>
      <trkpt lat="43.80753" lon="7.51428">
        <ele>758.634</ele>
        <time>2020-06-24T08:25:31Z</time>
      </trkpt>
      <trkpt lat="43.80753" lon="7.51428">
        <ele>758.634</ele>
        <time>2020-06-24T08:25:46Z</time>
      </trkpt>
      <trkpt lat="43.80753" lon="7.51428">
        <ele>758.634</ele>
        <time>2020-06-24T08:26:01Z</time>
      </trkpt>
      <trkpt lat="43.80755" lon="7.51427">
        <ele>759.999</ele>
        <time>2020-06-24T08:26:17Z</time>
      </trkpt>
      <trkpt lat="43.80764" lon="7.51417">
        <ele>761.618</ele>
        <time>2020-06-24T08:26:33Z</time>
      </trkpt>
      <trkpt lat="43.80775" lon="7.51412">
        <ele>762.485</ele>
        <time>2020-06-24T08:26:48Z</time>
      </trkpt>
      <trkpt lat="43.80782" lon="7.51409">
        <ele>766.993</ele>
        <time>2020-06-24T08:27:04Z</time>
      </trkpt>
      <trkpt lat="43.80783" lon="7.51408">
        <ele>767.71</ele>
        <time>2020-06-24T08:27:20Z</time>
      </trkpt>
      <trkpt lat="43.80788" lon="7.51408">
        <ele>768.662</ele>
        <time>2020-06-24T08:27:36Z</time>
      </trkpt>
      <trkpt lat="43.8079" lon="7.51415">
        <ele>770.245</ele>
        <time>2020-06-24T08:27:52Z</time>
      </trkpt>
      <trkpt lat="43.80796" lon="7.51425">
        <ele>771.235</ele>
        <time>2020-06-24T08:28:07Z</time>
      </trkpt>
      <trkpt lat="43.80796" lon="7.51437">
        <ele>772.665</ele>
        <time>2020-06-24T08:28:23Z</time>
      </trkpt>
      <trkpt lat="43.80795" lon="7.51451">
        <ele>777.284</ele>
        <time>2020-06-24T08:28:38Z</time>
      </trkpt>
      <trkpt lat="43.80791" lon="7.51466">
        <ele>782.395</ele>
        <time>2020-06-24T08:28:54Z</time>
      </trkpt>
      <trkpt lat="43.80784" lon="7.51478">
        <ele>785.205</ele>
        <time>2020-06-24T08:29:09Z</time>
      </trkpt>
      <trkpt lat="43.80784" lon="7.51478">
        <ele>785.205</ele>
        <time>2020-06-24T08:29:25Z</time>
      </trkpt>
      <trkpt lat="43.80789" lon="7.51483">
        <ele>789.531</ele>
        <time>2020-06-24T08:29:41Z</time>
      </trkpt>
      <trkpt lat="43.80795" lon="7.51488">
        <ele>792.422</ele>
        <time>2020-06-24T08:29:56Z</time>
      </trkpt>
      <trkpt lat="43.80801" lon="7.51488">
        <ele>798.402</ele>
        <time>2020-06-24T08:30:12Z</time>
      </trkpt>
      <trkpt lat="43.80806" lon="7.51487">
        <ele>799.351</ele>
        <time>2020-06-24T08:30:27Z</time>
      </trkpt>
      <trkpt lat="43.80814" lon="7.51489">
        <ele>802.173</ele>
        <time>2020-06-24T08:30:42Z</time>
      </trkpt>
      <trkpt lat="43.80825" lon="7.5149">
        <ele>803.993</ele>
        <time>2020-06-24T08:30:58Z</time>
      </trkpt>
      <trkpt lat="43.80828" lon="7.51491">
        <ele>804.593</ele>
        <time>2020-06-24T08:31:14Z</time>
      </trkpt>
      <trkpt lat="43.80832" lon="7.51494">
        <ele>805.906</ele>
        <time>2020-06-24T08:31:30Z</time>
      </trkpt>
      <trkpt lat="43.80833" lon="7.51499">
        <ele>806.297</ele>
        <time>2020-06-24T08:31:46Z</time>
      </trkpt>
      <trkpt lat="43.8084" lon="7.51504">
        <ele>809.354</ele>
        <time>2020-06-24T08:32:02Z</time>
      </trkpt>
      <trkpt lat="43.80844" lon="7.51504">
        <ele>810.943</ele>
        <time>2020-06-24T08:32:17Z</time>
      </trkpt>
      <trkpt lat="43.80848" lon="7.51502">
        <ele>813.163</ele>
        <time>2020-06-24T08:32:32Z</time>
      </trkpt>
      <trkpt lat="43.80849" lon="7.51502">
        <ele>813.647</ele>
        <time>2020-06-24T08:32:48Z</time>
      </trkpt>
      <trkpt lat="43.80849" lon="7.51502">
        <ele>813.647</ele>
        <time>2020-06-24T08:33:04Z</time>
      </trkpt>
      <trkpt lat="43.80849" lon="7.51502">
        <ele>813.647</ele>
        <time>2020-06-24T08:33:20Z</time>
      </trkpt>
      <trkpt lat="43.80849" lon="7.51502">
        <ele>813.647</ele>
        <time>2020-06-24T08:33:36Z</time>
      </trkpt>
      <trkpt lat="43.80849" lon="7.51502">
        <ele>813.647</ele>
        <time>2020-06-24T08:33:51Z</time>
      </trkpt>
      <trkpt lat="43.80853" lon="7.51504">
        <ele>814.441</ele>
        <time>2020-06-24T08:34:07Z</time>
      </trkpt>
      <trkpt lat="43.80864" lon="7.51505">
        <ele>816.232</ele>
        <time>2020-06-24T08:34:23Z</time>
      </trkpt>
      <trkpt lat="43.80864" lon="7.51505">
        <ele>816.232</ele>
        <time>2020-06-24T08:34:39Z</time>
      </trkpt>
      <trkpt lat="43.80864" lon="7.51505">
        <ele>816.232</ele>
        <time>2020-06-24T08:34:54Z</time>
      </trkpt>
      <trkpt lat="43.80871" lon="7.51511">
        <ele>818.137</ele>
        <time>2020-06-24T08:35:10Z</time>
      </trkpt>
      <trkpt lat="43.80885" lon="7.51512">
        <ele>820.867</ele>
        <time>2020-06-24T08:35:25Z</time>
      </trkpt>
      <trkpt lat="43.80894" lon="7.51515">
        <ele>824.601</ele>
        <time>2020-06-24T08:35:41Z</time>
      </trkpt>
      <trkpt lat="43.80898" lon="7.51515">
        <ele>826.208</ele>
        <time>2020-06-24T08:35:56Z</time>
      </trkpt>
      <trkpt lat="43.80903" lon="7.5151">
        <ele>829.156</ele>
        <time>2020-06-24T08:36:12Z</time>
      </trkpt>
      <trkpt lat="43.80913" lon="7.515">
        <ele>833.313</ele>
        <time>2020-06-24T08:36:27Z</time>
      </trkpt>
      <trkpt lat="43.80927" lon="7.51498">
        <ele>837.814</ele>
        <time>2020-06-24T08:36:42Z</time>
      </trkpt>
      <trkpt lat="43.8093" lon="7.51497">
        <ele>838.564</ele>
        <time>2020-06-24T08:36:58Z</time>
      </trkpt>
      <trkpt lat="43.80932" lon="7.51496">
        <ele>839.41</ele>
        <time>2020-06-24T08:37:14Z</time>
      </trkpt>
      <trkpt lat="43.80944" lon="7.5149">
        <ele>841.431</ele>
        <time>2020-06-24T08:37:30Z</time>
      </trkpt>
      <trkpt lat="43.80951" lon="7.51485">
        <ele>844.099</ele>
        <time>2020-06-24T08:37:46Z</time>
      </trkpt>
      <trkpt lat="43.80958" lon="7.51483">
        <ele>846.103</ele>
        <time>2020-06-24T08:38:02Z</time>
      </trkpt>
      <trkpt lat="43.80958" lon="7.51483">
        <ele>846.103</ele>
        <time>2020-06-24T08:38:18Z</time>
      </trkpt>
      <trkpt lat="43.80962" lon="7.51478">
        <ele>848.414</ele>
        <time>2020-06-24T08:38:34Z</time>
      </trkpt>
      <trkpt lat="43.80962" lon="7.51478">
        <ele>848.414</ele>
        <time>2020-06-24T08:38:50Z</time>
      </trkpt>
      <trkpt lat="43.80962" lon="7.51478">
        <ele>848.414</ele>
        <time>2020-06-24T08:39:06Z</time>
      </trkpt>
      <trkpt lat="43.80962" lon="7.51478">
        <ele>848.414</ele>
        <time>2020-06-24T08:39:22Z</time>
      </trkpt>
      <trkpt lat="43.80976" lon="7.51472">
        <ele>849.194</ele>
        <time>2020-06-24T08:39:38Z</time>
      </trkpt>
      <trkpt lat="43.80986" lon="7.51467">
        <ele>850.427</ele>
        <time>2020-06-24T08:39:53Z</time>
      </trkpt>
      <trkpt lat="43.80989" lon="7.51465">
        <ele>851.643</ele>
        <time>2020-06-24T08:40:09Z</time>
      </trkpt>
      <trkpt lat="43.80989" lon="7.51465">
        <ele>851.643</ele>
        <time>2020-06-24T08:40:25Z</time>
      </trkpt>
      <trkpt lat="43.80999" lon="7.51458">
        <ele>853.858</ele>
        <time>2020-06-24T08:40:41Z</time>
      </trkpt>
      <trkpt lat="43.81009" lon="7.51453">
        <ele>855.43</ele>
        <time>2020-06-24T08:40:57Z</time>
      </trkpt>
      <trkpt lat="43.81021" lon="7.5145">
        <ele>861.815</ele>
        <time>2020-06-24T08:41:13Z</time>
      </trkpt>
      <trkpt lat="43.81023" lon="7.5145">
        <ele>863.93</ele>
        <time>2020-06-24T08:41:28Z</time>
      </trkpt>
      <trkpt lat="43.81025" lon="7.5145">
        <ele>865.766</ele>
        <time>2020-06-24T08:41:44Z</time>
      </trkpt>
      <trkpt lat="43.81025" lon="7.5145">
        <ele>865.766</ele>
        <time>2020-06-24T08:41:59Z</time>
      </trkpt>
      <trkpt lat="43.81025" lon="7.5145">
        <ele>865.766</ele>
        <time>2020-06-24T08:42:15Z</time>
      </trkpt>
      <trkpt lat="43.8103" lon="7.51448">
        <ele>866.681</ele>
        <time>2020-06-24T08:42:31Z</time>
      </trkpt>
      <trkpt lat="43.81035" lon="7.51444">
        <ele>870.618</ele>
        <time>2020-06-24T08:42:46Z</time>
      </trkpt>
      <trkpt lat="43.81037" lon="7.51446">
        <ele>871.286</ele>
        <time>2020-06-24T08:43:02Z</time>
      </trkpt>
      <trkpt lat="43.81039" lon="7.51448">
        <ele>872.967</ele>
        <time>2020-06-24T08:43:18Z</time>
      </trkpt>
      <trkpt lat="43.81047" lon="7.51453">
        <ele>879.384</ele>
        <time>2020-06-24T08:43:33Z</time>
      </trkpt>
      <trkpt lat="43.81047" lon="7.51453">
        <ele>880.22</ele>
        <time>2020-06-24T08:43:49Z</time>
      </trkpt>
      <trkpt lat="43.81047" lon="7.51453">
        <ele>880.22</ele>
        <time>2020-06-24T08:44:04Z</time>
      </trkpt>
      <trkpt lat="43.81047" lon="7.51453">
        <ele>880.22</ele>
        <time>2020-06-24T08:44:19Z</time>
      </trkpt>
      <trkpt lat="43.81062" lon="7.5145">
        <ele>884.907</ele>
        <time>2020-06-24T08:44:35Z</time>
      </trkpt>
      <trkpt lat="43.81064" lon="7.51448">
        <ele>886.266</ele>
        <time>2020-06-24T08:44:50Z</time>
      </trkpt>
      <trkpt lat="43.81067" lon="7.51444">
        <ele>889.169</ele>
        <time>2020-06-24T08:45:05Z</time>
      </trkpt>
      <trkpt lat="43.81073" lon="7.51439">
        <ele>889.947</ele>
        <time>2020-06-24T08:45:21Z</time>
      </trkpt>
      <trkpt lat="43.81079" lon="7.5143">
        <ele>896.277</ele>
        <time>2020-06-24T08:45:37Z</time>
      </trkpt>
      <trkpt lat="43.81084" lon="7.51427">
        <ele>899.906</ele>
        <time>2020-06-24T08:45:52Z</time>
      </trkpt>
      <trkpt lat="43.81086" lon="7.51427">
        <ele>900.088</ele>
        <time>2020-06-24T08:46:07Z</time>
      </trkpt>
      <trkpt lat="43.81086" lon="7.51427">
        <ele>900.088</ele>
        <time>2020-06-24T08:46:23Z</time>
      </trkpt>
      <trkpt lat="43.81091" lon="7.51424">
        <ele>902.101</ele>
        <time>2020-06-24T08:46:38Z</time>
      </trkpt>
      <trkpt lat="43.81099" lon="7.51425">
        <ele>904.495</ele>
        <time>2020-06-24T08:46:53Z</time>
      </trkpt>
      <trkpt lat="43.81104" lon="7.51433">
        <ele>906.23</ele>
        <time>2020-06-24T08:47:09Z</time>
      </trkpt>
      <trkpt lat="43.81106" lon="7.51432">
        <ele>909.278</ele>
        <time>2020-06-24T08:47:24Z</time>
      </trkpt>
      <trkpt lat="43.81106" lon="7.51432">
        <ele>909.278</ele>
        <time>2020-06-24T08:47:40Z</time>
      </trkpt>
      <trkpt lat="43.81106" lon="7.51432">
        <ele>909.278</ele>
        <time>2020-06-24T08:47:56Z</time>
      </trkpt>
      <trkpt lat="43.81106" lon="7.51432">
        <ele>909.278</ele>
        <time>2020-06-24T08:48:11Z</time>
      </trkpt>
      <trkpt lat="43.81106" lon="7.51432">
        <ele>909.278</ele>
        <time>2020-06-24T08:48:27Z</time>
      </trkpt>
      <trkpt lat="43.81106" lon="7.51432">
        <ele>909.278</ele>
        <time>2020-06-24T08:48:43Z</time>
      </trkpt>
      <trkpt lat="43.81106" lon="7.51432">
        <ele>909.278</ele>
        <time>2020-06-24T08:48:59Z</time>
      </trkpt>
      <trkpt lat="43.81106" lon="7.51432">
        <ele>909.278</ele>
        <time>2020-06-24T08:49:14Z</time>
      </trkpt>
      <trkpt lat="43.81106" lon="7.51432">
        <ele>909.278</ele>
        <time>2020-06-24T08:49:30Z</time>
      </trkpt>
      <trkpt lat="43.81106" lon="7.51432">
        <ele>909.278</ele>
        <time>2020-06-24T08:49:46Z</time>
      </trkpt>
      <trkpt lat="43.81106" lon="7.51432">
        <ele>909.278</ele>
        <time>2020-06-24T08:50:02Z</time>
      </trkpt>
      <trkpt lat="43.81106" lon="7.51432">
        <ele>909.278</ele>
        <time>2020-06-24T08:50:17Z</time>
      </trkpt>
      <trkpt lat="43.81106" lon="7.51432">
        <ele>909.278</ele>
        <time>2020-06-24T08:50:33Z</time>
      </trkpt>
      <trkpt lat="43.81106" lon="7.51432">
        <ele>909.278</ele>
        <time>2020-06-24T08:50:48Z</time>
      </trkpt>
      <trkpt lat="43.81106" lon="7.51432">
        <ele>909.278</ele>
        <time>2020-06-24T08:51:03Z</time>
      </trkpt>
      <trkpt lat="43.81111" lon="7.51433">
        <ele>911.939</ele>
        <time>2020-06-24T08:51:19Z</time>
      </trkpt>
      <trkpt lat="43.81111" lon="7.51433">
        <ele>911.939</ele>
        <time>2020-06-24T08:51:34Z</time>
      </trkpt>
      <trkpt lat="43.81117" lon="7.51431">
        <ele>913.134</ele>
        <time>2020-06-24T08:51:49Z</time>
      </trkpt>
      <trkpt lat="43.81126" lon="7.51425">
        <ele>915.707</ele>
        <time>2020-06-24T08:52:05Z</time>
      </trkpt>
      <trkpt lat="43.8113" lon="7.51423">
        <ele>915.997</ele>
        <time>2020-06-24T08:52:21Z</time>
      </trkpt>
      <trkpt lat="43.81138" lon="7.51428">
        <ele>918</ele>
        <time>2020-06-24T08:52:37Z</time>
      </trkpt>
      <trkpt lat="43.81143" lon="7.51439">
        <ele>925.07</ele>
        <time>2020-06-24T08:52:52Z</time>
      </trkpt>
      <trkpt lat="43.81143" lon="7.5144">
        <ele>926.002</ele>
        <time>2020-06-24T08:53:07Z</time>
      </trkpt>
      <trkpt lat="43.81143" lon="7.5144">
        <ele>926.002</ele>
        <time>2020-06-24T08:53:23Z</time>
      </trkpt>
      <trkpt lat="43.81143" lon="7.5144">
        <ele>926.002</ele>
        <time>2020-06-24T08:53:38Z</time>
      </trkpt>
      <trkpt lat="43.81143" lon="7.5144">
        <ele>926.002</ele>
        <time>2020-06-24T08:53:54Z</time>
      </trkpt>
      <trkpt lat="43.81143" lon="7.5144">
        <ele>927.561</ele>
        <time>2020-06-24T08:54:10Z</time>
      </trkpt>
      <trkpt lat="43.81143" lon="7.5144">
        <ele>927.561</ele>
        <time>2020-06-24T08:54:25Z</time>
      </trkpt>
      <trkpt lat="43.81144" lon="7.51446">
        <ele>936.068</ele>
        <time>2020-06-24T08:54:41Z</time>
      </trkpt>
      <trkpt lat="43.81152" lon="7.51443">
        <ele>943.085</ele>
        <time>2020-06-24T08:54:57Z</time>
      </trkpt>
      <trkpt lat="43.81155" lon="7.51438">
        <ele>946.463</ele>
        <time>2020-06-24T08:55:12Z</time>
      </trkpt>
      <trkpt lat="43.81159" lon="7.51431">
        <ele>947.251</ele>
        <time>2020-06-24T08:55:28Z</time>
      </trkpt>
      <trkpt lat="43.8116" lon="7.51436">
        <ele>948.81</ele>
        <time>2020-06-24T08:55:43Z</time>
      </trkpt>
      <trkpt lat="43.81164" lon="7.51437">
        <ele>949.948</ele>
        <time>2020-06-24T08:55:59Z</time>
      </trkpt>
      <trkpt lat="43.81164" lon="7.51437">
        <ele>949.948</ele>
        <time>2020-06-24T08:56:14Z</time>
      </trkpt>
      <trkpt lat="43.81169" lon="7.51437">
        <ele>950.542</ele>
        <time>2020-06-24T08:56:29Z</time>
      </trkpt>
      <trkpt lat="43.81179" lon="7.51442">
        <ele>955.436</ele>
        <time>2020-06-24T08:56:45Z</time>
      </trkpt>
      <trkpt lat="43.81181" lon="7.51441">
        <ele>956.647</ele>
        <time>2020-06-24T08:57:00Z</time>
      </trkpt>
      <trkpt lat="43.8119" lon="7.51433">
        <ele>957.597</ele>
        <time>2020-06-24T08:57:15Z</time>
      </trkpt>
      <trkpt lat="43.8119" lon="7.51433">
        <ele>957.597</ele>
        <time>2020-06-24T08:57:31Z</time>
      </trkpt>
      <trkpt lat="43.81195" lon="7.51424">
        <ele>959.398</ele>
        <time>2020-06-24T08:57:46Z</time>
      </trkpt>
      <trkpt lat="43.81196" lon="7.51425">
        <ele>959.443</ele>
        <time>2020-06-24T08:58:02Z</time>
      </trkpt>
      <trkpt lat="43.81202" lon="7.51426">
        <ele>961.475</ele>
        <time>2020-06-24T08:58:18Z</time>
      </trkpt>
      <trkpt lat="43.81202" lon="7.51426">
        <ele>961.475</ele>
        <time>2020-06-24T08:58:33Z</time>
      </trkpt>
      <trkpt lat="43.81202" lon="7.51426">
        <ele>961.475</ele>
        <time>2020-06-24T08:58:49Z</time>
      </trkpt>
      <trkpt lat="43.81202" lon="7.51426">
        <ele>961.475</ele>
        <time>2020-06-24T08:59:04Z</time>
      </trkpt>
      <trkpt lat="43.81202" lon="7.51426">
        <ele>961.475</ele>
        <time>2020-06-24T08:59:20Z</time>
      </trkpt>
      <trkpt lat="43.81206" lon="7.51425">
        <ele>964.889</ele>
        <time>2020-06-24T08:59:35Z</time>
      </trkpt>
      <trkpt lat="43.8121" lon="7.51421">
        <ele>971.981</ele>
        <time>2020-06-24T08:59:51Z</time>
      </trkpt>
      <trkpt lat="43.81213" lon="7.5142">
        <ele>972.003</ele>
        <time>2020-06-24T09:00:06Z</time>
      </trkpt>
      <trkpt lat="43.81217" lon="7.51423">
        <ele>972.976</ele>
        <time>2020-06-24T09:00:22Z</time>
      </trkpt>
      <trkpt lat="43.81223" lon="7.51418">
        <ele>979.42</ele>
        <time>2020-06-24T09:00:38Z</time>
      </trkpt>
      <trkpt lat="43.81226" lon="7.51417">
        <ele>980.744</ele>
        <time>2020-06-24T09:00:54Z</time>
      </trkpt>
      <trkpt lat="43.8123" lon="7.51412">
        <ele>981.956</ele>
        <time>2020-06-24T09:01:09Z</time>
      </trkpt>
      <trkpt lat="43.81241" lon="7.51406">
        <ele>982.434</ele>
        <time>2020-06-24T09:01:25Z</time>
      </trkpt>
      <trkpt lat="43.81244" lon="7.51399">
        <ele>987.761</ele>
        <time>2020-06-24T09:01:41Z</time>
      </trkpt>
      <trkpt lat="43.81246" lon="7.51393">
        <ele>990.403</ele>
        <time>2020-06-24T09:01:57Z</time>
      </trkpt>
      <trkpt lat="43.81246" lon="7.51393">
        <ele>990.403</ele>
        <time>2020-06-24T09:02:12Z</time>
      </trkpt>
      <trkpt lat="43.81246" lon="7.51393">
        <ele>990.403</ele>
        <time>2020-06-24T09:02:28Z</time>
      </trkpt>
      <trkpt lat="43.81251" lon="7.51388">
        <ele>990.908</ele>
        <time>2020-06-24T09:02:43Z</time>
      </trkpt>
      <trkpt lat="43.81251" lon="7.51388">
        <ele>990.908</ele>
        <time>2020-06-24T09:02:58Z</time>
      </trkpt>
      <trkpt lat="43.81251" lon="7.51389">
        <ele>991.584</ele>
        <time>2020-06-24T09:03:13Z</time>
      </trkpt>
      <trkpt lat="43.81253" lon="7.51394">
        <ele>992.867</ele>
        <time>2020-06-24T09:03:28Z</time>
      </trkpt>
      <trkpt lat="43.81256" lon="7.51397">
        <ele>995.703</ele>
        <time>2020-06-24T09:03:44Z</time>
      </trkpt>
      <trkpt lat="43.81257" lon="7.51398">
        <ele>997.389</ele>
        <time>2020-06-24T09:04:00Z</time>
      </trkpt>
      <trkpt lat="43.81264" lon="7.51405">
        <ele>997.431</ele>
        <time>2020-06-24T09:04:16Z</time>
      </trkpt>
      <trkpt lat="43.81264" lon="7.51406">
        <ele>997.529</ele>
        <time>2020-06-24T09:04:32Z</time>
      </trkpt>
      <trkpt lat="43.81268" lon="7.51414">
        <ele>998.175</ele>
        <time>2020-06-24T09:04:48Z</time>
      </trkpt>
      <trkpt lat="43.81271" lon="7.51422">
        <ele>1002.054</ele>
        <time>2020-06-24T09:05:04Z</time>
      </trkpt>
      <trkpt lat="43.81275" lon="7.51433">
        <ele>1008.932</ele>
        <time>2020-06-24T09:05:20Z</time>
      </trkpt>
      <trkpt lat="43.8128" lon="7.51438">
        <ele>1008.931</ele>
        <time>2020-06-24T09:05:35Z</time>
      </trkpt>
      <trkpt lat="43.81281" lon="7.51439">
        <ele>1009.942</ele>
        <time>2020-06-24T09:05:51Z</time>
      </trkpt>
      <trkpt lat="43.81283" lon="7.51438">
        <ele>1011.059</ele>
        <time>2020-06-24T09:06:06Z</time>
      </trkpt>
      <trkpt lat="43.81284" lon="7.51438">
        <ele>1011.928</ele>
        <time>2020-06-24T09:06:22Z</time>
      </trkpt>
      <trkpt lat="43.81288" lon="7.51436">
        <ele>1013.195</ele>
        <time>2020-06-24T09:06:37Z</time>
      </trkpt>
      <trkpt lat="43.8129" lon="7.51435">
        <ele>1013.692</ele>
        <time>2020-06-24T09:06:52Z</time>
      </trkpt>
      <trkpt lat="43.8129" lon="7.51435">
        <ele>1013.692</ele>
        <time>2020-06-24T09:07:07Z</time>
      </trkpt>
      <trkpt lat="43.81296" lon="7.51434">
        <ele>1013.933</ele>
        <time>2020-06-24T09:07:23Z</time>
      </trkpt>
      <trkpt lat="43.81303" lon="7.51434">
        <ele>1014.039</ele>
        <time>2020-06-24T09:07:39Z</time>
      </trkpt>
      <trkpt lat="43.8131" lon="7.51429">
        <ele>1015.66</ele>
        <time>2020-06-24T09:07:54Z</time>
      </trkpt>
      <trkpt lat="43.8131" lon="7.51429">
        <ele>1015.66</ele>
        <time>2020-06-24T09:08:10Z</time>
      </trkpt>
      <trkpt lat="43.8131" lon="7.51429">
        <ele>1015.66</ele>
        <time>2020-06-24T09:08:25Z</time>
      </trkpt>
      <trkpt lat="43.8131" lon="7.51429">
        <ele>1015.66</ele>
        <time>2020-06-24T09:08:41Z</time>
      </trkpt>
      <trkpt lat="43.81315" lon="7.51428">
        <ele>1015.107</ele>
        <time>2020-06-24T09:08:56Z</time>
      </trkpt>
      <trkpt lat="43.8132" lon="7.51432">
        <ele>1022.899</ele>
        <time>2020-06-24T09:09:11Z</time>
      </trkpt>
      <trkpt lat="43.81323" lon="7.5143">
        <ele>1028.627</ele>
        <time>2020-06-24T09:09:26Z</time>
      </trkpt>
      <trkpt lat="43.81325" lon="7.51426">
        <ele>1031.24</ele>
        <time>2020-06-24T09:09:42Z</time>
      </trkpt>
      <trkpt lat="43.81329" lon="7.51424">
        <ele>1032.673</ele>
        <time>2020-06-24T09:09:58Z</time>
      </trkpt>
      <trkpt lat="43.81333" lon="7.5142">
        <ele>1036.894</ele>
        <time>2020-06-24T09:10:14Z</time>
      </trkpt>
      <trkpt lat="43.81333" lon="7.5142">
        <ele>1036.894</ele>
        <time>2020-06-24T09:10:29Z</time>
      </trkpt>
      <trkpt lat="43.81339" lon="7.51417">
        <ele>1037.782</ele>
        <time>2020-06-24T09:10:45Z</time>
      </trkpt>
      <trkpt lat="43.81353" lon="7.51409">
        <ele>1041.167</ele>
        <time>2020-06-24T09:11:01Z</time>
      </trkpt>
      <trkpt lat="43.81353" lon="7.51409">
        <ele>1041.167</ele>
        <time>2020-06-24T09:11:16Z</time>
      </trkpt>
      <trkpt lat="43.81353" lon="7.51409">
        <ele>1041.167</ele>
        <time>2020-06-24T09:11:31Z</time>
      </trkpt>
      <trkpt lat="43.81353" lon="7.51409">
        <ele>1041.167</ele>
        <time>2020-06-24T09:11:47Z</time>
      </trkpt>
      <trkpt lat="43.81356" lon="7.51404">
        <ele>1041.995</ele>
        <time>2020-06-24T09:12:03Z</time>
      </trkpt>
      <trkpt lat="43.81363" lon="7.5139">
        <ele>1050.891</ele>
        <time>2020-06-24T09:12:19Z</time>
      </trkpt>
      <trkpt lat="43.81369" lon="7.51387">
        <ele>1052.54</ele>
        <time>2020-06-24T09:12:35Z</time>
      </trkpt>
      <trkpt lat="43.81369" lon="7.51387">
        <ele>1052.54</ele>
        <time>2020-06-24T09:12:50Z</time>
      </trkpt>
      <trkpt lat="43.81373" lon="7.51382">
        <ele>1053.203</ele>
        <time>2020-06-24T09:13:06Z</time>
      </trkpt>
      <trkpt lat="43.81377" lon="7.51358">
        <ele>1056.925</ele>
        <time>2020-06-24T09:13:22Z</time>
      </trkpt>
      <trkpt lat="43.81372" lon="7.51329">
        <ele>1067.562</ele>
        <time>2020-06-24T09:13:38Z</time>
      </trkpt>
      <trkpt lat="43.81372" lon="7.51315">
        <ele>1073.527</ele>
        <time>2020-06-24T09:13:53Z</time>
      </trkpt>
      <trkpt lat="43.81375" lon="7.51307">
        <ele>1075.426</ele>
        <time>2020-06-24T09:14:09Z</time>
      </trkpt>
      <trkpt lat="43.81369" lon="7.51289">
        <ele>1084.551</ele>
        <time>2020-06-24T09:14:25Z</time>
      </trkpt>
      <trkpt lat="43.81366" lon="7.51277">
        <ele>1090.611</ele>
        <time>2020-06-24T09:14:40Z</time>
      </trkpt>
      <trkpt lat="43.81366" lon="7.51277">
        <ele>1090.611</ele>
        <time>2020-06-24T09:14:55Z</time>
      </trkpt>
      <trkpt lat="43.81365" lon="7.51275">
        <ele>1093.143</ele>
        <time>2020-06-24T09:15:11Z</time>
      </trkpt>
      <trkpt lat="43.81368" lon="7.51268">
        <ele>1091.705</ele>
        <time>2020-06-24T09:15:26Z</time>
      </trkpt>
      <trkpt lat="43.8138" lon="7.51263">
        <ele>1090.02</ele>
        <time>2020-06-24T09:15:42Z</time>
      </trkpt>
      <trkpt lat="43.81386" lon="7.51257">
        <ele>1090.56</ele>
        <time>2020-06-24T09:15:57Z</time>
      </trkpt>
      <trkpt lat="43.81389" lon="7.51255">
        <ele>1091.338</ele>
        <time>2020-06-24T09:16:13Z</time>
      </trkpt>
      <trkpt lat="43.81387" lon="7.51254">
        <ele>1094.817</ele>
        <time>2020-06-24T09:16:29Z</time>
      </trkpt>
      <trkpt lat="43.81387" lon="7.51254">
        <ele>1094.817</ele>
        <time>2020-06-24T09:16:45Z</time>
      </trkpt>
      <trkpt lat="43.81387" lon="7.51254">
        <ele>1094.817</ele>
        <time>2020-06-24T09:17:00Z</time>
      </trkpt>
      <trkpt lat="43.81389" lon="7.51254">
        <ele>1095.853</ele>
        <time>2020-06-24T09:17:15Z</time>
      </trkpt>
      <trkpt lat="43.81393" lon="7.51253">
        <ele>1097.171</ele>
        <time>2020-06-24T09:17:31Z</time>
      </trkpt>
      <trkpt lat="43.81403" lon="7.51255">
        <ele>1100.399</ele>
        <time>2020-06-24T09:17:46Z</time>
      </trkpt>
      <trkpt lat="43.81408" lon="7.5126">
        <ele>1107.462</ele>
        <time>2020-06-24T09:18:02Z</time>
      </trkpt>
      <trkpt lat="43.81417" lon="7.5126">
        <ele>1108.696</ele>
        <time>2020-06-24T09:18:17Z</time>
      </trkpt>
      <trkpt lat="43.81419" lon="7.51261">
        <ele>1109.279</ele>
        <time>2020-06-24T09:18:33Z</time>
      </trkpt>
      <trkpt lat="43.81428" lon="7.51263">
        <ele>1110.736</ele>
        <time>2020-06-24T09:18:48Z</time>
      </trkpt>
      <trkpt lat="43.81428" lon="7.51263">
        <ele>1110.736</ele>
        <time>2020-06-24T09:19:04Z</time>
      </trkpt>
      <trkpt lat="43.81433" lon="7.51263">
        <ele>1111.562</ele>
        <time>2020-06-24T09:19:20Z</time>
      </trkpt>
      <trkpt lat="43.81433" lon="7.51263">
        <ele>1111.562</ele>
        <time>2020-06-24T09:19:35Z</time>
      </trkpt>
      <trkpt lat="43.81437" lon="7.51263">
        <ele>1111.833</ele>
        <time>2020-06-24T09:19:50Z</time>
      </trkpt>
      <trkpt lat="43.81438" lon="7.51263">
        <ele>1111.893</ele>
        <time>2020-06-24T09:20:05Z</time>
      </trkpt>
      <trkpt lat="43.81451" lon="7.51261">
        <ele>1114.116</ele>
        <time>2020-06-24T09:20:21Z</time>
      </trkpt>
      <trkpt lat="43.81464" lon="7.51278">
        <ele>1118.705</ele>
        <time>2020-06-24T09:20:36Z</time>
      </trkpt>
      <trkpt lat="43.81477" lon="7.51295">
        <ele>1122.074</ele>
        <time>2020-06-24T09:20:52Z</time>
      </trkpt>
      <trkpt lat="43.81477" lon="7.51299">
        <ele>1122.918</ele>
        <time>2020-06-24T09:21:08Z</time>
      </trkpt>
      <trkpt lat="43.81477" lon="7.51299">
        <ele>1122.918</ele>
        <time>2020-06-24T09:21:24Z</time>
      </trkpt>
      <trkpt lat="43.81478" lon="7.51298">
        <ele>1123.015</ele>
        <time>2020-06-24T09:21:39Z</time>
      </trkpt>
      <trkpt lat="43.81478" lon="7.51298">
        <ele>1123.015</ele>
        <time>2020-06-24T09:21:55Z</time>
      </trkpt>
      <trkpt lat="43.81478" lon="7.51298">
        <ele>1123.015</ele>
        <time>2020-06-24T09:22:10Z</time>
      </trkpt>
      <trkpt lat="43.81478" lon="7.51298">
        <ele>1123.015</ele>
        <time>2020-06-24T09:22:26Z</time>
      </trkpt>
      <trkpt lat="43.81478" lon="7.51298">
        <ele>1123.015</ele>
        <time>2020-06-24T09:22:41Z</time>
      </trkpt>
      <trkpt lat="43.81478" lon="7.51298">
        <ele>1123.015</ele>
        <time>2020-06-24T09:22:57Z</time>
      </trkpt>
      <trkpt lat="43.81478" lon="7.51298">
        <ele>1123.015</ele>
        <time>2020-06-24T09:23:13Z</time>
      </trkpt>
      <trkpt lat="43.81478" lon="7.51298">
        <ele>1123.015</ele>
        <time>2020-06-24T09:23:29Z</time>
      </trkpt>
      <trkpt lat="43.81478" lon="7.51298">
        <ele>1123.015</ele>
        <time>2020-06-24T09:23:44Z</time>
      </trkpt>
      <trkpt lat="43.81479" lon="7.51297">
        <ele>1123.459</ele>
        <time>2020-06-24T09:24:00Z</time>
      </trkpt>
      <trkpt lat="43.81479" lon="7.51297">
        <ele>1123.459</ele>
        <time>2020-06-24T09:24:15Z</time>
      </trkpt>
      <trkpt lat="43.81481" lon="7.51297">
        <ele>1122.794</ele>
        <time>2020-06-24T09:24:31Z</time>
      </trkpt>
      <trkpt lat="43.81492" lon="7.5129">
        <ele>1124.586</ele>
        <time>2020-06-24T09:24:47Z</time>
      </trkpt>
      <trkpt lat="43.81501" lon="7.5129">
        <ele>1124.78</ele>
        <time>2020-06-24T09:25:02Z</time>
      </trkpt>
      <trkpt lat="43.81501" lon="7.5129">
        <ele>1124.78</ele>
        <time>2020-06-24T09:25:17Z</time>
      </trkpt>
      <trkpt lat="43.81501" lon="7.5129">
        <ele>1124.78</ele>
        <time>2020-06-24T09:25:33Z</time>
      </trkpt>
      <trkpt lat="43.81501" lon="7.5129">
        <ele>1124.78</ele>
        <time>2020-06-24T09:25:49Z</time>
      </trkpt>
      <trkpt lat="43.81501" lon="7.5129">
        <ele>1124.78</ele>
        <time>2020-06-24T09:26:05Z</time>
      </trkpt>
      <trkpt lat="43.81501" lon="7.5129">
        <ele>1124.78</ele>
        <time>2020-06-24T09:26:21Z</time>
      </trkpt>
      <trkpt lat="43.81501" lon="7.5129">
        <ele>1124.78</ele>
        <time>2020-06-24T09:26:37Z</time>
      </trkpt>
      <trkpt lat="43.81501" lon="7.5129">
        <ele>1124.78</ele>
        <time>2020-06-24T09:26:53Z</time>
      </trkpt>
      <trkpt lat="43.81502" lon="7.51292">
        <ele>1124.774</ele>
        <time>2020-06-24T09:27:09Z</time>
      </trkpt>
      <trkpt lat="43.81502" lon="7.51292">
        <ele>1124.774</ele>
        <time>2020-06-24T09:27:25Z</time>
      </trkpt>
      <trkpt lat="43.81502" lon="7.51292">
        <ele>1124.774</ele>
        <time>2020-06-24T09:27:41Z</time>
      </trkpt>
      <trkpt lat="43.81502" lon="7.51292">
        <ele>1124.774</ele>
        <time>2020-06-24T09:27:56Z</time>
      </trkpt>
      <trkpt lat="43.81501" lon="7.51293">
        <ele>1124.988</ele>
        <time>2020-06-24T09:28:12Z</time>
      </trkpt>
      <trkpt lat="43.81501" lon="7.51293">
        <ele>1124.988</ele>
        <time>2020-06-24T09:28:28Z</time>
      </trkpt>
      <trkpt lat="43.81501" lon="7.51293">
        <ele>1124.988</ele>
        <time>2020-06-24T09:28:44Z</time>
      </trkpt>
      <trkpt lat="43.81501" lon="7.51293">
        <ele>1124.988</ele>
        <time>2020-06-24T09:28:59Z</time>
      </trkpt>
      <trkpt lat="43.81501" lon="7.51293">
        <ele>1124.988</ele>
        <time>2020-06-24T09:29:14Z</time>
      </trkpt>
      <trkpt lat="43.81501" lon="7.51293">
        <ele>1124.988</ele>
        <time>2020-06-24T09:29:30Z</time>
      </trkpt>
      <trkpt lat="43.81501" lon="7.51293">
        <ele>1124.988</ele>
        <time>2020-06-24T09:29:45Z</time>
      </trkpt>
      <trkpt lat="43.81498" lon="7.51296">
        <ele>1124.998</ele>
        <time>2020-06-24T09:30:00Z</time>
      </trkpt>
      <trkpt lat="43.81491" lon="7.51294">
        <ele>1128.24</ele>
        <time>2020-06-24T09:30:16Z</time>
      </trkpt>
      <trkpt lat="43.81491" lon="7.51294">
        <ele>1128.24</ele>
        <time>2020-06-24T09:30:32Z</time>
      </trkpt>
      <trkpt lat="43.81491" lon="7.51294">
        <ele>1128.24</ele>
        <time>2020-06-24T09:30:48Z</time>
      </trkpt>
      <trkpt lat="43.81491" lon="7.51294">
        <ele>1128.24</ele>
        <time>2020-06-24T09:31:03Z</time>
      </trkpt>
      <trkpt lat="43.81486" lon="7.51302">
        <ele>1134.129</ele>
        <time>2020-06-24T09:31:18Z</time>
      </trkpt>
      <trkpt lat="43.81484" lon="7.51301">
        <ele>1132.77</ele>
        <time>2020-06-24T09:31:34Z</time>
      </trkpt>
      <trkpt lat="43.81484" lon="7.51301">
        <ele>1132.77</ele>
        <time>2020-06-24T09:31:50Z</time>
      </trkpt>
      <trkpt lat="43.81484" lon="7.51301">
        <ele>1132.77</ele>
        <time>2020-06-24T09:32:05Z</time>
      </trkpt>
      <trkpt lat="43.81484" lon="7.51301">
        <ele>1132.77</ele>
        <time>2020-06-24T09:32:21Z</time>
      </trkpt>
      <trkpt lat="43.81484" lon="7.51301">
        <ele>1132.77</ele>
        <time>2020-06-24T09:32:36Z</time>
      </trkpt>
      <trkpt lat="43.81484" lon="7.51301">
        <ele>1132.77</ele>
        <time>2020-06-24T09:32:52Z</time>
      </trkpt>
      <trkpt lat="43.81484" lon="7.51301">
        <ele>1132.77</ele>
        <time>2020-06-24T09:33:07Z</time>
      </trkpt>
      <trkpt lat="43.81484" lon="7.51301">
        <ele>1132.77</ele>
        <time>2020-06-24T09:33:23Z</time>
      </trkpt>
      <trkpt lat="43.81485" lon="7.51302">
        <ele>1131.658</ele>
        <time>2020-06-24T09:33:38Z</time>
      </trkpt>
      <trkpt lat="43.81497" lon="7.51299">
        <ele>1133.326</ele>
        <time>2020-06-24T09:33:53Z</time>
      </trkpt>
      <trkpt lat="43.815" lon="7.51297">
        <ele>1132.499</ele>
        <time>2020-06-24T09:34:09Z</time>
      </trkpt>
      <trkpt lat="43.815" lon="7.51297">
        <ele>1132.499</ele>
        <time>2020-06-24T09:34:24Z</time>
      </trkpt>
      <trkpt lat="43.815" lon="7.51297">
        <ele>1132.499</ele>
        <time>2020-06-24T09:34:40Z</time>
      </trkpt>
      <trkpt lat="43.815" lon="7.51297">
        <ele>1132.499</ele>
        <time>2020-06-24T09:34:55Z</time>
      </trkpt>
      <trkpt lat="43.815" lon="7.51297">
        <ele>1132.499</ele>
        <time>2020-06-24T09:35:10Z</time>
      </trkpt>
      <trkpt lat="43.815" lon="7.51297">
        <ele>1132.499</ele>
        <time>2020-06-24T09:35:25Z</time>
      </trkpt>
      <trkpt lat="43.815" lon="7.51297">
        <ele>1132.499</ele>
        <time>2020-06-24T09:35:41Z</time>
      </trkpt>
      <trkpt lat="43.815" lon="7.51297">
        <ele>1132.499</ele>
        <time>2020-06-24T09:35:57Z</time>
      </trkpt>
      <trkpt lat="43.815" lon="7.51297">
        <ele>1132.499</ele>
        <time>2020-06-24T09:36:13Z</time>
      </trkpt>
      <trkpt lat="43.815" lon="7.51297">
        <ele>1132.499</ele>
        <time>2020-06-24T09:36:28Z</time>
      </trkpt>
      <trkpt lat="43.815" lon="7.51297">
        <ele>1132.499</ele>
        <time>2020-06-24T09:36:44Z</time>
      </trkpt>
      <trkpt lat="43.815" lon="7.51297">
        <ele>1132.499</ele>
        <time>2020-06-24T09:36:59Z</time>
      </trkpt>
      <trkpt lat="43.815" lon="7.51297">
        <ele>1132.499</ele>
        <time>2020-06-24T09:37:15Z</time>
      </trkpt>
      <trkpt lat="43.815" lon="7.51297">
        <ele>1132.499</ele>
        <time>2020-06-24T09:37:31Z</time>
      </trkpt>
      <trkpt lat="43.815" lon="7.51297">
        <ele>1132.499</ele>
        <time>2020-06-24T09:37:47Z</time>
      </trkpt>
      <trkpt lat="43.815" lon="7.51297">
        <ele>1132.499</ele>
        <time>2020-06-24T09:38:03Z</time>
      </trkpt>
      <trkpt lat="43.815" lon="7.51297">
        <ele>1132.499</ele>
        <time>2020-06-24T09:38:19Z</time>
      </trkpt>
      <trkpt lat="43.815" lon="7.51297">
        <ele>1132.499</ele>
        <time>2020-06-24T09:38:34Z</time>
      </trkpt>
      <trkpt lat="43.815" lon="7.51297">
        <ele>1132.499</ele>
        <time>2020-06-24T09:38:50Z</time>
      </trkpt>
      <trkpt lat="43.815" lon="7.51297">
        <ele>1132.499</ele>
        <time>2020-06-24T09:39:05Z</time>
      </trkpt>
      <trkpt lat="43.815" lon="7.51297">
        <ele>1132.499</ele>
        <time>2020-06-24T09:39:21Z</time>
      </trkpt>
      <trkpt lat="43.815" lon="7.51297">
        <ele>1132.499</ele>
        <time>2020-06-24T09:39:37Z</time>
      </trkpt>
      <trkpt lat="43.815" lon="7.51297">
        <ele>1132.499</ele>
        <time>2020-06-24T09:39:52Z</time>
      </trkpt>
      <trkpt lat="43.815" lon="7.51297">
        <ele>1132.499</ele>
        <time>2020-06-24T09:40:08Z</time>
      </trkpt>
      <trkpt lat="43.815" lon="7.51297">
        <ele>1132.499</ele>
        <time>2020-06-24T09:40:24Z</time>
      </trkpt>
      <trkpt lat="43.815" lon="7.51297">
        <ele>1132.499</ele>
        <time>2020-06-24T09:40:39Z</time>
      </trkpt>
      <trkpt lat="43.815" lon="7.51297">
        <ele>1132.499</ele>
        <time>2020-06-24T09:40:55Z</time>
      </trkpt>
      <trkpt lat="43.815" lon="7.51297">
        <ele>1132.499</ele>
        <time>2020-06-24T09:41:10Z</time>
      </trkpt>
      <trkpt lat="43.815" lon="7.51297">
        <ele>1132.499</ele>
        <time>2020-06-24T09:41:25Z</time>
      </trkpt>
      <trkpt lat="43.815" lon="7.51297">
        <ele>1132.499</ele>
        <time>2020-06-24T09:41:41Z</time>
      </trkpt>
      <trkpt lat="43.815" lon="7.51297">
        <ele>1132.499</ele>
        <time>2020-06-24T09:41:56Z</time>
      </trkpt>
      <trkpt lat="43.815" lon="7.51297">
        <ele>1132.499</ele>
        <time>2020-06-24T09:42:12Z</time>
      </trkpt>
      <trkpt lat="43.815" lon="7.51297">
        <ele>1132.499</ele>
        <time>2020-06-24T09:42:28Z</time>
      </trkpt>
      <trkpt lat="43.815" lon="7.51297">
        <ele>1132.499</ele>
        <time>2020-06-24T09:42:43Z</time>
      </trkpt>
      <trkpt lat="43.815" lon="7.51297">
        <ele>1132.499</ele>
        <time>2020-06-24T09:42:59Z</time>
      </trkpt>
      <trkpt lat="43.815" lon="7.51297">
        <ele>1132.499</ele>
        <time>2020-06-24T09:43:14Z</time>
      </trkpt>
      <trkpt lat="43.815" lon="7.51297">
        <ele>1132.499</ele>
        <time>2020-06-24T09:43:29Z</time>
      </trkpt>
      <trkpt lat="43.815" lon="7.51297">
        <ele>1132.499</ele>
        <time>2020-06-24T09:43:44Z</time>
      </trkpt>
      <trkpt lat="43.815" lon="7.51297">
        <ele>1132.499</ele>
        <time>2020-06-24T09:44:00Z</time>
      </trkpt>
      <trkpt lat="43.815" lon="7.51297">
        <ele>1132.499</ele>
        <time>2020-06-24T09:44:15Z</time>
      </trkpt>
      <trkpt lat="43.815" lon="7.51296">
        <ele>1132.532</ele>
        <time>2020-06-24T09:44:31Z</time>
      </trkpt>
      <trkpt lat="43.81499" lon="7.51298">
        <ele>1133.285</ele>
        <time>2020-06-24T09:44:47Z</time>
      </trkpt>
      <trkpt lat="43.81499" lon="7.51298">
        <ele>1133.285</ele>
        <time>2020-06-24T09:45:02Z</time>
      </trkpt>
      <trkpt lat="43.81499" lon="7.51298">
        <ele>1133.285</ele>
        <time>2020-06-24T09:45:17Z</time>
      </trkpt>
      <trkpt lat="43.81499" lon="7.51298">
        <ele>1133.285</ele>
        <time>2020-06-24T09:45:33Z</time>
      </trkpt>
      <trkpt lat="43.81499" lon="7.51298">
        <ele>1133.285</ele>
        <time>2020-06-24T09:45:49Z</time>
      </trkpt>
      <trkpt lat="43.81499" lon="7.51298">
        <ele>1133.285</ele>
        <time>2020-06-24T09:46:04Z</time>
      </trkpt>
      <trkpt lat="43.81499" lon="7.51298">
        <ele>1133.285</ele>
        <time>2020-06-24T09:46:20Z</time>
      </trkpt>
      <trkpt lat="43.81499" lon="7.51298">
        <ele>1133.285</ele>
        <time>2020-06-24T09:46:35Z</time>
      </trkpt>
      <trkpt lat="43.81499" lon="7.51298">
        <ele>1133.285</ele>
        <time>2020-06-24T09:46:50Z</time>
      </trkpt>
      <trkpt lat="43.81499" lon="7.51298">
        <ele>1133.285</ele>
        <time>2020-06-24T09:47:05Z</time>
      </trkpt>
      <trkpt lat="43.81499" lon="7.51298">
        <ele>1133.285</ele>
        <time>2020-06-24T09:47:20Z</time>
      </trkpt>
      <trkpt lat="43.81499" lon="7.51298">
        <ele>1133.285</ele>
        <time>2020-06-24T09:47:36Z</time>
      </trkpt>
      <trkpt lat="43.81499" lon="7.51298">
        <ele>1133.285</ele>
        <time>2020-06-24T09:47:52Z</time>
      </trkpt>
      <trkpt lat="43.81499" lon="7.51298">
        <ele>1133.285</ele>
        <time>2020-06-24T09:48:07Z</time>
      </trkpt>
      <trkpt lat="43.81499" lon="7.51298">
        <ele>1133.285</ele>
        <time>2020-06-24T09:48:23Z</time>
      </trkpt>
      <trkpt lat="43.81499" lon="7.51298">
        <ele>1133.285</ele>
        <time>2020-06-24T09:48:38Z</time>
      </trkpt>
      <trkpt lat="43.815" lon="7.51299">
        <ele>1135.839</ele>
        <time>2020-06-24T09:48:53Z</time>
      </trkpt>
      <trkpt lat="43.81501" lon="7.513">
        <ele>1136.781</ele>
        <time>2020-06-24T09:49:09Z</time>
      </trkpt>
      <trkpt lat="43.81501" lon="7.513">
        <ele>1136.781</ele>
        <time>2020-06-24T09:49:24Z</time>
      </trkpt>
      <trkpt lat="43.815" lon="7.51301">
        <ele>1137.403</ele>
        <time>2020-06-24T09:49:39Z</time>
      </trkpt>
      <trkpt lat="43.815" lon="7.51301">
        <ele>1137.403</ele>
        <time>2020-06-24T09:49:55Z</time>
      </trkpt>
      <trkpt lat="43.815" lon="7.51301">
        <ele>1137.403</ele>
        <time>2020-06-24T09:50:10Z</time>
      </trkpt>
      <trkpt lat="43.815" lon="7.51301">
        <ele>1137.403</ele>
        <time>2020-06-24T09:50:26Z</time>
      </trkpt>
      <trkpt lat="43.815" lon="7.51301">
        <ele>1137.403</ele>
        <time>2020-06-24T09:50:41Z</time>
      </trkpt>
      <trkpt lat="43.815" lon="7.51301">
        <ele>1137.403</ele>
        <time>2020-06-24T09:50:56Z</time>
      </trkpt>
      <trkpt lat="43.815" lon="7.51301">
        <ele>1137.403</ele>
        <time>2020-06-24T09:51:12Z</time>
      </trkpt>
      <trkpt lat="43.815" lon="7.51301">
        <ele>1137.403</ele>
        <time>2020-06-24T09:51:27Z</time>
      </trkpt>
      <trkpt lat="43.815" lon="7.51301">
        <ele>1137.403</ele>
        <time>2020-06-24T09:51:43Z</time>
      </trkpt>
      <trkpt lat="43.815" lon="7.51301">
        <ele>1137.403</ele>
        <time>2020-06-24T09:51:59Z</time>
      </trkpt>
      <trkpt lat="43.81504" lon="7.513">
        <ele>1137.438</ele>
        <time>2020-06-24T09:52:15Z</time>
      </trkpt>
      <trkpt lat="43.81499" lon="7.51296">
        <ele>1138.728</ele>
        <time>2020-06-24T09:52:30Z</time>
      </trkpt>
      <trkpt lat="43.81499" lon="7.51296">
        <ele>1138.728</ele>
        <time>2020-06-24T09:52:45Z</time>
      </trkpt>
      <trkpt lat="43.81499" lon="7.51296">
        <ele>1138.728</ele>
        <time>2020-06-24T09:53:01Z</time>
      </trkpt>
      <trkpt lat="43.81499" lon="7.51296">
        <ele>1138.728</ele>
        <time>2020-06-24T09:53:17Z</time>
      </trkpt>
      <trkpt lat="43.81499" lon="7.51301">
        <ele>1138.005</ele>
        <time>2020-06-24T09:53:33Z</time>
      </trkpt>
      <trkpt lat="43.81503" lon="7.51318">
        <ele>1136.137</ele>
        <time>2020-06-24T09:53:48Z</time>
      </trkpt>
      <trkpt lat="43.81504" lon="7.51324">
        <ele>1136.904</ele>
        <time>2020-06-24T09:54:03Z</time>
      </trkpt>
      <trkpt lat="43.81503" lon="7.51324">
        <ele>1136.956</ele>
        <time>2020-06-24T09:54:19Z</time>
      </trkpt>
      <trkpt lat="43.81501" lon="7.51331">
        <ele>1137.496</ele>
        <time>2020-06-24T09:54:34Z</time>
      </trkpt>
      <trkpt lat="43.815" lon="7.51342">
        <ele>1140.04</ele>
        <time>2020-06-24T09:54:49Z</time>
      </trkpt>
      <trkpt lat="43.815" lon="7.51342">
        <ele>1140.04</ele>
        <time>2020-06-24T09:55:05Z</time>
      </trkpt>
      <trkpt lat="43.815" lon="7.51342">
        <ele>1140.04</ele>
        <time>2020-06-24T09:55:20Z</time>
      </trkpt>
      <trkpt lat="43.81501" lon="7.51353">
        <ele>1141.694</ele>
        <time>2020-06-24T09:55:36Z</time>
      </trkpt>
      <trkpt lat="43.81497" lon="7.51368">
        <ele>1149.056</ele>
        <time>2020-06-24T09:55:51Z</time>
      </trkpt>
      <trkpt lat="43.81504" lon="7.51373">
        <ele>1151.611</ele>
        <time>2020-06-24T09:56:06Z</time>
      </trkpt>
      <trkpt lat="43.81501" lon="7.51382">
        <ele>1154.408</ele>
        <time>2020-06-24T09:56:21Z</time>
      </trkpt>
      <trkpt lat="43.81498" lon="7.51392">
        <ele>1157.467</ele>
        <time>2020-06-24T09:56:37Z</time>
      </trkpt>
      <trkpt lat="43.81495" lon="7.51404">
        <ele>1161.206</ele>
        <time>2020-06-24T09:56:53Z</time>
      </trkpt>
      <trkpt lat="43.81491" lon="7.51419">
        <ele>1165.115</ele>
        <time>2020-06-24T09:57:09Z</time>
      </trkpt>
      <trkpt lat="43.81485" lon="7.51432">
        <ele>1169.373</ele>
        <time>2020-06-24T09:57:25Z</time>
      </trkpt>
      <trkpt lat="43.81489" lon="7.51433">
        <ele>1170.313</ele>
        <time>2020-06-24T09:57:40Z</time>
      </trkpt>
      <trkpt lat="43.81497" lon="7.51437">
        <ele>1172.219</ele>
        <time>2020-06-24T09:57:55Z</time>
      </trkpt>
      <trkpt lat="43.81495" lon="7.51449">
        <ele>1175.672</ele>
        <time>2020-06-24T09:58:11Z</time>
      </trkpt>
      <trkpt lat="43.81494" lon="7.51457">
        <ele>1177.678</ele>
        <time>2020-06-24T09:58:26Z</time>
      </trkpt>
      <trkpt lat="43.81493" lon="7.51467">
        <ele>1178.89</ele>
        <time>2020-06-24T09:58:41Z</time>
      </trkpt>
      <trkpt lat="43.81493" lon="7.51467">
        <ele>1178.89</ele>
        <time>2020-06-24T09:58:57Z</time>
      </trkpt>
      <trkpt lat="43.81496" lon="7.51468">
        <ele>1179.942</ele>
        <time>2020-06-24T09:59:13Z</time>
      </trkpt>
      <trkpt lat="43.81499" lon="7.51475">
        <ele>1182.198</ele>
        <time>2020-06-24T09:59:29Z</time>
      </trkpt>
      <trkpt lat="43.815" lon="7.51472">
        <ele>1182.973</ele>
        <time>2020-06-24T09:59:44Z</time>
      </trkpt>
      <trkpt lat="43.81511" lon="7.5147">
        <ele>1184.575</ele>
        <time>2020-06-24T10:00:00Z</time>
      </trkpt>
      <trkpt lat="43.81511" lon="7.51466">
        <ele>1186.837</ele>
        <time>2020-06-24T10:00:16Z</time>
      </trkpt>
      <trkpt lat="43.81511" lon="7.51465">
        <ele>1188.065</ele>
        <time>2020-06-24T10:00:32Z</time>
      </trkpt>
      <trkpt lat="43.81511" lon="7.51465">
        <ele>1188.065</ele>
        <time>2020-06-24T10:00:47Z</time>
      </trkpt>
      <trkpt lat="43.81509" lon="7.51465">
        <ele>1189.955</ele>
        <time>2020-06-24T10:01:03Z</time>
      </trkpt>
      <trkpt lat="43.8151" lon="7.51464">
        <ele>1190.107</ele>
        <time>2020-06-24T10:01:19Z</time>
      </trkpt>
      <trkpt lat="43.81511" lon="7.51464">
        <ele>1191.263</ele>
        <time>2020-06-24T10:01:34Z</time>
      </trkpt>
      <trkpt lat="43.81511" lon="7.51466">
        <ele>1191.739</ele>
        <time>2020-06-24T10:01:50Z</time>
      </trkpt>
      <trkpt lat="43.8151" lon="7.51465">
        <ele>1191.717</ele>
        <time>2020-06-24T10:02:06Z</time>
      </trkpt>
      <trkpt lat="43.8151" lon="7.51465">
        <ele>1191.717</ele>
        <time>2020-06-24T10:02:22Z</time>
      </trkpt>
      <trkpt lat="43.8151" lon="7.51465">
        <ele>1191.717</ele>
        <time>2020-06-24T10:02:37Z</time>
      </trkpt>
      <trkpt lat="43.8151" lon="7.51465">
        <ele>1191.717</ele>
        <time>2020-06-24T10:02:52Z</time>
      </trkpt>
      <trkpt lat="43.8151" lon="7.51465">
        <ele>1191.717</ele>
        <time>2020-06-24T10:03:08Z</time>
      </trkpt>
      <trkpt lat="43.8151" lon="7.51465">
        <ele>1191.717</ele>
        <time>2020-06-24T10:03:24Z</time>
      </trkpt>
      <trkpt lat="43.8151" lon="7.51465">
        <ele>1191.717</ele>
        <time>2020-06-24T10:03:40Z</time>
      </trkpt>
      <trkpt lat="43.8151" lon="7.51465">
        <ele>1191.717</ele>
        <time>2020-06-24T10:03:55Z</time>
      </trkpt>
      <trkpt lat="43.8151" lon="7.51465">
        <ele>1191.717</ele>
        <time>2020-06-24T10:04:11Z</time>
      </trkpt>
      <trkpt lat="43.8151" lon="7.51465">
        <ele>1191.717</ele>
        <time>2020-06-24T10:04:27Z</time>
      </trkpt>
      <trkpt lat="43.8151" lon="7.51465">
        <ele>1191.717</ele>
        <time>2020-06-24T10:04:42Z</time>
      </trkpt>
      <trkpt lat="43.8151" lon="7.51465">
        <ele>1191.717</ele>
        <time>2020-06-24T10:04:58Z</time>
      </trkpt>
      <trkpt lat="43.8151" lon="7.51465">
        <ele>1191.717</ele>
        <time>2020-06-24T10:05:14Z</time>
      </trkpt>
      <trkpt lat="43.8151" lon="7.51465">
        <ele>1191.717</ele>
        <time>2020-06-24T10:05:29Z</time>
      </trkpt>
      <trkpt lat="43.8151" lon="7.51465">
        <ele>1191.717</ele>
        <time>2020-06-24T10:05:45Z</time>
      </trkpt>
      <trkpt lat="43.8151" lon="7.51465">
        <ele>1191.717</ele>
        <time>2020-06-24T10:06:00Z</time>
      </trkpt>
      <trkpt lat="43.8151" lon="7.51465">
        <ele>1191.717</ele>
        <time>2020-06-24T10:06:15Z</time>
      </trkpt>
      <trkpt lat="43.8151" lon="7.51465">
        <ele>1191.717</ele>
        <time>2020-06-24T10:06:31Z</time>
      </trkpt>
      <trkpt lat="43.8151" lon="7.51465">
        <ele>1191.717</ele>
        <time>2020-06-24T10:06:46Z</time>
      </trkpt>
      <trkpt lat="43.8151" lon="7.51465">
        <ele>1191.717</ele>
        <time>2020-06-24T10:07:02Z</time>
      </trkpt>
      <trkpt lat="43.8151" lon="7.51465">
        <ele>1191.717</ele>
        <time>2020-06-24T10:07:17Z</time>
      </trkpt>
      <trkpt lat="43.8151" lon="7.51465">
        <ele>1191.717</ele>
        <time>2020-06-24T10:07:32Z</time>
      </trkpt>
      <trkpt lat="43.8151" lon="7.51465">
        <ele>1191.717</ele>
        <time>2020-06-24T10:07:47Z</time>
      </trkpt>
      <trkpt lat="43.8151" lon="7.51465">
        <ele>1191.717</ele>
        <time>2020-06-24T10:08:02Z</time>
      </trkpt>
      <trkpt lat="43.8151" lon="7.51465">
        <ele>1191.717</ele>
        <time>2020-06-24T10:08:18Z</time>
      </trkpt>
      <trkpt lat="43.8151" lon="7.51465">
        <ele>1191.717</ele>
        <time>2020-06-24T10:08:34Z</time>
      </trkpt>
      <trkpt lat="43.81512" lon="7.51463">
        <ele>1191.23</ele>
        <time>2020-06-24T10:08:49Z</time>
      </trkpt>
      <trkpt lat="43.81512" lon="7.5146">
        <ele>1190.569</ele>
        <time>2020-06-24T10:09:04Z</time>
      </trkpt>
      <trkpt lat="43.81511" lon="7.51459">
        <ele>1189.872</ele>
        <time>2020-06-24T10:09:20Z</time>
      </trkpt>
      <trkpt lat="43.81507" lon="7.51459">
        <ele>1188.156</ele>
        <time>2020-06-24T10:09:35Z</time>
      </trkpt>
      <trkpt lat="43.81503" lon="7.51451">
        <ele>1186.462</ele>
        <time>2020-06-24T10:09:51Z</time>
      </trkpt>
      <trkpt lat="43.815" lon="7.51445">
        <ele>1184.306</ele>
        <time>2020-06-24T10:10:06Z</time>
      </trkpt>
      <trkpt lat="43.81486" lon="7.51432">
        <ele>1178.547</ele>
        <time>2020-06-24T10:10:22Z</time>
      </trkpt>
      <trkpt lat="43.8149" lon="7.51425">
        <ele>1176.009</ele>
        <time>2020-06-24T10:10:37Z</time>
      </trkpt>
      <trkpt lat="43.81496" lon="7.51409">
        <ele>1171.261</ele>
        <time>2020-06-24T10:10:52Z</time>
      </trkpt>
      <trkpt lat="43.81498" lon="7.51396">
        <ele>1165.887</ele>
        <time>2020-06-24T10:11:08Z</time>
      </trkpt>
      <trkpt lat="43.81504" lon="7.51382">
        <ele>1161.229</ele>
        <time>2020-06-24T10:11:24Z</time>
      </trkpt>
      <trkpt lat="43.81501" lon="7.51373">
        <ele>1157.001</ele>
        <time>2020-06-24T10:11:39Z</time>
      </trkpt>
      <trkpt lat="43.81501" lon="7.51365">
        <ele>1153.921</ele>
        <time>2020-06-24T10:11:55Z</time>
      </trkpt>
      <trkpt lat="43.81501" lon="7.51351">
        <ele>1149.322</ele>
        <time>2020-06-24T10:12:11Z</time>
      </trkpt>
      <trkpt lat="43.81502" lon="7.51342">
        <ele>1147.106</ele>
        <time>2020-06-24T10:12:26Z</time>
      </trkpt>
      <trkpt lat="43.81507" lon="7.51332">
        <ele>1144.357</ele>
        <time>2020-06-24T10:12:42Z</time>
      </trkpt>
      <trkpt lat="43.81505" lon="7.51319">
        <ele>1140.885</ele>
        <time>2020-06-24T10:12:58Z</time>
      </trkpt>
      <trkpt lat="43.81507" lon="7.51298">
        <ele>1138.697</ele>
        <time>2020-06-24T10:13:13Z</time>
      </trkpt>
      <trkpt lat="43.81509" lon="7.51297">
        <ele>1139.017</ele>
        <time>2020-06-24T10:13:29Z</time>
      </trkpt>
      <trkpt lat="43.81509" lon="7.51297">
        <ele>1139.017</ele>
        <time>2020-06-24T10:13:45Z</time>
      </trkpt>
      <trkpt lat="43.81509" lon="7.51297">
        <ele>1139.017</ele>
        <time>2020-06-24T10:14:01Z</time>
      </trkpt>
      <trkpt lat="43.81509" lon="7.51297">
        <ele>1139.017</ele>
        <time>2020-06-24T10:14:17Z</time>
      </trkpt>
      <trkpt lat="43.81508" lon="7.51304">
        <ele>1137.672</ele>
        <time>2020-06-24T10:14:33Z</time>
      </trkpt>
      <trkpt lat="43.81508" lon="7.51304">
        <ele>1137.672</ele>
        <time>2020-06-24T10:14:48Z</time>
      </trkpt>
      <trkpt lat="43.81508" lon="7.51304">
        <ele>1137.672</ele>
        <time>2020-06-24T10:15:03Z</time>
      </trkpt>
      <trkpt lat="43.81508" lon="7.51304">
        <ele>1137.672</ele>
        <time>2020-06-24T10:15:19Z</time>
      </trkpt>
      <trkpt lat="43.81508" lon="7.51304">
        <ele>1137.672</ele>
        <time>2020-06-24T10:15:35Z</time>
      </trkpt>
      <trkpt lat="43.81508" lon="7.51304">
        <ele>1137.672</ele>
        <time>2020-06-24T10:15:51Z</time>
      </trkpt>
      <trkpt lat="43.81509" lon="7.51303">
        <ele>1137.669</ele>
        <time>2020-06-24T10:16:06Z</time>
      </trkpt>
      <trkpt lat="43.81509" lon="7.51303">
        <ele>1137.669</ele>
        <time>2020-06-24T10:16:21Z</time>
      </trkpt>
      <trkpt lat="43.81509" lon="7.51303">
        <ele>1137.669</ele>
        <time>2020-06-24T10:16:37Z</time>
      </trkpt>
      <trkpt lat="43.81509" lon="7.51303">
        <ele>1137.669</ele>
        <time>2020-06-24T10:16:53Z</time>
      </trkpt>
      <trkpt lat="43.81509" lon="7.51304">
        <ele>1137.151</ele>
        <time>2020-06-24T10:17:08Z</time>
      </trkpt>
      <trkpt lat="43.81509" lon="7.51304">
        <ele>1137.256</ele>
        <time>2020-06-24T10:17:24Z</time>
      </trkpt>
      <trkpt lat="43.81509" lon="7.51304">
        <ele>1137.256</ele>
        <time>2020-06-24T10:17:39Z</time>
      </trkpt>
      <trkpt lat="43.8151" lon="7.51303">
        <ele>1137.296</ele>
        <time>2020-06-24T10:17:55Z</time>
      </trkpt>
      <trkpt lat="43.81522" lon="7.51293">
        <ele>1136.124</ele>
        <time>2020-06-24T10:18:11Z</time>
      </trkpt>
      <trkpt lat="43.81529" lon="7.51291">
        <ele>1137.048</ele>
        <time>2020-06-24T10:18:26Z</time>
      </trkpt>
      <trkpt lat="43.81535" lon="7.51279">
        <ele>1134.435</ele>
        <time>2020-06-24T10:18:41Z</time>
      </trkpt>
      <trkpt lat="43.81537" lon="7.51272">
        <ele>1133.107</ele>
        <time>2020-06-24T10:18:56Z</time>
      </trkpt>
      <trkpt lat="43.81547" lon="7.5127">
        <ele>1130.967</ele>
        <time>2020-06-24T10:19:12Z</time>
      </trkpt>
      <trkpt lat="43.81547" lon="7.5127">
        <ele>1130.967</ele>
        <time>2020-06-24T10:19:27Z</time>
      </trkpt>
      <trkpt lat="43.81559" lon="7.51261">
        <ele>1126.785</ele>
        <time>2020-06-24T10:19:43Z</time>
      </trkpt>
      <trkpt lat="43.81563" lon="7.51258">
        <ele>1125.709</ele>
        <time>2020-06-24T10:19:58Z</time>
      </trkpt>
      <trkpt lat="43.81573" lon="7.51256">
        <ele>1124.549</ele>
        <time>2020-06-24T10:20:13Z</time>
      </trkpt>
      <trkpt lat="43.81588" lon="7.51267">
        <ele>1119.169</ele>
        <time>2020-06-24T10:20:28Z</time>
      </trkpt>
      <trkpt lat="43.81593" lon="7.51266">
        <ele>1117.463</ele>
        <time>2020-06-24T10:20:44Z</time>
      </trkpt>
      <trkpt lat="43.81599" lon="7.51255">
        <ele>1112.606</ele>
        <time>2020-06-24T10:21:00Z</time>
      </trkpt>
      <trkpt lat="43.81605" lon="7.51252">
        <ele>1110.804</ele>
        <time>2020-06-24T10:21:16Z</time>
      </trkpt>
      <trkpt lat="43.81622" lon="7.51245">
        <ele>1107.875</ele>
        <time>2020-06-24T10:21:32Z</time>
      </trkpt>
      <trkpt lat="43.81641" lon="7.51259">
        <ele>1094.951</ele>
        <time>2020-06-24T10:21:47Z</time>
      </trkpt>
      <trkpt lat="43.81658" lon="7.51272">
        <ele>1089.797</ele>
        <time>2020-06-24T10:22:03Z</time>
      </trkpt>
      <trkpt lat="43.81674" lon="7.51266">
        <ele>1089.18</ele>
        <time>2020-06-24T10:22:19Z</time>
      </trkpt>
      <trkpt lat="43.81692" lon="7.51257">
        <ele>1089.787</ele>
        <time>2020-06-24T10:22:34Z</time>
      </trkpt>
      <trkpt lat="43.81711" lon="7.51253">
        <ele>1088.334</ele>
        <time>2020-06-24T10:22:50Z</time>
      </trkpt>
      <trkpt lat="43.81729" lon="7.51252">
        <ele>1084.85</ele>
        <time>2020-06-24T10:23:05Z</time>
      </trkpt>
      <trkpt lat="43.8174" lon="7.51247">
        <ele>1080.129</ele>
        <time>2020-06-24T10:23:21Z</time>
      </trkpt>
      <trkpt lat="43.81745" lon="7.51242">
        <ele>1077.999</ele>
        <time>2020-06-24T10:23:36Z</time>
      </trkpt>
      <trkpt lat="43.81754" lon="7.51234">
        <ele>1076.196</ele>
        <time>2020-06-24T10:23:52Z</time>
      </trkpt>
      <trkpt lat="43.81758" lon="7.51226">
        <ele>1074.561</ele>
        <time>2020-06-24T10:24:07Z</time>
      </trkpt>
      <trkpt lat="43.81778" lon="7.51221">
        <ele>1071.128</ele>
        <time>2020-06-24T10:24:22Z</time>
      </trkpt>
      <trkpt lat="43.81792" lon="7.51224">
        <ele>1068.505</ele>
        <time>2020-06-24T10:24:37Z</time>
      </trkpt>
      <trkpt lat="43.81808" lon="7.51216">
        <ele>1064.729</ele>
        <time>2020-06-24T10:24:53Z</time>
      </trkpt>
      <trkpt lat="43.81826" lon="7.51208">
        <ele>1062.302</ele>
        <time>2020-06-24T10:25:09Z</time>
      </trkpt>
      <trkpt lat="43.81838" lon="7.51193">
        <ele>1058.909</ele>
        <time>2020-06-24T10:25:25Z</time>
      </trkpt>
      <trkpt lat="43.81851" lon="7.51189">
        <ele>1055.11</ele>
        <time>2020-06-24T10:25:40Z</time>
      </trkpt>
      <trkpt lat="43.81857" lon="7.51179">
        <ele>1053.758</ele>
        <time>2020-06-24T10:25:56Z</time>
      </trkpt>
      <trkpt lat="43.81859" lon="7.5117">
        <ele>1052.953</ele>
        <time>2020-06-24T10:26:11Z</time>
      </trkpt>
      <trkpt lat="43.81857" lon="7.51162">
        <ele>1050.419</ele>
        <time>2020-06-24T10:26:27Z</time>
      </trkpt>
      <trkpt lat="43.81865" lon="7.51151">
        <ele>1048.732</ele>
        <time>2020-06-24T10:26:43Z</time>
      </trkpt>
      <trkpt lat="43.81865" lon="7.51144">
        <ele>1046.031</ele>
        <time>2020-06-24T10:26:58Z</time>
      </trkpt>
      <trkpt lat="43.81857" lon="7.51137">
        <ele>1043.313</ele>
        <time>2020-06-24T10:27:13Z</time>
      </trkpt>
      <trkpt lat="43.81846" lon="7.51132">
        <ele>1040.325</ele>
        <time>2020-06-24T10:27:28Z</time>
      </trkpt>
      <trkpt lat="43.81844" lon="7.51131">
        <ele>1039.494</ele>
        <time>2020-06-24T10:27:43Z</time>
      </trkpt>
      <trkpt lat="43.81835" lon="7.51115">
        <ele>1039.115</ele>
        <time>2020-06-24T10:27:59Z</time>
      </trkpt>
      <trkpt lat="43.81832" lon="7.51107">
        <ele>1037.808</ele>
        <time>2020-06-24T10:28:14Z</time>
      </trkpt>
      <trkpt lat="43.8183" lon="7.51098">
        <ele>1035.173</ele>
        <time>2020-06-24T10:28:29Z</time>
      </trkpt>
      <trkpt lat="43.81828" lon="7.51093">
        <ele>1034.251</ele>
        <time>2020-06-24T10:28:45Z</time>
      </trkpt>
      <trkpt lat="43.81816" lon="7.51066">
        <ele>1031.875</ele>
        <time>2020-06-24T10:29:00Z</time>
      </trkpt>
      <trkpt lat="43.81814" lon="7.51061">
        <ele>1030.703</ele>
        <time>2020-06-24T10:29:16Z</time>
      </trkpt>
      <trkpt lat="43.81805" lon="7.51044">
        <ele>1024.854</ele>
        <time>2020-06-24T10:29:32Z</time>
      </trkpt>
      <trkpt lat="43.81801" lon="7.51043">
        <ele>1024.488</ele>
        <time>2020-06-24T10:29:47Z</time>
      </trkpt>
      <trkpt lat="43.81791" lon="7.51029">
        <ele>1021.825</ele>
        <time>2020-06-24T10:30:02Z</time>
      </trkpt>
      <trkpt lat="43.81781" lon="7.51022">
        <ele>1019.448</ele>
        <time>2020-06-24T10:30:18Z</time>
      </trkpt>
      <trkpt lat="43.81784" lon="7.51009">
        <ele>1016.01</ele>
        <time>2020-06-24T10:30:33Z</time>
      </trkpt>
      <trkpt lat="43.81786" lon="7.50998">
        <ele>1014.784</ele>
        <time>2020-06-24T10:30:49Z</time>
      </trkpt>
      <trkpt lat="43.81801" lon="7.50987">
        <ele>1012.427</ele>
        <time>2020-06-24T10:31:04Z</time>
      </trkpt>
      <trkpt lat="43.81815" lon="7.50985">
        <ele>1009.02</ele>
        <time>2020-06-24T10:31:20Z</time>
      </trkpt>
      <trkpt lat="43.81828" lon="7.50978">
        <ele>1002.932</ele>
        <time>2020-06-24T10:31:36Z</time>
      </trkpt>
      <trkpt lat="43.81839" lon="7.50976">
        <ele>999.39</ele>
        <time>2020-06-24T10:31:51Z</time>
      </trkpt>
      <trkpt lat="43.8185" lon="7.5097">
        <ele>994.413</ele>
        <time>2020-06-24T10:32:07Z</time>
      </trkpt>
      <trkpt lat="43.81853" lon="7.50959">
        <ele>989.835</ele>
        <time>2020-06-24T10:32:23Z</time>
      </trkpt>
      <trkpt lat="43.81853" lon="7.50957">
        <ele>990.146</ele>
        <time>2020-06-24T10:32:38Z</time>
      </trkpt>
      <trkpt lat="43.81855" lon="7.50956">
        <ele>989.179</ele>
        <time>2020-06-24T10:32:54Z</time>
      </trkpt>
      <trkpt lat="43.81863" lon="7.50934">
        <ele>985.263</ele>
        <time>2020-06-24T10:33:09Z</time>
      </trkpt>
      <trkpt lat="43.81874" lon="7.50918">
        <ele>982.316</ele>
        <time>2020-06-24T10:33:24Z</time>
      </trkpt>
      <trkpt lat="43.81879" lon="7.5091">
        <ele>978.601</ele>
        <time>2020-06-24T10:33:40Z</time>
      </trkpt>
      <trkpt lat="43.81883" lon="7.50898">
        <ele>974.723</ele>
        <time>2020-06-24T10:33:56Z</time>
      </trkpt>
      <trkpt lat="43.81891" lon="7.50883">
        <ele>972.071</ele>
        <time>2020-06-24T10:34:11Z</time>
      </trkpt>
      <trkpt lat="43.81901" lon="7.50872">
        <ele>970.447</ele>
        <time>2020-06-24T10:34:26Z</time>
      </trkpt>
      <trkpt lat="43.81903" lon="7.50865">
        <ele>969.298</ele>
        <time>2020-06-24T10:34:41Z</time>
      </trkpt>
      <trkpt lat="43.81907" lon="7.50851">
        <ele>964.678</ele>
        <time>2020-06-24T10:34:57Z</time>
      </trkpt>
      <trkpt lat="43.81911" lon="7.50844">
        <ele>963.164</ele>
        <time>2020-06-24T10:35:13Z</time>
      </trkpt>
      <trkpt lat="43.81916" lon="7.50842">
        <ele>961.948</ele>
        <time>2020-06-24T10:35:28Z</time>
      </trkpt>
      <trkpt lat="43.8192" lon="7.50832">
        <ele>959.057</ele>
        <time>2020-06-24T10:35:44Z</time>
      </trkpt>
      <trkpt lat="43.8192" lon="7.50826">
        <ele>959.161</ele>
        <time>2020-06-24T10:36:00Z</time>
      </trkpt>
      <trkpt lat="43.8192" lon="7.50822">
        <ele>958.479</ele>
        <time>2020-06-24T10:36:16Z</time>
      </trkpt>
      <trkpt lat="43.81924" lon="7.5081">
        <ele>956.026</ele>
        <time>2020-06-24T10:36:32Z</time>
      </trkpt>
      <trkpt lat="43.81935" lon="7.50787">
        <ele>952.17</ele>
        <time>2020-06-24T10:36:48Z</time>
      </trkpt>
      <trkpt lat="43.81944" lon="7.50777">
        <ele>949.697</ele>
        <time>2020-06-24T10:37:03Z</time>
      </trkpt>
      <trkpt lat="43.81951" lon="7.50758">
        <ele>945.604</ele>
        <time>2020-06-24T10:37:19Z</time>
      </trkpt>
      <trkpt lat="43.81951" lon="7.50758">
        <ele>945.633</ele>
        <time>2020-06-24T10:37:34Z</time>
      </trkpt>
      <trkpt lat="43.81956" lon="7.5074">
        <ele>943.787</ele>
        <time>2020-06-24T10:37:50Z</time>
      </trkpt>
      <trkpt lat="43.81969" lon="7.50738">
        <ele>942.581</ele>
        <time>2020-06-24T10:38:06Z</time>
      </trkpt>
      <trkpt lat="43.81975" lon="7.50737">
        <ele>938.818</ele>
        <time>2020-06-24T10:38:21Z</time>
      </trkpt>
      <trkpt lat="43.81979" lon="7.50732">
        <ele>938.29</ele>
        <time>2020-06-24T10:38:37Z</time>
      </trkpt>
      <trkpt lat="43.8198" lon="7.50726">
        <ele>935.816</ele>
        <time>2020-06-24T10:38:53Z</time>
      </trkpt>
      <trkpt lat="43.81983" lon="7.50719">
        <ele>929.195</ele>
        <time>2020-06-24T10:39:08Z</time>
      </trkpt>
      <trkpt lat="43.81982" lon="7.50701">
        <ele>924.138</ele>
        <time>2020-06-24T10:39:24Z</time>
      </trkpt>
      <trkpt lat="43.81983" lon="7.50689">
        <ele>924.049</ele>
        <time>2020-06-24T10:39:40Z</time>
      </trkpt>
      <trkpt lat="43.81985" lon="7.50679">
        <ele>921.461</ele>
        <time>2020-06-24T10:39:56Z</time>
      </trkpt>
      <trkpt lat="43.81982" lon="7.50663">
        <ele>915.985</ele>
        <time>2020-06-24T10:40:11Z</time>
      </trkpt>
      <trkpt lat="43.81981" lon="7.5065">
        <ele>912.563</ele>
        <time>2020-06-24T10:40:27Z</time>
      </trkpt>
      <trkpt lat="43.81991" lon="7.50637">
        <ele>910.579</ele>
        <time>2020-06-24T10:40:43Z</time>
      </trkpt>
      <trkpt lat="43.81996" lon="7.50636">
        <ele>909.526</ele>
        <time>2020-06-24T10:40:58Z</time>
      </trkpt>
      <trkpt lat="43.8201" lon="7.50631">
        <ele>908.341</ele>
        <time>2020-06-24T10:41:13Z</time>
      </trkpt>
      <trkpt lat="43.8202" lon="7.50627">
        <ele>904.685</ele>
        <time>2020-06-24T10:41:29Z</time>
      </trkpt>
      <trkpt lat="43.82025" lon="7.50624">
        <ele>901.845</ele>
        <time>2020-06-24T10:41:45Z</time>
      </trkpt>
      <trkpt lat="43.82042" lon="7.50613">
        <ele>899.951</ele>
        <time>2020-06-24T10:42:01Z</time>
      </trkpt>
      <trkpt lat="43.82053" lon="7.50609">
        <ele>897.205</ele>
        <time>2020-06-24T10:42:16Z</time>
      </trkpt>
      <trkpt lat="43.82071" lon="7.50603">
        <ele>896.639</ele>
        <time>2020-06-24T10:42:32Z</time>
      </trkpt>
      <trkpt lat="43.8209" lon="7.50593">
        <ele>894.27</ele>
        <time>2020-06-24T10:42:48Z</time>
      </trkpt>
      <trkpt lat="43.82099" lon="7.50586">
        <ele>891.758</ele>
        <time>2020-06-24T10:43:03Z</time>
      </trkpt>
      <trkpt lat="43.82105" lon="7.50582">
        <ele>888.884</ele>
        <time>2020-06-24T10:43:19Z</time>
      </trkpt>
      <trkpt lat="43.8212" lon="7.50584">
        <ele>884.857</ele>
        <time>2020-06-24T10:43:35Z</time>
      </trkpt>
      <trkpt lat="43.82124" lon="7.50597">
        <ele>883.589</ele>
        <time>2020-06-24T10:43:51Z</time>
      </trkpt>
      <trkpt lat="43.82129" lon="7.50594">
        <ele>883.628</ele>
        <time>2020-06-24T10:44:07Z</time>
      </trkpt>
      <trkpt lat="43.82137" lon="7.50591">
        <ele>883.427</ele>
        <time>2020-06-24T10:44:22Z</time>
      </trkpt>
      <trkpt lat="43.82152" lon="7.50576">
        <ele>883.662</ele>
        <time>2020-06-24T10:44:37Z</time>
      </trkpt>
      <trkpt lat="43.82168" lon="7.50565">
        <ele>880.298</ele>
        <time>2020-06-24T10:44:53Z</time>
      </trkpt>
      <trkpt lat="43.82171" lon="7.50546">
        <ele>874.003</ele>
        <time>2020-06-24T10:45:08Z</time>
      </trkpt>
      <trkpt lat="43.82161" lon="7.50532">
        <ele>873.878</ele>
        <time>2020-06-24T10:45:24Z</time>
      </trkpt>
      <trkpt lat="43.82167" lon="7.50503">
        <ele>868.721</ele>
        <time>2020-06-24T10:45:40Z</time>
      </trkpt>
      <trkpt lat="43.82173" lon="7.5049">
        <ele>867.51</ele>
        <time>2020-06-24T10:45:55Z</time>
      </trkpt>
      <trkpt lat="43.82173" lon="7.5049">
        <ele>867.51</ele>
        <time>2020-06-24T10:46:11Z</time>
      </trkpt>
      <trkpt lat="43.82175" lon="7.50479">
        <ele>865.792</ele>
        <time>2020-06-24T10:46:27Z</time>
      </trkpt>
      <trkpt lat="43.82175" lon="7.50479">
        <ele>865.792</ele>
        <time>2020-06-24T10:46:43Z</time>
      </trkpt>
      <trkpt lat="43.82175" lon="7.50479">
        <ele>865.792</ele>
        <time>2020-06-24T10:46:59Z</time>
      </trkpt>
      <trkpt lat="43.82175" lon="7.50479">
        <ele>865.792</ele>
        <time>2020-06-24T10:47:16Z</time>
      </trkpt>
      <trkpt lat="43.82175" lon="7.50479">
        <ele>865.792</ele>
        <time>2020-06-24T10:47:31Z</time>
      </trkpt>
      <trkpt lat="43.8218" lon="7.50463">
        <ele>863.003</ele>
        <time>2020-06-24T10:47:46Z</time>
      </trkpt>
      <trkpt lat="43.82188" lon="7.50446">
        <ele>860.55</ele>
        <time>2020-06-24T10:48:02Z</time>
      </trkpt>
      <trkpt lat="43.82191" lon="7.50448">
        <ele>860.302</ele>
        <time>2020-06-24T10:48:17Z</time>
      </trkpt>
      <trkpt lat="43.82191" lon="7.50448">
        <ele>860.302</ele>
        <time>2020-06-24T10:48:33Z</time>
      </trkpt>
      <trkpt lat="43.82192" lon="7.5045">
        <ele>859.27</ele>
        <time>2020-06-24T10:48:48Z</time>
      </trkpt>
      <trkpt lat="43.82195" lon="7.5045">
        <ele>858.49</ele>
        <time>2020-06-24T10:49:04Z</time>
      </trkpt>
      <trkpt lat="43.82195" lon="7.5045">
        <ele>858.49</ele>
        <time>2020-06-24T10:49:19Z</time>
      </trkpt>
      <trkpt lat="43.82195" lon="7.50449">
        <ele>858.192</ele>
        <time>2020-06-24T10:49:35Z</time>
      </trkpt>
      <trkpt lat="43.82195" lon="7.50449">
        <ele>858.192</ele>
        <time>2020-06-24T10:49:51Z</time>
      </trkpt>
      <trkpt lat="43.82195" lon="7.50449">
        <ele>858.192</ele>
        <time>2020-06-24T10:50:06Z</time>
      </trkpt>
      <trkpt lat="43.82195" lon="7.50449">
        <ele>858.192</ele>
        <time>2020-06-24T10:50:21Z</time>
      </trkpt>
      <trkpt lat="43.82195" lon="7.50449">
        <ele>858.192</ele>
        <time>2020-06-24T10:50:36Z</time>
      </trkpt>
      <trkpt lat="43.82195" lon="7.50449">
        <ele>858.192</ele>
        <time>2020-06-24T10:50:52Z</time>
      </trkpt>
      <trkpt lat="43.82195" lon="7.50449">
        <ele>858.192</ele>
        <time>2020-06-24T10:51:07Z</time>
      </trkpt>
      <trkpt lat="43.82195" lon="7.50449">
        <ele>858.192</ele>
        <time>2020-06-24T10:51:23Z</time>
      </trkpt>
      <trkpt lat="43.82195" lon="7.50449">
        <ele>858.192</ele>
        <time>2020-06-24T10:51:39Z</time>
      </trkpt>
      <trkpt lat="43.82194" lon="7.50448">
        <ele>857.852</ele>
        <time>2020-06-24T10:51:55Z</time>
      </trkpt>
      <trkpt lat="43.82194" lon="7.50448">
        <ele>857.852</ele>
        <time>2020-06-24T10:52:10Z</time>
      </trkpt>
      <trkpt lat="43.82194" lon="7.50448">
        <ele>857.852</ele>
        <time>2020-06-24T10:52:26Z</time>
      </trkpt>
      <trkpt lat="43.82194" lon="7.50448">
        <ele>857.852</ele>
        <time>2020-06-24T10:52:42Z</time>
      </trkpt>
      <trkpt lat="43.82194" lon="7.50448">
        <ele>857.852</ele>
        <time>2020-06-24T10:52:58Z</time>
      </trkpt>
      <trkpt lat="43.82194" lon="7.50448">
        <ele>857.852</ele>
        <time>2020-06-24T10:53:13Z</time>
      </trkpt>
      <trkpt lat="43.82194" lon="7.50448">
        <ele>857.852</ele>
        <time>2020-06-24T10:53:29Z</time>
      </trkpt>
      <trkpt lat="43.82194" lon="7.50448">
        <ele>857.852</ele>
        <time>2020-06-24T10:53:45Z</time>
      </trkpt>
      <trkpt lat="43.82194" lon="7.50448">
        <ele>857.852</ele>
        <time>2020-06-24T10:54:00Z</time>
      </trkpt>
      <trkpt lat="43.82194" lon="7.50445">
        <ele>859.095</ele>
        <time>2020-06-24T10:54:15Z</time>
      </trkpt>
      <trkpt lat="43.82194" lon="7.50445">
        <ele>859.095</ele>
        <time>2020-06-24T10:54:30Z</time>
      </trkpt>
      <trkpt lat="43.82194" lon="7.50445">
        <ele>859.095</ele>
        <time>2020-06-24T10:54:46Z</time>
      </trkpt>
      <trkpt lat="43.82194" lon="7.50445">
        <ele>859.095</ele>
        <time>2020-06-24T10:55:01Z</time>
      </trkpt>
      <trkpt lat="43.82194" lon="7.50445">
        <ele>859.095</ele>
        <time>2020-06-24T10:55:17Z</time>
      </trkpt>
      <trkpt lat="43.82194" lon="7.50445">
        <ele>859.095</ele>
        <time>2020-06-24T10:55:32Z</time>
      </trkpt>
      <trkpt lat="43.82194" lon="7.50445">
        <ele>859.095</ele>
        <time>2020-06-24T10:55:48Z</time>
      </trkpt>
      <trkpt lat="43.82194" lon="7.50445">
        <ele>859.095</ele>
        <time>2020-06-24T10:56:04Z</time>
      </trkpt>
      <trkpt lat="43.82194" lon="7.50445">
        <ele>859.095</ele>
        <time>2020-06-24T10:56:20Z</time>
      </trkpt>
      <trkpt lat="43.82194" lon="7.50445">
        <ele>859.095</ele>
        <time>2020-06-24T10:56:35Z</time>
      </trkpt>
      <trkpt lat="43.82194" lon="7.50445">
        <ele>859.095</ele>
        <time>2020-06-24T10:56:51Z</time>
      </trkpt>
      <trkpt lat="43.82194" lon="7.50445">
        <ele>859.095</ele>
        <time>2020-06-24T10:57:07Z</time>
      </trkpt>
      <trkpt lat="43.82194" lon="7.50445">
        <ele>859.095</ele>
        <time>2020-06-24T10:57:23Z</time>
      </trkpt>
      <trkpt lat="43.82194" lon="7.50445">
        <ele>859.095</ele>
        <time>2020-06-24T10:57:39Z</time>
      </trkpt>
      <trkpt lat="43.82194" lon="7.50445">
        <ele>859.095</ele>
        <time>2020-06-24T10:57:54Z</time>
      </trkpt>
      <trkpt lat="43.82193" lon="7.50445">
        <ele>858.835</ele>
        <time>2020-06-24T10:58:09Z</time>
      </trkpt>
      <trkpt lat="43.82193" lon="7.50446">
        <ele>858.872</ele>
        <time>2020-06-24T10:58:25Z</time>
      </trkpt>
      <trkpt lat="43.82193" lon="7.50446">
        <ele>858.872</ele>
        <time>2020-06-24T10:58:41Z</time>
      </trkpt>
      <trkpt lat="43.82193" lon="7.50446">
        <ele>858.872</ele>
        <time>2020-06-24T10:58:57Z</time>
      </trkpt>
      <trkpt lat="43.82193" lon="7.50446">
        <ele>858.872</ele>
        <time>2020-06-24T10:59:12Z</time>
      </trkpt>
      <trkpt lat="43.82193" lon="7.50446">
        <ele>858.872</ele>
        <time>2020-06-24T10:59:28Z</time>
      </trkpt>
      <trkpt lat="43.82193" lon="7.50446">
        <ele>858.872</ele>
        <time>2020-06-24T10:59:44Z</time>
      </trkpt>
      <trkpt lat="43.82193" lon="7.50446">
        <ele>858.872</ele>
        <time>2020-06-24T10:59:59Z</time>
      </trkpt>
      <trkpt lat="43.82193" lon="7.50446">
        <ele>858.872</ele>
        <time>2020-06-24T11:00:15Z</time>
      </trkpt>
      <trkpt lat="43.82193" lon="7.50446">
        <ele>858.872</ele>
        <time>2020-06-24T11:00:30Z</time>
      </trkpt>
      <trkpt lat="43.82193" lon="7.50446">
        <ele>858.872</ele>
        <time>2020-06-24T11:00:45Z</time>
      </trkpt>
      <trkpt lat="43.82193" lon="7.50448">
        <ele>859.249</ele>
        <time>2020-06-24T11:01:00Z</time>
      </trkpt>
      <trkpt lat="43.82193" lon="7.50448">
        <ele>859.249</ele>
        <time>2020-06-24T11:01:16Z</time>
      </trkpt>
      <trkpt lat="43.82193" lon="7.50448">
        <ele>859.249</ele>
        <time>2020-06-24T11:01:31Z</time>
      </trkpt>
      <trkpt lat="43.8219" lon="7.50447">
        <ele>858.371</ele>
        <time>2020-06-24T11:01:46Z</time>
      </trkpt>
      <trkpt lat="43.8219" lon="7.50447">
        <ele>858.516</ele>
        <time>2020-06-24T11:02:02Z</time>
      </trkpt>
      <trkpt lat="43.8219" lon="7.50447">
        <ele>858.516</ele>
        <time>2020-06-24T11:02:18Z</time>
      </trkpt>
      <trkpt lat="43.8219" lon="7.50447">
        <ele>858.516</ele>
        <time>2020-06-24T11:02:33Z</time>
      </trkpt>
      <trkpt lat="43.8219" lon="7.50447">
        <ele>858.516</ele>
        <time>2020-06-24T11:02:49Z</time>
      </trkpt>
      <trkpt lat="43.8219" lon="7.50447">
        <ele>858.516</ele>
        <time>2020-06-24T11:03:05Z</time>
      </trkpt>
      <trkpt lat="43.8219" lon="7.50447">
        <ele>858.516</ele>
        <time>2020-06-24T11:03:21Z</time>
      </trkpt>
      <trkpt lat="43.8219" lon="7.50447">
        <ele>858.516</ele>
        <time>2020-06-24T11:03:37Z</time>
      </trkpt>
      <trkpt lat="43.8219" lon="7.50447">
        <ele>858.516</ele>
        <time>2020-06-24T11:03:52Z</time>
      </trkpt>
      <trkpt lat="43.8219" lon="7.50447">
        <ele>858.516</ele>
        <time>2020-06-24T11:04:07Z</time>
      </trkpt>
      <trkpt lat="43.8219" lon="7.50447">
        <ele>858.516</ele>
        <time>2020-06-24T11:04:23Z</time>
      </trkpt>
      <trkpt lat="43.8219" lon="7.50447">
        <ele>858.516</ele>
        <time>2020-06-24T11:04:38Z</time>
      </trkpt>
      <trkpt lat="43.8219" lon="7.50447">
        <ele>858.516</ele>
        <time>2020-06-24T11:04:53Z</time>
      </trkpt>
      <trkpt lat="43.8219" lon="7.50447">
        <ele>858.516</ele>
        <time>2020-06-24T11:05:09Z</time>
      </trkpt>
      <trkpt lat="43.8219" lon="7.50447">
        <ele>858.516</ele>
        <time>2020-06-24T11:05:24Z</time>
      </trkpt>
      <trkpt lat="43.8219" lon="7.50447">
        <ele>858.516</ele>
        <time>2020-06-24T11:05:39Z</time>
      </trkpt>
      <trkpt lat="43.8219" lon="7.50447">
        <ele>858.516</ele>
        <time>2020-06-24T11:05:55Z</time>
      </trkpt>
      <trkpt lat="43.8219" lon="7.50447">
        <ele>858.516</ele>
        <time>2020-06-24T11:06:11Z</time>
      </trkpt>
      <trkpt lat="43.8219" lon="7.50446">
        <ele>858.279</ele>
        <time>2020-06-24T11:06:27Z</time>
      </trkpt>
      <trkpt lat="43.8219" lon="7.50446">
        <ele>858.279</ele>
        <time>2020-06-24T11:06:42Z</time>
      </trkpt>
      <trkpt lat="43.8219" lon="7.50446">
        <ele>858.279</ele>
        <time>2020-06-24T11:06:58Z</time>
      </trkpt>
      <trkpt lat="43.82191" lon="7.50446">
        <ele>857.478</ele>
        <time>2020-06-24T11:07:13Z</time>
      </trkpt>
      <trkpt lat="43.82192" lon="7.50445">
        <ele>856.912</ele>
        <time>2020-06-24T11:07:28Z</time>
      </trkpt>
      <trkpt lat="43.82192" lon="7.50445">
        <ele>856.912</ele>
        <time>2020-06-24T11:07:43Z</time>
      </trkpt>
      <trkpt lat="43.82192" lon="7.50445">
        <ele>856.912</ele>
        <time>2020-06-24T11:07:59Z</time>
      </trkpt>
      <trkpt lat="43.82192" lon="7.50445">
        <ele>856.976</ele>
        <time>2020-06-24T11:08:14Z</time>
      </trkpt>
      <trkpt lat="43.82193" lon="7.50447">
        <ele>856.1</ele>
        <time>2020-06-24T11:08:29Z</time>
      </trkpt>
      <trkpt lat="43.82193" lon="7.50447">
        <ele>856.1</ele>
        <time>2020-06-24T11:08:45Z</time>
      </trkpt>
      <trkpt lat="43.82191" lon="7.50449">
        <ele>872.98</ele>
        <time>2020-06-24T11:14:40Z</time>
      </trkpt>
      <trkpt lat="43.8219" lon="7.50446">
        <ele>843.462</ele>
        <time>2020-06-24T11:14:55Z</time>
      </trkpt>
      <trkpt lat="43.82193" lon="7.50447">
        <ele>840.203</ele>
        <time>2020-06-24T11:15:10Z</time>
      </trkpt>
      <trkpt lat="43.82193" lon="7.50447">
        <ele>840.203</ele>
        <time>2020-06-24T11:15:26Z</time>
      </trkpt>
      <trkpt lat="43.82193" lon="7.50447">
        <ele>840.203</ele>
        <time>2020-06-24T11:15:41Z</time>
      </trkpt>
      <trkpt lat="43.82193" lon="7.50447">
        <ele>840.203</ele>
        <time>2020-06-24T11:15:57Z</time>
      </trkpt>
      <trkpt lat="43.82193" lon="7.50447">
        <ele>840.203</ele>
        <time>2020-06-24T11:16:12Z</time>
      </trkpt>
      <trkpt lat="43.82193" lon="7.50447">
        <ele>840.203</ele>
        <time>2020-06-24T11:16:28Z</time>
      </trkpt>
      <trkpt lat="43.82193" lon="7.50447">
        <ele>840.203</ele>
        <time>2020-06-24T11:16:43Z</time>
      </trkpt>
      <trkpt lat="43.82193" lon="7.50447">
        <ele>840.203</ele>
        <time>2020-06-24T11:16:59Z</time>
      </trkpt>
      <trkpt lat="43.82193" lon="7.50447">
        <ele>840.203</ele>
        <time>2020-06-24T11:17:15Z</time>
      </trkpt>
      <trkpt lat="43.82195" lon="7.50449">
        <ele>840.412</ele>
        <time>2020-06-24T11:17:31Z</time>
      </trkpt>
      <trkpt lat="43.82195" lon="7.50449">
        <ele>840.412</ele>
        <time>2020-06-24T11:17:47Z</time>
      </trkpt>
      <trkpt lat="43.82195" lon="7.50449">
        <ele>840.412</ele>
        <time>2020-06-24T11:18:02Z</time>
      </trkpt>
      <trkpt lat="43.82199" lon="7.50452">
        <ele>841.315</ele>
        <time>2020-06-24T11:18:18Z</time>
      </trkpt>
      <trkpt lat="43.82216" lon="7.50465">
        <ele>841.8</ele>
        <time>2020-06-24T11:18:34Z</time>
      </trkpt>
      <trkpt lat="43.82228" lon="7.50483">
        <ele>839.936</ele>
        <time>2020-06-24T11:18:49Z</time>
      </trkpt>
      <trkpt lat="43.82235" lon="7.50495">
        <ele>840.775</ele>
        <time>2020-06-24T11:19:05Z</time>
      </trkpt>
      <trkpt lat="43.82243" lon="7.50509">
        <ele>843.041</ele>
        <time>2020-06-24T11:19:21Z</time>
      </trkpt>
      <trkpt lat="43.8225" lon="7.50517">
        <ele>844.938</ele>
        <time>2020-06-24T11:19:37Z</time>
      </trkpt>
      <trkpt lat="43.8225" lon="7.50517">
        <ele>844.938</ele>
        <time>2020-06-24T11:19:52Z</time>
      </trkpt>
      <trkpt lat="43.82268" lon="7.5054">
        <ele>845.385</ele>
        <time>2020-06-24T11:20:07Z</time>
      </trkpt>
      <trkpt lat="43.82275" lon="7.50549">
        <ele>845.215</ele>
        <time>2020-06-24T11:20:22Z</time>
      </trkpt>
      <trkpt lat="43.82285" lon="7.50562">
        <ele>845.851</ele>
        <time>2020-06-24T11:20:38Z</time>
      </trkpt>
      <trkpt lat="43.82296" lon="7.50573">
        <ele>851.685</ele>
        <time>2020-06-24T11:20:53Z</time>
      </trkpt>
      <trkpt lat="43.82312" lon="7.50591">
        <ele>855.378</ele>
        <time>2020-06-24T11:21:08Z</time>
      </trkpt>
      <trkpt lat="43.82329" lon="7.50606">
        <ele>855.223</ele>
        <time>2020-06-24T11:21:24Z</time>
      </trkpt>
      <trkpt lat="43.82346" lon="7.50619">
        <ele>856.633</ele>
        <time>2020-06-24T11:21:40Z</time>
      </trkpt>
      <trkpt lat="43.82363" lon="7.50627">
        <ele>857.923</ele>
        <time>2020-06-24T11:21:56Z</time>
      </trkpt>
      <trkpt lat="43.82375" lon="7.50636">
        <ele>860.563</ele>
        <time>2020-06-24T11:22:12Z</time>
      </trkpt>
      <trkpt lat="43.82391" lon="7.50636">
        <ele>862.968</ele>
        <time>2020-06-24T11:22:28Z</time>
      </trkpt>
      <trkpt lat="43.82392" lon="7.50635">
        <ele>862.857</ele>
        <time>2020-06-24T11:22:43Z</time>
      </trkpt>
      <trkpt lat="43.82405" lon="7.50634">
        <ele>863.336</ele>
        <time>2020-06-24T11:22:58Z</time>
      </trkpt>
      <trkpt lat="43.82426" lon="7.50622">
        <ele>862.376</ele>
        <time>2020-06-24T11:23:14Z</time>
      </trkpt>
      <trkpt lat="43.82447" lon="7.50615">
        <ele>858.896</ele>
        <time>2020-06-24T11:23:30Z</time>
      </trkpt>
      <trkpt lat="43.82463" lon="7.50604">
        <ele>857.09</ele>
        <time>2020-06-24T11:23:46Z</time>
      </trkpt>
      <trkpt lat="43.82478" lon="7.50598">
        <ele>857.786</ele>
        <time>2020-06-24T11:24:02Z</time>
      </trkpt>
      <trkpt lat="43.82497" lon="7.50595">
        <ele>858.057</ele>
        <time>2020-06-24T11:24:18Z</time>
      </trkpt>
      <trkpt lat="43.82516" lon="7.50591">
        <ele>856.959</ele>
        <time>2020-06-24T11:24:33Z</time>
      </trkpt>
      <trkpt lat="43.82532" lon="7.50586">
        <ele>857.15</ele>
        <time>2020-06-24T11:24:49Z</time>
      </trkpt>
      <trkpt lat="43.82552" lon="7.50576">
        <ele>857.007</ele>
        <time>2020-06-24T11:25:05Z</time>
      </trkpt>
      <trkpt lat="43.82555" lon="7.50575">
        <ele>857.079</ele>
        <time>2020-06-24T11:25:20Z</time>
      </trkpt>
      <trkpt lat="43.82555" lon="7.50575">
        <ele>857.079</ele>
        <time>2020-06-24T11:25:36Z</time>
      </trkpt>
      <trkpt lat="43.82555" lon="7.50575">
        <ele>857.079</ele>
        <time>2020-06-24T11:25:51Z</time>
      </trkpt>
      <trkpt lat="43.82555" lon="7.50575">
        <ele>857.079</ele>
        <time>2020-06-24T11:26:06Z</time>
      </trkpt>
      <trkpt lat="43.82555" lon="7.50575">
        <ele>857.079</ele>
        <time>2020-06-24T11:26:22Z</time>
      </trkpt>
      <trkpt lat="43.82576" lon="7.5056">
        <ele>858.53</ele>
        <time>2020-06-24T11:26:38Z</time>
      </trkpt>
      <trkpt lat="43.82594" lon="7.50552">
        <ele>858.214</ele>
        <time>2020-06-24T11:26:53Z</time>
      </trkpt>
      <trkpt lat="43.82609" lon="7.50539">
        <ele>858.267</ele>
        <time>2020-06-24T11:27:09Z</time>
      </trkpt>
      <trkpt lat="43.82628" lon="7.50535">
        <ele>858.602</ele>
        <time>2020-06-24T11:27:25Z</time>
      </trkpt>
      <trkpt lat="43.82645" lon="7.50523">
        <ele>855.863</ele>
        <time>2020-06-24T11:27:40Z</time>
      </trkpt>
      <trkpt lat="43.8266" lon="7.50506">
        <ele>852.348</ele>
        <time>2020-06-24T11:27:56Z</time>
      </trkpt>
      <trkpt lat="43.82673" lon="7.50483">
        <ele>848.587</ele>
        <time>2020-06-24T11:28:12Z</time>
      </trkpt>
      <trkpt lat="43.82679" lon="7.50461">
        <ele>847.417</ele>
        <time>2020-06-24T11:28:28Z</time>
      </trkpt>
      <trkpt lat="43.82678" lon="7.50448">
        <ele>847.252</ele>
        <time>2020-06-24T11:28:43Z</time>
      </trkpt>
      <trkpt lat="43.82678" lon="7.50439">
        <ele>847.628</ele>
        <time>2020-06-24T11:28:58Z</time>
      </trkpt>
      <trkpt lat="43.82676" lon="7.50434">
        <ele>850.476</ele>
        <time>2020-06-24T11:29:13Z</time>
      </trkpt>
      <trkpt lat="43.82676" lon="7.50434">
        <ele>850.476</ele>
        <time>2020-06-24T11:29:29Z</time>
      </trkpt>
      <trkpt lat="43.82676" lon="7.50434">
        <ele>850.476</ele>
        <time>2020-06-24T11:29:45Z</time>
      </trkpt>
      <trkpt lat="43.82678" lon="7.50433">
        <ele>852.138</ele>
        <time>2020-06-24T11:30:00Z</time>
      </trkpt>
      <trkpt lat="43.82678" lon="7.50433">
        <ele>852.138</ele>
        <time>2020-06-24T11:30:16Z</time>
      </trkpt>
      <trkpt lat="43.82678" lon="7.50433">
        <ele>852.138</ele>
        <time>2020-06-24T11:30:31Z</time>
      </trkpt>
      <trkpt lat="43.82691" lon="7.50416">
        <ele>856.492</ele>
        <time>2020-06-24T11:30:47Z</time>
      </trkpt>
      <trkpt lat="43.82694" lon="7.50417">
        <ele>856.421</ele>
        <time>2020-06-24T11:31:02Z</time>
      </trkpt>
      <trkpt lat="43.827" lon="7.5042">
        <ele>857.534</ele>
        <time>2020-06-24T11:31:17Z</time>
      </trkpt>
      <trkpt lat="43.82705" lon="7.50427">
        <ele>861.179</ele>
        <time>2020-06-24T11:31:32Z</time>
      </trkpt>
      <trkpt lat="43.82716" lon="7.50438">
        <ele>865.727</ele>
        <time>2020-06-24T11:31:47Z</time>
      </trkpt>
      <trkpt lat="43.82732" lon="7.50452">
        <ele>869.315</ele>
        <time>2020-06-24T11:32:03Z</time>
      </trkpt>
      <trkpt lat="43.82747" lon="7.50457">
        <ele>873.54</ele>
        <time>2020-06-24T11:32:18Z</time>
      </trkpt>
      <trkpt lat="43.82754" lon="7.5046">
        <ele>875.421</ele>
        <time>2020-06-24T11:32:34Z</time>
      </trkpt>
      <trkpt lat="43.82764" lon="7.5047">
        <ele>878.21</ele>
        <time>2020-06-24T11:32:49Z</time>
      </trkpt>
      <trkpt lat="43.82767" lon="7.50473">
        <ele>879.361</ele>
        <time>2020-06-24T11:33:05Z</time>
      </trkpt>
      <trkpt lat="43.82772" lon="7.50473">
        <ele>882.433</ele>
        <time>2020-06-24T11:33:21Z</time>
      </trkpt>
      <trkpt lat="43.82776" lon="7.50475">
        <ele>883.409</ele>
        <time>2020-06-24T11:33:36Z</time>
      </trkpt>
      <trkpt lat="43.82786" lon="7.50482">
        <ele>885.094</ele>
        <time>2020-06-24T11:33:52Z</time>
      </trkpt>
      <trkpt lat="43.82795" lon="7.50486">
        <ele>885.952</ele>
        <time>2020-06-24T11:34:08Z</time>
      </trkpt>
      <trkpt lat="43.82795" lon="7.50486">
        <ele>885.952</ele>
        <time>2020-06-24T11:34:23Z</time>
      </trkpt>
      <trkpt lat="43.82795" lon="7.50486">
        <ele>885.952</ele>
        <time>2020-06-24T11:34:38Z</time>
      </trkpt>
      <trkpt lat="43.82795" lon="7.50486">
        <ele>885.952</ele>
        <time>2020-06-24T11:34:54Z</time>
      </trkpt>
      <trkpt lat="43.82795" lon="7.50486">
        <ele>885.952</ele>
        <time>2020-06-24T11:35:10Z</time>
      </trkpt>
      <trkpt lat="43.82795" lon="7.50486">
        <ele>885.952</ele>
        <time>2020-06-24T11:35:25Z</time>
      </trkpt>
      <trkpt lat="43.82795" lon="7.50486">
        <ele>885.952</ele>
        <time>2020-06-24T11:35:41Z</time>
      </trkpt>
      <trkpt lat="43.82795" lon="7.50486">
        <ele>885.952</ele>
        <time>2020-06-24T11:35:56Z</time>
      </trkpt>
      <trkpt lat="43.82795" lon="7.50486">
        <ele>885.952</ele>
        <time>2020-06-24T11:36:11Z</time>
      </trkpt>
      <trkpt lat="43.82798" lon="7.50488">
        <ele>884.699</ele>
        <time>2020-06-24T11:36:27Z</time>
      </trkpt>
      <trkpt lat="43.82798" lon="7.50488">
        <ele>884.699</ele>
        <time>2020-06-24T11:36:42Z</time>
      </trkpt>
      <trkpt lat="43.82798" lon="7.50488">
        <ele>884.699</ele>
        <time>2020-06-24T11:36:58Z</time>
      </trkpt>
      <trkpt lat="43.82803" lon="7.505">
        <ele>883.838</ele>
        <time>2020-06-24T11:37:14Z</time>
      </trkpt>
      <trkpt lat="43.82803" lon="7.50493">
        <ele>883.953</ele>
        <time>2020-06-24T11:37:29Z</time>
      </trkpt>
      <trkpt lat="43.82802" lon="7.50494">
        <ele>885.832</ele>
        <time>2020-06-24T11:37:45Z</time>
      </trkpt>
      <trkpt lat="43.82802" lon="7.50495">
        <ele>886.517</ele>
        <time>2020-06-24T11:38:01Z</time>
      </trkpt>
      <trkpt lat="43.82802" lon="7.50495">
        <ele>886.517</ele>
        <time>2020-06-24T11:38:16Z</time>
      </trkpt>
      <trkpt lat="43.82805" lon="7.50501">
        <ele>887.395</ele>
        <time>2020-06-24T11:38:32Z</time>
      </trkpt>
      <trkpt lat="43.82805" lon="7.50501">
        <ele>887.395</ele>
        <time>2020-06-24T11:38:48Z</time>
      </trkpt>
      <trkpt lat="43.82805" lon="7.50501">
        <ele>887.395</ele>
        <time>2020-06-24T11:39:04Z</time>
      </trkpt>
      <trkpt lat="43.82805" lon="7.50501">
        <ele>887.395</ele>
        <time>2020-06-24T11:39:20Z</time>
      </trkpt>
      <trkpt lat="43.82805" lon="7.50501">
        <ele>887.395</ele>
        <time>2020-06-24T11:39:36Z</time>
      </trkpt>
      <trkpt lat="43.82805" lon="7.50501">
        <ele>887.395</ele>
        <time>2020-06-24T11:39:51Z</time>
      </trkpt>
      <trkpt lat="43.82805" lon="7.50501">
        <ele>887.395</ele>
        <time>2020-06-24T11:40:06Z</time>
      </trkpt>
      <trkpt lat="43.82805" lon="7.50501">
        <ele>887.395</ele>
        <time>2020-06-24T11:40:22Z</time>
      </trkpt>
      <trkpt lat="43.82805" lon="7.50501">
        <ele>887.395</ele>
        <time>2020-06-24T11:40:38Z</time>
      </trkpt>
      <trkpt lat="43.82804" lon="7.50497">
        <ele>889.849</ele>
        <time>2020-06-24T11:40:53Z</time>
      </trkpt>
      <trkpt lat="43.82804" lon="7.50497">
        <ele>889.849</ele>
        <time>2020-06-24T11:41:08Z</time>
      </trkpt>
      <trkpt lat="43.82804" lon="7.50497">
        <ele>889.849</ele>
        <time>2020-06-24T11:41:23Z</time>
      </trkpt>
      <trkpt lat="43.82804" lon="7.50497">
        <ele>889.849</ele>
        <time>2020-06-24T11:41:39Z</time>
      </trkpt>
      <trkpt lat="43.82804" lon="7.50497">
        <ele>889.849</ele>
        <time>2020-06-24T11:41:55Z</time>
      </trkpt>
      <trkpt lat="43.82804" lon="7.50497">
        <ele>889.849</ele>
        <time>2020-06-24T11:42:11Z</time>
      </trkpt>
      <trkpt lat="43.82804" lon="7.50497">
        <ele>889.849</ele>
        <time>2020-06-24T11:42:27Z</time>
      </trkpt>
      <trkpt lat="43.82804" lon="7.50497">
        <ele>889.849</ele>
        <time>2020-06-24T11:42:42Z</time>
      </trkpt>
      <trkpt lat="43.82804" lon="7.50497">
        <ele>889.849</ele>
        <time>2020-06-24T11:42:58Z</time>
      </trkpt>
      <trkpt lat="43.82804" lon="7.50497">
        <ele>889.849</ele>
        <time>2020-06-24T11:43:14Z</time>
      </trkpt>
      <trkpt lat="43.82804" lon="7.50497">
        <ele>889.849</ele>
        <time>2020-06-24T11:43:29Z</time>
      </trkpt>
      <trkpt lat="43.82804" lon="7.50497">
        <ele>889.849</ele>
        <time>2020-06-24T11:43:45Z</time>
      </trkpt>
      <trkpt lat="43.82804" lon="7.50497">
        <ele>889.849</ele>
        <time>2020-06-24T11:44:01Z</time>
      </trkpt>
      <trkpt lat="43.82804" lon="7.50497">
        <ele>889.849</ele>
        <time>2020-06-24T11:44:16Z</time>
      </trkpt>
      <trkpt lat="43.82807" lon="7.50497">
        <ele>888.731</ele>
        <time>2020-06-24T11:44:32Z</time>
      </trkpt>
      <trkpt lat="43.82807" lon="7.50497">
        <ele>888.731</ele>
        <time>2020-06-24T11:44:47Z</time>
      </trkpt>
      <trkpt lat="43.82807" lon="7.50497">
        <ele>888.731</ele>
        <time>2020-06-24T11:45:02Z</time>
      </trkpt>
      <trkpt lat="43.82804" lon="7.50496">
        <ele>890.756</ele>
        <time>2020-06-24T11:45:21Z</time>
      </trkpt>
      <trkpt lat="43.82804" lon="7.50496">
        <ele>890.756</ele>
        <time>2020-06-24T11:45:36Z</time>
      </trkpt>
      <trkpt lat="43.82804" lon="7.50496">
        <ele>890.756</ele>
        <time>2020-06-24T11:45:51Z</time>
      </trkpt>
      <trkpt lat="43.82804" lon="7.50496">
        <ele>890.756</ele>
        <time>2020-06-24T11:46:07Z</time>
      </trkpt>
      <trkpt lat="43.82804" lon="7.50496">
        <ele>890.756</ele>
        <time>2020-06-24T11:46:22Z</time>
      </trkpt>
      <trkpt lat="43.82804" lon="7.50496">
        <ele>890.756</ele>
        <time>2020-06-24T11:46:37Z</time>
      </trkpt>
      <trkpt lat="43.82804" lon="7.50496">
        <ele>890.756</ele>
        <time>2020-06-24T11:46:53Z</time>
      </trkpt>
      <trkpt lat="43.82804" lon="7.50496">
        <ele>890.756</ele>
        <time>2020-06-24T11:47:09Z</time>
      </trkpt>
      <trkpt lat="43.82801" lon="7.50489">
        <ele>892.055</ele>
        <time>2020-06-24T11:47:25Z</time>
      </trkpt>
      <trkpt lat="43.82792" lon="7.50486">
        <ele>895.29</ele>
        <time>2020-06-24T11:47:40Z</time>
      </trkpt>
      <trkpt lat="43.82788" lon="7.50478">
        <ele>897.494</ele>
        <time>2020-06-24T11:47:56Z</time>
      </trkpt>
      <trkpt lat="43.82785" lon="7.50469">
        <ele>899.102</ele>
        <time>2020-06-24T11:48:12Z</time>
      </trkpt>
      <trkpt lat="43.82785" lon="7.50469">
        <ele>899.102</ele>
        <time>2020-06-24T11:48:28Z</time>
      </trkpt>
      <trkpt lat="43.82778" lon="7.50453">
        <ele>906.227</ele>
        <time>2020-06-24T11:48:43Z</time>
      </trkpt>
      <trkpt lat="43.82786" lon="7.50442">
        <ele>905.293</ele>
        <time>2020-06-24T11:48:58Z</time>
      </trkpt>
      <trkpt lat="43.8279" lon="7.5044">
        <ele>905.681</ele>
        <time>2020-06-24T11:49:13Z</time>
      </trkpt>
      <trkpt lat="43.8279" lon="7.5044">
        <ele>905.681</ele>
        <time>2020-06-24T11:49:29Z</time>
      </trkpt>
      <trkpt lat="43.82803" lon="7.50436">
        <ele>908.915</ele>
        <time>2020-06-24T11:49:44Z</time>
      </trkpt>
      <trkpt lat="43.82807" lon="7.50437">
        <ele>910.272</ele>
        <time>2020-06-24T11:50:00Z</time>
      </trkpt>
      <trkpt lat="43.82809" lon="7.50436">
        <ele>910.165</ele>
        <time>2020-06-24T11:50:15Z</time>
      </trkpt>
      <trkpt lat="43.82824" lon="7.50439">
        <ele>911.56</ele>
        <time>2020-06-24T11:50:31Z</time>
      </trkpt>
      <trkpt lat="43.82829" lon="7.50438">
        <ele>913.474</ele>
        <time>2020-06-24T11:50:47Z</time>
      </trkpt>
      <trkpt lat="43.82828" lon="7.50434">
        <ele>918.254</ele>
        <time>2020-06-24T11:51:02Z</time>
      </trkpt>
      <trkpt lat="43.82832" lon="7.50434">
        <ele>919.868</ele>
        <time>2020-06-24T11:51:18Z</time>
      </trkpt>
      <trkpt lat="43.82835" lon="7.50432">
        <ele>920.849</ele>
        <time>2020-06-24T11:51:33Z</time>
      </trkpt>
      <trkpt lat="43.82835" lon="7.50432">
        <ele>920.849</ele>
        <time>2020-06-24T11:51:49Z</time>
      </trkpt>
      <trkpt lat="43.82849" lon="7.50425">
        <ele>921.04</ele>
        <time>2020-06-24T11:52:04Z</time>
      </trkpt>
      <trkpt lat="43.82849" lon="7.50425">
        <ele>932.49</ele>
        <time>2020-06-24T11:52:19Z</time>
      </trkpt>
      <trkpt lat="43.82853" lon="7.5042">
        <ele>932.783</ele>
        <time>2020-06-24T11:52:35Z</time>
      </trkpt>
      <trkpt lat="43.82858" lon="7.50418">
        <ele>933.036</ele>
        <time>2020-06-24T11:52:51Z</time>
      </trkpt>
      <trkpt lat="43.82858" lon="7.50418">
        <ele>933.036</ele>
        <time>2020-06-24T11:53:07Z</time>
      </trkpt>
      <trkpt lat="43.82872" lon="7.50412">
        <ele>933.332</ele>
        <time>2020-06-24T11:53:22Z</time>
      </trkpt>
      <trkpt lat="43.82886" lon="7.50406">
        <ele>934.938</ele>
        <time>2020-06-24T11:53:38Z</time>
      </trkpt>
      <trkpt lat="43.82898" lon="7.50401">
        <ele>936.512</ele>
        <time>2020-06-24T11:53:54Z</time>
      </trkpt>
      <trkpt lat="43.82898" lon="7.50401">
        <ele>936.512</ele>
        <time>2020-06-24T11:54:10Z</time>
      </trkpt>
      <trkpt lat="43.82916" lon="7.50397">
        <ele>939.386</ele>
        <time>2020-06-24T11:54:25Z</time>
      </trkpt>
      <trkpt lat="43.82916" lon="7.50397">
        <ele>939.386</ele>
        <time>2020-06-24T11:54:41Z</time>
      </trkpt>
      <trkpt lat="43.82927" lon="7.50393">
        <ele>940.454</ele>
        <time>2020-06-24T11:54:56Z</time>
      </trkpt>
      <trkpt lat="43.82941" lon="7.50379">
        <ele>940.539</ele>
        <time>2020-06-24T11:55:11Z</time>
      </trkpt>
      <trkpt lat="43.82953" lon="7.50372">
        <ele>948.26</ele>
        <time>2020-06-24T11:55:27Z</time>
      </trkpt>
      <trkpt lat="43.82962" lon="7.50373">
        <ele>952.061</ele>
        <time>2020-06-24T11:55:42Z</time>
      </trkpt>
      <trkpt lat="43.82969" lon="7.50371">
        <ele>954.706</ele>
        <time>2020-06-24T11:55:58Z</time>
      </trkpt>
      <trkpt lat="43.8298" lon="7.50366">
        <ele>959.914</ele>
        <time>2020-06-24T11:56:14Z</time>
      </trkpt>
      <trkpt lat="43.8298" lon="7.50366">
        <ele>959.914</ele>
        <time>2020-06-24T11:56:29Z</time>
      </trkpt>
      <trkpt lat="43.82988" lon="7.50363">
        <ele>962.018</ele>
        <time>2020-06-24T11:56:45Z</time>
      </trkpt>
      <trkpt lat="43.8301" lon="7.50361">
        <ele>966.419</ele>
        <time>2020-06-24T11:57:01Z</time>
      </trkpt>
      <trkpt lat="43.83018" lon="7.50358">
        <ele>970.471</ele>
        <time>2020-06-24T11:57:17Z</time>
      </trkpt>
      <trkpt lat="43.83023" lon="7.50357">
        <ele>973.823</ele>
        <time>2020-06-24T11:57:32Z</time>
      </trkpt>
      <trkpt lat="43.83023" lon="7.50357">
        <ele>973.823</ele>
        <time>2020-06-24T11:57:48Z</time>
      </trkpt>
      <trkpt lat="43.83023" lon="7.50357">
        <ele>973.823</ele>
        <time>2020-06-24T11:58:03Z</time>
      </trkpt>
      <trkpt lat="43.83034" lon="7.50349">
        <ele>974.131</ele>
        <time>2020-06-24T11:58:19Z</time>
      </trkpt>
      <trkpt lat="43.83054" lon="7.50352">
        <ele>977.718</ele>
        <time>2020-06-24T11:58:35Z</time>
      </trkpt>
      <trkpt lat="43.83055" lon="7.50352">
        <ele>977.989</ele>
        <time>2020-06-24T11:58:50Z</time>
      </trkpt>
      <trkpt lat="43.83068" lon="7.50349">
        <ele>980.019</ele>
        <time>2020-06-24T11:59:05Z</time>
      </trkpt>
      <trkpt lat="43.83076" lon="7.50344">
        <ele>983.63</ele>
        <time>2020-06-24T11:59:21Z</time>
      </trkpt>
      <trkpt lat="43.83085" lon="7.50342">
        <ele>985.661</ele>
        <time>2020-06-24T11:59:37Z</time>
      </trkpt>
      <trkpt lat="43.83096" lon="7.5034">
        <ele>987.437</ele>
        <time>2020-06-24T11:59:53Z</time>
      </trkpt>
      <trkpt lat="43.83096" lon="7.5034">
        <ele>987.437</ele>
        <time>2020-06-24T12:00:08Z</time>
      </trkpt>
      <trkpt lat="43.83096" lon="7.5034">
        <ele>987.437</ele>
        <time>2020-06-24T12:00:23Z</time>
      </trkpt>
      <trkpt lat="43.83111" lon="7.50337">
        <ele>990.249</ele>
        <time>2020-06-24T12:00:39Z</time>
      </trkpt>
      <trkpt lat="43.8312" lon="7.50335">
        <ele>990.972</ele>
        <time>2020-06-24T12:00:55Z</time>
      </trkpt>
      <trkpt lat="43.83134" lon="7.50334">
        <ele>992.741</ele>
        <time>2020-06-24T12:01:11Z</time>
      </trkpt>
      <trkpt lat="43.83141" lon="7.50333">
        <ele>995.36</ele>
        <time>2020-06-24T12:01:26Z</time>
      </trkpt>
      <trkpt lat="43.8315" lon="7.50329">
        <ele>997.693</ele>
        <time>2020-06-24T12:01:42Z</time>
      </trkpt>
      <trkpt lat="43.8317" lon="7.50333">
        <ele>1002.256</ele>
        <time>2020-06-24T12:01:57Z</time>
      </trkpt>
      <trkpt lat="43.8318" lon="7.50335">
        <ele>1005.73</ele>
        <time>2020-06-24T12:02:13Z</time>
      </trkpt>
      <trkpt lat="43.83183" lon="7.50335">
        <ele>1005.893</ele>
        <time>2020-06-24T12:02:29Z</time>
      </trkpt>
      <trkpt lat="43.83191" lon="7.5033">
        <ele>1004.559</ele>
        <time>2020-06-24T12:02:44Z</time>
      </trkpt>
      <trkpt lat="43.83195" lon="7.50329">
        <ele>1005.166</ele>
        <time>2020-06-24T12:02:59Z</time>
      </trkpt>
      <trkpt lat="43.83199" lon="7.50323">
        <ele>1005.417</ele>
        <time>2020-06-24T12:03:15Z</time>
      </trkpt>
      <trkpt lat="43.83226" lon="7.50313">
        <ele>1006.675</ele>
        <time>2020-06-24T12:03:31Z</time>
      </trkpt>
      <trkpt lat="43.8325" lon="7.50311">
        <ele>1013.451</ele>
        <time>2020-06-24T12:03:47Z</time>
      </trkpt>
      <trkpt lat="43.83267" lon="7.50302">
        <ele>1011.315</ele>
        <time>2020-06-24T12:04:03Z</time>
      </trkpt>
      <trkpt lat="43.83285" lon="7.5031">
        <ele>1016.653</ele>
        <time>2020-06-24T12:04:19Z</time>
      </trkpt>
      <trkpt lat="43.83291" lon="7.50317">
        <ele>1016.929</ele>
        <time>2020-06-24T12:04:35Z</time>
      </trkpt>
      <trkpt lat="43.83294" lon="7.50319">
        <ele>1020.354</ele>
        <time>2020-06-24T12:04:51Z</time>
      </trkpt>
      <trkpt lat="43.83302" lon="7.50318">
        <ele>1021.657</ele>
        <time>2020-06-24T12:05:07Z</time>
      </trkpt>
      <trkpt lat="43.83323" lon="7.50317">
        <ele>1021.948</ele>
        <time>2020-06-24T12:05:23Z</time>
      </trkpt>
      <trkpt lat="43.83338" lon="7.50326">
        <ele>1022.036</ele>
        <time>2020-06-24T12:05:39Z</time>
      </trkpt>
      <trkpt lat="43.83362" lon="7.50329">
        <ele>1024.162</ele>
        <time>2020-06-24T12:05:54Z</time>
      </trkpt>
      <trkpt lat="43.83377" lon="7.50332">
        <ele>1026.04</ele>
        <time>2020-06-24T12:06:10Z</time>
      </trkpt>
      <trkpt lat="43.83385" lon="7.50328">
        <ele>1027.123</ele>
        <time>2020-06-24T12:06:25Z</time>
      </trkpt>
      <trkpt lat="43.83392" lon="7.50329">
        <ele>1028.186</ele>
        <time>2020-06-24T12:06:40Z</time>
      </trkpt>
      <trkpt lat="43.83404" lon="7.50332">
        <ele>1027.758</ele>
        <time>2020-06-24T12:06:56Z</time>
      </trkpt>
      <trkpt lat="43.83423" lon="7.50334">
        <ele>1030.167</ele>
        <time>2020-06-24T12:07:12Z</time>
      </trkpt>
      <trkpt lat="43.83444" lon="7.50344">
        <ele>1035.48</ele>
        <time>2020-06-24T12:07:28Z</time>
      </trkpt>
      <trkpt lat="43.83459" lon="7.50351">
        <ele>1034.567</ele>
        <time>2020-06-24T12:07:44Z</time>
      </trkpt>
      <trkpt lat="43.83467" lon="7.50353">
        <ele>1035.371</ele>
        <time>2020-06-24T12:07:59Z</time>
      </trkpt>
      <trkpt lat="43.83477" lon="7.50352">
        <ele>1037.156</ele>
        <time>2020-06-24T12:08:14Z</time>
      </trkpt>
      <trkpt lat="43.83489" lon="7.50354">
        <ele>1037.743</ele>
        <time>2020-06-24T12:08:29Z</time>
      </trkpt>
      <trkpt lat="43.83511" lon="7.50362">
        <ele>1039.506</ele>
        <time>2020-06-24T12:08:45Z</time>
      </trkpt>
      <trkpt lat="43.83528" lon="7.50362">
        <ele>1040.763</ele>
        <time>2020-06-24T12:09:01Z</time>
      </trkpt>
      <trkpt lat="43.83537" lon="7.5036">
        <ele>1040.972</ele>
        <time>2020-06-24T12:09:16Z</time>
      </trkpt>
      <trkpt lat="43.83553" lon="7.50357">
        <ele>1040.657</ele>
        <time>2020-06-24T12:09:31Z</time>
      </trkpt>
      <trkpt lat="43.83562" lon="7.50348">
        <ele>1043.827</ele>
        <time>2020-06-24T12:09:47Z</time>
      </trkpt>
      <trkpt lat="43.83574" lon="7.50344">
        <ele>1045.374</ele>
        <time>2020-06-24T12:10:03Z</time>
      </trkpt>
      <trkpt lat="43.83582" lon="7.50342">
        <ele>1046.238</ele>
        <time>2020-06-24T12:10:18Z</time>
      </trkpt>
      <trkpt lat="43.8359" lon="7.50344">
        <ele>1046.951</ele>
        <time>2020-06-24T12:10:33Z</time>
      </trkpt>
      <trkpt lat="43.83594" lon="7.50345">
        <ele>1049.396</ele>
        <time>2020-06-24T12:10:49Z</time>
      </trkpt>
      <trkpt lat="43.83605" lon="7.50345">
        <ele>1051.036</ele>
        <time>2020-06-24T12:11:05Z</time>
      </trkpt>
      <trkpt lat="43.83605" lon="7.50345">
        <ele>1051.036</ele>
        <time>2020-06-24T12:11:21Z</time>
      </trkpt>
      <trkpt lat="43.83605" lon="7.50345">
        <ele>1051.036</ele>
        <time>2020-06-24T12:11:36Z</time>
      </trkpt>
      <trkpt lat="43.83605" lon="7.50345">
        <ele>1051.036</ele>
        <time>2020-06-24T12:11:52Z</time>
      </trkpt>
      <trkpt lat="43.83605" lon="7.50345">
        <ele>1051.036</ele>
        <time>2020-06-24T12:12:08Z</time>
      </trkpt>
      <trkpt lat="43.83605" lon="7.50345">
        <ele>1051.036</ele>
        <time>2020-06-24T12:12:23Z</time>
      </trkpt>
      <trkpt lat="43.83605" lon="7.50345">
        <ele>1051.036</ele>
        <time>2020-06-24T12:12:39Z</time>
      </trkpt>
      <trkpt lat="43.83605" lon="7.50345">
        <ele>1051.036</ele>
        <time>2020-06-24T12:12:55Z</time>
      </trkpt>
      <trkpt lat="43.83605" lon="7.50345">
        <ele>1051.036</ele>
        <time>2020-06-24T12:13:11Z</time>
      </trkpt>
      <trkpt lat="43.83605" lon="7.50345">
        <ele>1051.036</ele>
        <time>2020-06-24T12:13:26Z</time>
      </trkpt>
      <trkpt lat="43.83606" lon="7.50346">
        <ele>1052.762</ele>
        <time>2020-06-24T12:13:42Z</time>
      </trkpt>
      <trkpt lat="43.83606" lon="7.50346">
        <ele>1052.762</ele>
        <time>2020-06-24T12:13:58Z</time>
      </trkpt>
      <trkpt lat="43.83606" lon="7.50346">
        <ele>1052.762</ele>
        <time>2020-06-24T12:14:14Z</time>
      </trkpt>
      <trkpt lat="43.83612" lon="7.50343">
        <ele>1054.197</ele>
        <time>2020-06-24T12:14:30Z</time>
      </trkpt>
      <trkpt lat="43.83627" lon="7.50342">
        <ele>1057.3</ele>
        <time>2020-06-24T12:14:46Z</time>
      </trkpt>
      <trkpt lat="43.83642" lon="7.50345">
        <ele>1058.47</ele>
        <time>2020-06-24T12:15:02Z</time>
      </trkpt>
      <trkpt lat="43.83647" lon="7.50346">
        <ele>1061.749</ele>
        <time>2020-06-24T12:15:18Z</time>
      </trkpt>
      <trkpt lat="43.83647" lon="7.50346">
        <ele>1062.048</ele>
        <time>2020-06-24T12:15:33Z</time>
      </trkpt>
      <trkpt lat="43.83647" lon="7.50346">
        <ele>1062.048</ele>
        <time>2020-06-24T12:15:48Z</time>
      </trkpt>
      <trkpt lat="43.83661" lon="7.50341">
        <ele>1063.384</ele>
        <time>2020-06-24T12:16:04Z</time>
      </trkpt>
      <trkpt lat="43.83687" lon="7.5033">
        <ele>1067.954</ele>
        <time>2020-06-24T12:16:20Z</time>
      </trkpt>
      <trkpt lat="43.83696" lon="7.50327">
        <ele>1067.667</ele>
        <time>2020-06-24T12:16:35Z</time>
      </trkpt>
      <trkpt lat="43.83704" lon="7.50327">
        <ele>1067.29</ele>
        <time>2020-06-24T12:16:51Z</time>
      </trkpt>
      <trkpt lat="43.83704" lon="7.50327">
        <ele>1067.29</ele>
        <time>2020-06-24T12:17:07Z</time>
      </trkpt>
      <trkpt lat="43.83723" lon="7.50319">
        <ele>1069.283</ele>
        <time>2020-06-24T12:17:23Z</time>
      </trkpt>
      <trkpt lat="43.8373" lon="7.50315">
        <ele>1070.924</ele>
        <time>2020-06-24T12:17:38Z</time>
      </trkpt>
      <trkpt lat="43.83742" lon="7.50313">
        <ele>1072.539</ele>
        <time>2020-06-24T12:17:54Z</time>
      </trkpt>
      <trkpt lat="43.83746" lon="7.50311">
        <ele>1072.95</ele>
        <time>2020-06-24T12:18:09Z</time>
      </trkpt>
      <trkpt lat="43.83766" lon="7.50309">
        <ele>1074.07</ele>
        <time>2020-06-24T12:18:25Z</time>
      </trkpt>
      <trkpt lat="43.83778" lon="7.50304">
        <ele>1079.457</ele>
        <time>2020-06-24T12:18:40Z</time>
      </trkpt>
      <trkpt lat="43.83782" lon="7.50303">
        <ele>1082.285</ele>
        <time>2020-06-24T12:18:56Z</time>
      </trkpt>
      <trkpt lat="43.83782" lon="7.50303">
        <ele>1082.285</ele>
        <time>2020-06-24T12:19:12Z</time>
      </trkpt>
      <trkpt lat="43.83795" lon="7.50297">
        <ele>1086.859</ele>
        <time>2020-06-24T12:19:27Z</time>
      </trkpt>
      <trkpt lat="43.83805" lon="7.50291">
        <ele>1090.818</ele>
        <time>2020-06-24T12:19:43Z</time>
      </trkpt>
      <trkpt lat="43.83818" lon="7.50282">
        <ele>1094.843</ele>
        <time>2020-06-24T12:19:58Z</time>
      </trkpt>
      <trkpt lat="43.83828" lon="7.50279">
        <ele>1099.682</ele>
        <time>2020-06-24T12:20:13Z</time>
      </trkpt>
      <trkpt lat="43.83843" lon="7.50277">
        <ele>1102.69</ele>
        <time>2020-06-24T12:20:29Z</time>
      </trkpt>
      <trkpt lat="43.83851" lon="7.50276">
        <ele>1102.911</ele>
        <time>2020-06-24T12:20:45Z</time>
      </trkpt>
      <trkpt lat="43.83866" lon="7.50277">
        <ele>1101.742</ele>
        <time>2020-06-24T12:21:01Z</time>
      </trkpt>
      <trkpt lat="43.83871" lon="7.50272">
        <ele>1110.949</ele>
        <time>2020-06-24T12:21:16Z</time>
      </trkpt>
      <trkpt lat="43.8388" lon="7.50271">
        <ele>1110.734</ele>
        <time>2020-06-24T12:21:32Z</time>
      </trkpt>
      <trkpt lat="43.83893" lon="7.50273">
        <ele>1113.5</ele>
        <time>2020-06-24T12:21:48Z</time>
      </trkpt>
      <trkpt lat="43.83909" lon="7.50275">
        <ele>1114.619</ele>
        <time>2020-06-24T12:22:04Z</time>
      </trkpt>
      <trkpt lat="43.83915" lon="7.50267">
        <ele>1123.558</ele>
        <time>2020-06-24T12:22:20Z</time>
      </trkpt>
      <trkpt lat="43.83922" lon="7.50262">
        <ele>1127.348</ele>
        <time>2020-06-24T12:22:36Z</time>
      </trkpt>
      <trkpt lat="43.83921" lon="7.5026">
        <ele>1127.831</ele>
        <time>2020-06-24T12:22:52Z</time>
      </trkpt>
      <trkpt lat="43.83921" lon="7.50259">
        <ele>1126.943</ele>
        <time>2020-06-24T12:23:08Z</time>
      </trkpt>
      <trkpt lat="43.83927" lon="7.50254">
        <ele>1127.614</ele>
        <time>2020-06-24T12:23:24Z</time>
      </trkpt>
      <trkpt lat="43.83944" lon="7.50243">
        <ele>1129.891</ele>
        <time>2020-06-24T12:23:40Z</time>
      </trkpt>
      <trkpt lat="43.83958" lon="7.50233">
        <ele>1131.152</ele>
        <time>2020-06-24T12:23:55Z</time>
      </trkpt>
      <trkpt lat="43.83971" lon="7.50218">
        <ele>1131.207</ele>
        <time>2020-06-24T12:24:11Z</time>
      </trkpt>
      <trkpt lat="43.83987" lon="7.50206">
        <ele>1130.666</ele>
        <time>2020-06-24T12:24:27Z</time>
      </trkpt>
      <trkpt lat="43.83998" lon="7.50198">
        <ele>1129.284</ele>
        <time>2020-06-24T12:24:42Z</time>
      </trkpt>
      <trkpt lat="43.84017" lon="7.50191">
        <ele>1124.661</ele>
        <time>2020-06-24T12:24:58Z</time>
      </trkpt>
      <trkpt lat="43.84032" lon="7.50177">
        <ele>1124.774</ele>
        <time>2020-06-24T12:25:13Z</time>
      </trkpt>
      <trkpt lat="43.84043" lon="7.50166">
        <ele>1128.077</ele>
        <time>2020-06-24T12:25:29Z</time>
      </trkpt>
      <trkpt lat="43.84059" lon="7.50158">
        <ele>1128.221</ele>
        <time>2020-06-24T12:25:45Z</time>
      </trkpt>
      <trkpt lat="43.84069" lon="7.50154">
        <ele>1131.913</ele>
        <time>2020-06-24T12:26:00Z</time>
      </trkpt>
      <trkpt lat="43.84069" lon="7.50154">
        <ele>1132.168</ele>
        <time>2020-06-24T12:26:15Z</time>
      </trkpt>
      <trkpt lat="43.84076" lon="7.50153">
        <ele>1134.091</ele>
        <time>2020-06-24T12:26:31Z</time>
      </trkpt>
      <trkpt lat="43.84079" lon="7.50154">
        <ele>1135.467</ele>
        <time>2020-06-24T12:26:47Z</time>
      </trkpt>
      <trkpt lat="43.84079" lon="7.50154">
        <ele>1135.467</ele>
        <time>2020-06-24T12:27:02Z</time>
      </trkpt>
      <trkpt lat="43.84091" lon="7.50153">
        <ele>1136.766</ele>
        <time>2020-06-24T12:27:17Z</time>
      </trkpt>
      <trkpt lat="43.84114" lon="7.50156">
        <ele>1143.758</ele>
        <time>2020-06-24T12:27:33Z</time>
      </trkpt>
      <trkpt lat="43.84121" lon="7.50155">
        <ele>1144.361</ele>
        <time>2020-06-24T12:27:49Z</time>
      </trkpt>
      <trkpt lat="43.84135" lon="7.50161">
        <ele>1145.185</ele>
        <time>2020-06-24T12:28:04Z</time>
      </trkpt>
      <trkpt lat="43.84135" lon="7.50161">
        <ele>1145.185</ele>
        <time>2020-06-24T12:28:20Z</time>
      </trkpt>
      <trkpt lat="43.84153" lon="7.50155">
        <ele>1146.332</ele>
        <time>2020-06-24T12:28:35Z</time>
      </trkpt>
      <trkpt lat="43.84165" lon="7.50152">
        <ele>1148.762</ele>
        <time>2020-06-24T12:28:50Z</time>
      </trkpt>
      <trkpt lat="43.84169" lon="7.50151">
        <ele>1150.569</ele>
        <time>2020-06-24T12:29:06Z</time>
      </trkpt>
      <trkpt lat="43.84194" lon="7.50149">
        <ele>1152.037</ele>
        <time>2020-06-24T12:29:22Z</time>
      </trkpt>
      <trkpt lat="43.84205" lon="7.50143">
        <ele>1155.9</ele>
        <time>2020-06-24T12:29:37Z</time>
      </trkpt>
      <trkpt lat="43.8422" lon="7.50138">
        <ele>1161.436</ele>
        <time>2020-06-24T12:29:52Z</time>
      </trkpt>
      <trkpt lat="43.84228" lon="7.50139">
        <ele>1161.384</ele>
        <time>2020-06-24T12:30:08Z</time>
      </trkpt>
      <trkpt lat="43.84242" lon="7.50135">
        <ele>1159.96</ele>
        <time>2020-06-24T12:30:23Z</time>
      </trkpt>
      <trkpt lat="43.84254" lon="7.50128">
        <ele>1162.073</ele>
        <time>2020-06-24T12:30:39Z</time>
      </trkpt>
      <trkpt lat="43.84254" lon="7.50127">
        <ele>1162.312</ele>
        <time>2020-06-24T12:30:55Z</time>
      </trkpt>
      <trkpt lat="43.84254" lon="7.50127">
        <ele>1162.312</ele>
        <time>2020-06-24T12:31:11Z</time>
      </trkpt>
      <trkpt lat="43.84254" lon="7.50129">
        <ele>1161.27</ele>
        <time>2020-06-24T12:31:27Z</time>
      </trkpt>
      <trkpt lat="43.84255" lon="7.50133">
        <ele>1160.101</ele>
        <time>2020-06-24T12:31:43Z</time>
      </trkpt>
      <trkpt lat="43.84256" lon="7.50127">
        <ele>1161.344</ele>
        <time>2020-06-24T12:31:59Z</time>
      </trkpt>
      <trkpt lat="43.84263" lon="7.5011">
        <ele>1159.21</ele>
        <time>2020-06-24T12:32:14Z</time>
      </trkpt>
      <trkpt lat="43.84268" lon="7.50094">
        <ele>1159.624</ele>
        <time>2020-06-24T12:32:30Z</time>
      </trkpt>
      <trkpt lat="43.84278" lon="7.50086">
        <ele>1159.995</ele>
        <time>2020-06-24T12:32:46Z</time>
      </trkpt>
      <trkpt lat="43.8429" lon="7.50074">
        <ele>1158.953</ele>
        <time>2020-06-24T12:33:02Z</time>
      </trkpt>
      <trkpt lat="43.84306" lon="7.50055">
        <ele>1158.377</ele>
        <time>2020-06-24T12:33:18Z</time>
      </trkpt>
      <trkpt lat="43.84318" lon="7.50044">
        <ele>1155.228</ele>
        <time>2020-06-24T12:33:33Z</time>
      </trkpt>
      <trkpt lat="43.84321" lon="7.50034">
        <ele>1153.885</ele>
        <time>2020-06-24T12:33:49Z</time>
      </trkpt>
      <trkpt lat="43.84321" lon="7.50034">
        <ele>1153.885</ele>
        <time>2020-06-24T12:34:04Z</time>
      </trkpt>
      <trkpt lat="43.84337" lon="7.50028">
        <ele>1152.723</ele>
        <time>2020-06-24T12:34:20Z</time>
      </trkpt>
      <trkpt lat="43.84337" lon="7.50028">
        <ele>1152.723</ele>
        <time>2020-06-24T12:34:35Z</time>
      </trkpt>
      <trkpt lat="43.84356" lon="7.50015">
        <ele>1151.047</ele>
        <time>2020-06-24T12:34:50Z</time>
      </trkpt>
      <trkpt lat="43.84368" lon="7.49999">
        <ele>1148.245</ele>
        <time>2020-06-24T12:35:06Z</time>
      </trkpt>
      <trkpt lat="43.84377" lon="7.49982">
        <ele>1144.14</ele>
        <time>2020-06-24T12:35:22Z</time>
      </trkpt>
      <trkpt lat="43.84383" lon="7.49969">
        <ele>1140.977</ele>
        <time>2020-06-24T12:35:37Z</time>
      </trkpt>
      <trkpt lat="43.84396" lon="7.49959">
        <ele>1137.371</ele>
        <time>2020-06-24T12:35:53Z</time>
      </trkpt>
      <trkpt lat="43.84401" lon="7.49956">
        <ele>1134.872</ele>
        <time>2020-06-24T12:36:09Z</time>
      </trkpt>
      <trkpt lat="43.84407" lon="7.49947">
        <ele>1133.239</ele>
        <time>2020-06-24T12:36:25Z</time>
      </trkpt>
      <trkpt lat="43.84407" lon="7.49947">
        <ele>1133.239</ele>
        <time>2020-06-24T12:36:41Z</time>
      </trkpt>
      <trkpt lat="43.84407" lon="7.49947">
        <ele>1133.239</ele>
        <time>2020-06-24T12:36:57Z</time>
      </trkpt>
      <trkpt lat="43.84411" lon="7.49941">
        <ele>1132.749</ele>
        <time>2020-06-24T12:37:13Z</time>
      </trkpt>
      <trkpt lat="43.84418" lon="7.49931">
        <ele>1131.783</ele>
        <time>2020-06-24T12:37:29Z</time>
      </trkpt>
      <trkpt lat="43.84419" lon="7.49917">
        <ele>1126.51</ele>
        <time>2020-06-24T12:37:45Z</time>
      </trkpt>
      <trkpt lat="43.84427" lon="7.49885">
        <ele>1120.593</ele>
        <time>2020-06-24T12:38:01Z</time>
      </trkpt>
      <trkpt lat="43.84433" lon="7.49861">
        <ele>1116.791</ele>
        <time>2020-06-24T12:38:17Z</time>
      </trkpt>
      <trkpt lat="43.84436" lon="7.49839">
        <ele>1113.779</ele>
        <time>2020-06-24T12:38:33Z</time>
      </trkpt>
      <trkpt lat="43.84438" lon="7.49831">
        <ele>1115.172</ele>
        <time>2020-06-24T12:38:49Z</time>
      </trkpt>
      <trkpt lat="43.84441" lon="7.49814">
        <ele>1113.328</ele>
        <time>2020-06-24T12:39:05Z</time>
      </trkpt>
      <trkpt lat="43.84443" lon="7.49802">
        <ele>1110.867</ele>
        <time>2020-06-24T12:39:20Z</time>
      </trkpt>
      <trkpt lat="43.84452" lon="7.49777">
        <ele>1108.306</ele>
        <time>2020-06-24T12:39:36Z</time>
      </trkpt>
      <trkpt lat="43.8446" lon="7.4976">
        <ele>1102.9</ele>
        <time>2020-06-24T12:39:52Z</time>
      </trkpt>
      <trkpt lat="43.84467" lon="7.49751">
        <ele>1101.303</ele>
        <time>2020-06-24T12:40:07Z</time>
      </trkpt>
      <trkpt lat="43.84476" lon="7.49736">
        <ele>1101.202</ele>
        <time>2020-06-24T12:40:22Z</time>
      </trkpt>
      <trkpt lat="43.84489" lon="7.4972">
        <ele>1097.604</ele>
        <time>2020-06-24T12:40:38Z</time>
      </trkpt>
      <trkpt lat="43.84495" lon="7.49699">
        <ele>1094.836</ele>
        <time>2020-06-24T12:40:54Z</time>
      </trkpt>
      <trkpt lat="43.84498" lon="7.49685">
        <ele>1092.742</ele>
        <time>2020-06-24T12:41:10Z</time>
      </trkpt>
      <trkpt lat="43.84505" lon="7.49668">
        <ele>1091.436</ele>
        <time>2020-06-24T12:41:25Z</time>
      </trkpt>
      <trkpt lat="43.84515" lon="7.49649">
        <ele>1091.09</ele>
        <time>2020-06-24T12:41:41Z</time>
      </trkpt>
      <trkpt lat="43.84527" lon="7.49633">
        <ele>1089.832</ele>
        <time>2020-06-24T12:41:56Z</time>
      </trkpt>
      <trkpt lat="43.84537" lon="7.49617">
        <ele>1089.19</ele>
        <time>2020-06-24T12:42:12Z</time>
      </trkpt>
      <trkpt lat="43.84547" lon="7.49596">
        <ele>1088.433</ele>
        <time>2020-06-24T12:42:28Z</time>
      </trkpt>
      <trkpt lat="43.84554" lon="7.49578">
        <ele>1086.069</ele>
        <time>2020-06-24T12:42:44Z</time>
      </trkpt>
      <trkpt lat="43.84562" lon="7.49557">
        <ele>1083.904</ele>
        <time>2020-06-24T12:43:00Z</time>
      </trkpt>
      <trkpt lat="43.84564" lon="7.49543">
        <ele>1083.768</ele>
        <time>2020-06-24T12:43:15Z</time>
      </trkpt>
      <trkpt lat="43.84573" lon="7.49526">
        <ele>1083.861</ele>
        <time>2020-06-24T12:43:31Z</time>
      </trkpt>
      <trkpt lat="43.84573" lon="7.49521">
        <ele>1082.68</ele>
        <time>2020-06-24T12:43:46Z</time>
      </trkpt>
      <trkpt lat="43.84576" lon="7.49511">
        <ele>1082.668</ele>
        <time>2020-06-24T12:44:02Z</time>
      </trkpt>
      <trkpt lat="43.8458" lon="7.49493">
        <ele>1081.15</ele>
        <time>2020-06-24T12:44:17Z</time>
      </trkpt>
      <trkpt lat="43.84583" lon="7.49471">
        <ele>1077.21</ele>
        <time>2020-06-24T12:44:32Z</time>
      </trkpt>
      <trkpt lat="43.84589" lon="7.4945">
        <ele>1074.476</ele>
        <time>2020-06-24T12:44:48Z</time>
      </trkpt>
      <trkpt lat="43.84594" lon="7.49432">
        <ele>1071.715</ele>
        <time>2020-06-24T12:45:04Z</time>
      </trkpt>
      <trkpt lat="43.84598" lon="7.49413">
        <ele>1071.686</ele>
        <time>2020-06-24T12:45:19Z</time>
      </trkpt>
      <trkpt lat="43.846" lon="7.49394">
        <ele>1071.062</ele>
        <time>2020-06-24T12:45:35Z</time>
      </trkpt>
      <trkpt lat="43.846" lon="7.49391">
        <ele>1070.659</ele>
        <time>2020-06-24T12:45:50Z</time>
      </trkpt>
      <trkpt lat="43.84604" lon="7.49383">
        <ele>1069.565</ele>
        <time>2020-06-24T12:46:05Z</time>
      </trkpt>
      <trkpt lat="43.84616" lon="7.49369">
        <ele>1068.851</ele>
        <time>2020-06-24T12:46:21Z</time>
      </trkpt>
      <trkpt lat="43.84624" lon="7.49356">
        <ele>1071.66</ele>
        <time>2020-06-24T12:46:37Z</time>
      </trkpt>
      <trkpt lat="43.84638" lon="7.49346">
        <ele>1069.877</ele>
        <time>2020-06-24T12:46:53Z</time>
      </trkpt>
      <trkpt lat="43.84659" lon="7.49339">
        <ele>1068.059</ele>
        <time>2020-06-24T12:47:08Z</time>
      </trkpt>
      <trkpt lat="43.84671" lon="7.49321">
        <ele>1067.407</ele>
        <time>2020-06-24T12:47:24Z</time>
      </trkpt>
      <trkpt lat="43.84685" lon="7.49308">
        <ele>1071.439</ele>
        <time>2020-06-24T12:47:40Z</time>
      </trkpt>
      <trkpt lat="43.8469" lon="7.49289">
        <ele>1073.619</ele>
        <time>2020-06-24T12:47:55Z</time>
      </trkpt>
      <trkpt lat="43.84704" lon="7.49276">
        <ele>1070.857</ele>
        <time>2020-06-24T12:48:11Z</time>
      </trkpt>
      <trkpt lat="43.84712" lon="7.49256">
        <ele>1065.736</ele>
        <time>2020-06-24T12:48:27Z</time>
      </trkpt>
      <trkpt lat="43.8472" lon="7.49245">
        <ele>1068.73</ele>
        <time>2020-06-24T12:48:43Z</time>
      </trkpt>
      <trkpt lat="43.8472" lon="7.49233">
        <ele>1071.904</ele>
        <time>2020-06-24T12:48:59Z</time>
      </trkpt>
      <trkpt lat="43.8472" lon="7.49233">
        <ele>1073.152</ele>
        <time>2020-06-24T12:49:15Z</time>
      </trkpt>
      <trkpt lat="43.84711" lon="7.4921">
        <ele>1080.389</ele>
        <time>2020-06-24T12:49:31Z</time>
      </trkpt>
      <trkpt lat="43.84712" lon="7.49203">
        <ele>1079.519</ele>
        <time>2020-06-24T12:49:47Z</time>
      </trkpt>
      <trkpt lat="43.84714" lon="7.49189">
        <ele>1078.509</ele>
        <time>2020-06-24T12:50:03Z</time>
      </trkpt>
      <trkpt lat="43.84725" lon="7.49167">
        <ele>1075.265</ele>
        <time>2020-06-24T12:50:19Z</time>
      </trkpt>
      <trkpt lat="43.84735" lon="7.49151">
        <ele>1075.83</ele>
        <time>2020-06-24T12:50:35Z</time>
      </trkpt>
      <trkpt lat="43.84741" lon="7.49132">
        <ele>1077.858</ele>
        <time>2020-06-24T12:50:51Z</time>
      </trkpt>
      <trkpt lat="43.84744" lon="7.49127">
        <ele>1078.496</ele>
        <time>2020-06-24T12:51:06Z</time>
      </trkpt>
      <trkpt lat="43.84765" lon="7.49091">
        <ele>1080.951</ele>
        <time>2020-06-24T12:51:22Z</time>
      </trkpt>
      <trkpt lat="43.84765" lon="7.49091">
        <ele>1080.951</ele>
        <time>2020-06-24T12:51:37Z</time>
      </trkpt>
      <trkpt lat="43.84773" lon="7.49062">
        <ele>1076.824</ele>
        <time>2020-06-24T12:51:53Z</time>
      </trkpt>
      <trkpt lat="43.84785" lon="7.49049">
        <ele>1077.237</ele>
        <time>2020-06-24T12:52:09Z</time>
      </trkpt>
      <trkpt lat="43.84793" lon="7.49024">
        <ele>1080.382</ele>
        <time>2020-06-24T12:52:25Z</time>
      </trkpt>
      <trkpt lat="43.84794" lon="7.49022">
        <ele>1080.772</ele>
        <time>2020-06-24T12:52:40Z</time>
      </trkpt>
      <trkpt lat="43.84797" lon="7.49006">
        <ele>1080.953</ele>
        <time>2020-06-24T12:52:55Z</time>
      </trkpt>
      <trkpt lat="43.84813" lon="7.48972">
        <ele>1083.542</ele>
        <time>2020-06-24T12:53:11Z</time>
      </trkpt>
      <trkpt lat="43.84817" lon="7.48962">
        <ele>1083.889</ele>
        <time>2020-06-24T12:53:26Z</time>
      </trkpt>
      <trkpt lat="43.84829" lon="7.4895">
        <ele>1087.794</ele>
        <time>2020-06-24T12:53:41Z</time>
      </trkpt>
      <trkpt lat="43.84832" lon="7.48942">
        <ele>1090.583</ele>
        <time>2020-06-24T12:53:56Z</time>
      </trkpt>
      <trkpt lat="43.84841" lon="7.48927">
        <ele>1091.317</ele>
        <time>2020-06-24T12:54:12Z</time>
      </trkpt>
      <trkpt lat="43.84851" lon="7.48914">
        <ele>1090.86</ele>
        <time>2020-06-24T12:54:27Z</time>
      </trkpt>
      <trkpt lat="43.84851" lon="7.48914">
        <ele>1090.86</ele>
        <time>2020-06-24T12:54:42Z</time>
      </trkpt>
      <trkpt lat="43.84866" lon="7.48895">
        <ele>1090.555</ele>
        <time>2020-06-24T12:54:57Z</time>
      </trkpt>
      <trkpt lat="43.84879" lon="7.48883">
        <ele>1090.4</ele>
        <time>2020-06-24T12:55:13Z</time>
      </trkpt>
      <trkpt lat="43.8489" lon="7.48863">
        <ele>1091.17</ele>
        <time>2020-06-24T12:55:29Z</time>
      </trkpt>
      <trkpt lat="43.84911" lon="7.48841">
        <ele>1095.069</ele>
        <time>2020-06-24T12:55:44Z</time>
      </trkpt>
      <trkpt lat="43.84925" lon="7.48832">
        <ele>1094.453</ele>
        <time>2020-06-24T12:56:00Z</time>
      </trkpt>
      <trkpt lat="43.84935" lon="7.48818">
        <ele>1096.659</ele>
        <time>2020-06-24T12:56:16Z</time>
      </trkpt>
      <trkpt lat="43.84935" lon="7.48818">
        <ele>1096.659</ele>
        <time>2020-06-24T12:56:31Z</time>
      </trkpt>
      <trkpt lat="43.84939" lon="7.48812">
        <ele>1094.412</ele>
        <time>2020-06-24T12:56:47Z</time>
      </trkpt>
      <trkpt lat="43.84947" lon="7.48791">
        <ele>1092.256</ele>
        <time>2020-06-24T12:57:02Z</time>
      </trkpt>
      <trkpt lat="43.84954" lon="7.48765">
        <ele>1093.746</ele>
        <time>2020-06-24T12:57:17Z</time>
      </trkpt>
      <trkpt lat="43.84962" lon="7.48745">
        <ele>1089.997</ele>
        <time>2020-06-24T12:57:32Z</time>
      </trkpt>
      <trkpt lat="43.84979" lon="7.48713">
        <ele>1083.71</ele>
        <time>2020-06-24T12:57:48Z</time>
      </trkpt>
      <trkpt lat="43.84987" lon="7.48682">
        <ele>1082.398</ele>
        <time>2020-06-24T12:58:03Z</time>
      </trkpt>
      <trkpt lat="43.84992" lon="7.48672">
        <ele>1080.78</ele>
        <time>2020-06-24T12:58:19Z</time>
      </trkpt>
      <trkpt lat="43.85001" lon="7.48675">
        <ele>1079.902</ele>
        <time>2020-06-24T12:58:34Z</time>
      </trkpt>
      <trkpt lat="43.85001" lon="7.48675">
        <ele>1079.308</ele>
        <time>2020-06-24T12:58:50Z</time>
      </trkpt>
      <trkpt lat="43.85001" lon="7.48675">
        <ele>1079.308</ele>
        <time>2020-06-24T12:59:05Z</time>
      </trkpt>
      <trkpt lat="43.84997" lon="7.48668">
        <ele>1085.546</ele>
        <time>2020-06-24T12:59:21Z</time>
      </trkpt>
      <trkpt lat="43.84997" lon="7.48668">
        <ele>1085.889</ele>
        <time>2020-06-24T12:59:37Z</time>
      </trkpt>
      <trkpt lat="43.85003" lon="7.48663">
        <ele>1084.249</ele>
        <time>2020-06-24T12:59:53Z</time>
      </trkpt>
      <trkpt lat="43.8501" lon="7.4866">
        <ele>1081.002</ele>
        <time>2020-06-24T13:00:09Z</time>
      </trkpt>
      <trkpt lat="43.85019" lon="7.48651">
        <ele>1079.14</ele>
        <time>2020-06-24T13:00:25Z</time>
      </trkpt>
      <trkpt lat="43.8502" lon="7.48649">
        <ele>1078.761</ele>
        <time>2020-06-24T13:00:40Z</time>
      </trkpt>
      <trkpt lat="43.8502" lon="7.48649">
        <ele>1078.761</ele>
        <time>2020-06-24T13:00:56Z</time>
      </trkpt>
      <trkpt lat="43.85029" lon="7.48639">
        <ele>1075.863</ele>
        <time>2020-06-24T13:01:12Z</time>
      </trkpt>
      <trkpt lat="43.85035" lon="7.48634">
        <ele>1075.194</ele>
        <time>2020-06-24T13:01:28Z</time>
      </trkpt>
      <trkpt lat="43.85041" lon="7.48622">
        <ele>1076.128</ele>
        <time>2020-06-24T13:01:43Z</time>
      </trkpt>
      <trkpt lat="43.85041" lon="7.48622">
        <ele>1076.128</ele>
        <time>2020-06-24T13:01:59Z</time>
      </trkpt>
      <trkpt lat="43.8506" lon="7.48596">
        <ele>1075.046</ele>
        <time>2020-06-24T13:02:15Z</time>
      </trkpt>
      <trkpt lat="43.85075" lon="7.48593">
        <ele>1073.99</ele>
        <time>2020-06-24T13:02:30Z</time>
      </trkpt>
      <trkpt lat="43.85091" lon="7.4858">
        <ele>1073.265</ele>
        <time>2020-06-24T13:02:46Z</time>
      </trkpt>
      <trkpt lat="43.85096" lon="7.48576">
        <ele>1069.777</ele>
        <time>2020-06-24T13:03:02Z</time>
      </trkpt>
      <trkpt lat="43.85118" lon="7.48568">
        <ele>1065.364</ele>
        <time>2020-06-24T13:03:18Z</time>
      </trkpt>
      <trkpt lat="43.85131" lon="7.48561">
        <ele>1064.254</ele>
        <time>2020-06-24T13:03:34Z</time>
      </trkpt>
      <trkpt lat="43.8514" lon="7.48553">
        <ele>1058.777</ele>
        <time>2020-06-24T13:03:49Z</time>
      </trkpt>
      <trkpt lat="43.85153" lon="7.48541">
        <ele>1052.041</ele>
        <time>2020-06-24T13:04:05Z</time>
      </trkpt>
      <trkpt lat="43.85159" lon="7.48529">
        <ele>1047.216</ele>
        <time>2020-06-24T13:04:20Z</time>
      </trkpt>
      <trkpt lat="43.85164" lon="7.48518">
        <ele>1046.437</ele>
        <time>2020-06-24T13:04:36Z</time>
      </trkpt>
      <trkpt lat="43.85169" lon="7.48508">
        <ele>1044.972</ele>
        <time>2020-06-24T13:04:52Z</time>
      </trkpt>
      <trkpt lat="43.85172" lon="7.48494">
        <ele>1044.987</ele>
        <time>2020-06-24T13:05:07Z</time>
      </trkpt>
      <trkpt lat="43.85192" lon="7.48479">
        <ele>1042.24</ele>
        <time>2020-06-24T13:05:23Z</time>
      </trkpt>
      <trkpt lat="43.85194" lon="7.48477">
        <ele>1040.822</ele>
        <time>2020-06-24T13:05:38Z</time>
      </trkpt>
      <trkpt lat="43.85194" lon="7.48477">
        <ele>1040.822</ele>
        <time>2020-06-24T13:05:53Z</time>
      </trkpt>
      <trkpt lat="43.85202" lon="7.4847">
        <ele>1038.81</ele>
        <time>2020-06-24T13:06:09Z</time>
      </trkpt>
      <trkpt lat="43.85214" lon="7.48452">
        <ele>1037.902</ele>
        <time>2020-06-24T13:06:25Z</time>
      </trkpt>
      <trkpt lat="43.85218" lon="7.48441">
        <ele>1032.505</ele>
        <time>2020-06-24T13:06:41Z</time>
      </trkpt>
      <trkpt lat="43.85217" lon="7.48431">
        <ele>1031.038</ele>
        <time>2020-06-24T13:06:57Z</time>
      </trkpt>
      <trkpt lat="43.85219" lon="7.48411">
        <ele>1026.104</ele>
        <time>2020-06-24T13:07:12Z</time>
      </trkpt>
      <trkpt lat="43.8521" lon="7.48386">
        <ele>1023.162</ele>
        <time>2020-06-24T13:07:27Z</time>
      </trkpt>
      <trkpt lat="43.85204" lon="7.48377">
        <ele>1020.115</ele>
        <time>2020-06-24T13:07:43Z</time>
      </trkpt>
      <trkpt lat="43.852" lon="7.48367">
        <ele>1017.704</ele>
        <time>2020-06-24T13:07:59Z</time>
      </trkpt>
      <trkpt lat="43.85195" lon="7.48358">
        <ele>1015.255</ele>
        <time>2020-06-24T13:08:14Z</time>
      </trkpt>
      <trkpt lat="43.85192" lon="7.48345">
        <ele>1013.357</ele>
        <time>2020-06-24T13:08:29Z</time>
      </trkpt>
      <trkpt lat="43.85186" lon="7.48324">
        <ele>1010.449</ele>
        <time>2020-06-24T13:08:45Z</time>
      </trkpt>
      <trkpt lat="43.85175" lon="7.48307">
        <ele>1008.201</ele>
        <time>2020-06-24T13:09:01Z</time>
      </trkpt>
      <trkpt lat="43.85169" lon="7.4829">
        <ele>1003.738</ele>
        <time>2020-06-24T13:09:16Z</time>
      </trkpt>
      <trkpt lat="43.85163" lon="7.48281">
        <ele>1001.432</ele>
        <time>2020-06-24T13:09:31Z</time>
      </trkpt>
      <trkpt lat="43.85151" lon="7.48263">
        <ele>998.082</ele>
        <time>2020-06-24T13:09:47Z</time>
      </trkpt>
      <trkpt lat="43.85156" lon="7.48248">
        <ele>995.459</ele>
        <time>2020-06-24T13:10:03Z</time>
      </trkpt>
      <trkpt lat="43.85171" lon="7.48236">
        <ele>988.753</ele>
        <time>2020-06-24T13:10:18Z</time>
      </trkpt>
      <trkpt lat="43.85171" lon="7.48236">
        <ele>988.238</ele>
        <time>2020-06-24T13:10:34Z</time>
      </trkpt>
      <trkpt lat="43.85171" lon="7.48236">
        <ele>988.238</ele>
        <time>2020-06-24T13:10:50Z</time>
      </trkpt>
      <trkpt lat="43.85171" lon="7.48236">
        <ele>988.238</ele>
        <time>2020-06-24T13:11:06Z</time>
      </trkpt>
      <trkpt lat="43.85171" lon="7.48236">
        <ele>988.238</ele>
        <time>2020-06-24T13:11:21Z</time>
      </trkpt>
      <trkpt lat="43.85184" lon="7.48236">
        <ele>987.805</ele>
        <time>2020-06-24T13:11:37Z</time>
      </trkpt>
      <trkpt lat="43.85184" lon="7.48236">
        <ele>987.805</ele>
        <time>2020-06-24T13:11:53Z</time>
      </trkpt>
      <trkpt lat="43.85198" lon="7.48239">
        <ele>987.061</ele>
        <time>2020-06-24T13:12:08Z</time>
      </trkpt>
      <trkpt lat="43.85198" lon="7.48239">
        <ele>987.061</ele>
        <time>2020-06-24T13:12:24Z</time>
      </trkpt>
      <trkpt lat="43.85222" lon="7.48246">
        <ele>983.751</ele>
        <time>2020-06-24T13:12:40Z</time>
      </trkpt>
      <trkpt lat="43.85222" lon="7.48246">
        <ele>983.751</ele>
        <time>2020-06-24T13:12:55Z</time>
      </trkpt>
      <trkpt lat="43.85243" lon="7.48239">
        <ele>980.858</ele>
        <time>2020-06-24T13:13:11Z</time>
      </trkpt>
      <trkpt lat="43.85244" lon="7.48237">
        <ele>980.105</ele>
        <time>2020-06-24T13:13:27Z</time>
      </trkpt>
      <trkpt lat="43.85244" lon="7.48237">
        <ele>980.105</ele>
        <time>2020-06-24T13:13:42Z</time>
      </trkpt>
      <trkpt lat="43.85244" lon="7.48237">
        <ele>980.105</ele>
        <time>2020-06-24T13:13:57Z</time>
      </trkpt>
      <trkpt lat="43.85244" lon="7.48237">
        <ele>980.105</ele>
        <time>2020-06-24T13:14:12Z</time>
      </trkpt>
      <trkpt lat="43.85244" lon="7.48237">
        <ele>980.105</ele>
        <time>2020-06-24T13:14:27Z</time>
      </trkpt>
      <trkpt lat="43.85244" lon="7.48237">
        <ele>980.105</ele>
        <time>2020-06-24T13:14:43Z</time>
      </trkpt>
      <trkpt lat="43.85253" lon="7.48224">
        <ele>973.284</ele>
        <time>2020-06-24T13:14:58Z</time>
      </trkpt>
      <trkpt lat="43.85262" lon="7.48218">
        <ele>968.537</ele>
        <time>2020-06-24T13:15:14Z</time>
      </trkpt>
      <trkpt lat="43.85276" lon="7.48212">
        <ele>965.318</ele>
        <time>2020-06-24T13:15:29Z</time>
      </trkpt>
      <trkpt lat="43.85278" lon="7.48211">
        <ele>963.757</ele>
        <time>2020-06-24T13:15:44Z</time>
      </trkpt>
      <trkpt lat="43.85278" lon="7.48211">
        <ele>963.757</ele>
        <time>2020-06-24T13:15:59Z</time>
      </trkpt>
      <trkpt lat="43.85308" lon="7.48203">
        <ele>959.272</ele>
        <time>2020-06-24T13:16:15Z</time>
      </trkpt>
      <trkpt lat="43.85328" lon="7.48186">
        <ele>953.548</ele>
        <time>2020-06-24T13:16:31Z</time>
      </trkpt>
      <trkpt lat="43.85334" lon="7.48181">
        <ele>949.386</ele>
        <time>2020-06-24T13:16:47Z</time>
      </trkpt>
      <trkpt lat="43.85352" lon="7.48168">
        <ele>944.525</ele>
        <time>2020-06-24T13:17:02Z</time>
      </trkpt>
      <trkpt lat="43.85362" lon="7.48152">
        <ele>937.972</ele>
        <time>2020-06-24T13:17:18Z</time>
      </trkpt>
      <trkpt lat="43.85376" lon="7.4815">
        <ele>935.338</ele>
        <time>2020-06-24T13:17:33Z</time>
      </trkpt>
      <trkpt lat="43.85383" lon="7.4815">
        <ele>935.454</ele>
        <time>2020-06-24T13:17:49Z</time>
      </trkpt>
      <trkpt lat="43.85411" lon="7.48141">
        <ele>933.81</ele>
        <time>2020-06-24T13:18:05Z</time>
      </trkpt>
      <trkpt lat="43.85425" lon="7.48139">
        <ele>931.09</ele>
        <time>2020-06-24T13:18:20Z</time>
      </trkpt>
      <trkpt lat="43.85433" lon="7.48137">
        <ele>931.052</ele>
        <time>2020-06-24T13:18:36Z</time>
      </trkpt>
      <trkpt lat="43.85459" lon="7.48139">
        <ele>926.151</ele>
        <time>2020-06-24T13:18:52Z</time>
      </trkpt>
      <trkpt lat="43.85468" lon="7.48132">
        <ele>922.676</ele>
        <time>2020-06-24T13:19:07Z</time>
      </trkpt>
      <trkpt lat="43.85482" lon="7.4812">
        <ele>914.606</ele>
        <time>2020-06-24T13:19:23Z</time>
      </trkpt>
      <trkpt lat="43.8549" lon="7.48116">
        <ele>911.787</ele>
        <time>2020-06-24T13:19:38Z</time>
      </trkpt>
      <trkpt lat="43.85503" lon="7.48101">
        <ele>914.56</ele>
        <time>2020-06-24T13:19:54Z</time>
      </trkpt>
      <trkpt lat="43.85512" lon="7.4809">
        <ele>915.777</ele>
        <time>2020-06-24T13:20:09Z</time>
      </trkpt>
      <trkpt lat="43.85525" lon="7.48083">
        <ele>914.997</ele>
        <time>2020-06-24T13:20:25Z</time>
      </trkpt>
      <trkpt lat="43.85542" lon="7.48083">
        <ele>915.886</ele>
        <time>2020-06-24T13:20:40Z</time>
      </trkpt>
      <trkpt lat="43.8556" lon="7.48074">
        <ele>913.326</ele>
        <time>2020-06-24T13:20:56Z</time>
      </trkpt>
      <trkpt lat="43.85575" lon="7.48063">
        <ele>914.495</ele>
        <time>2020-06-24T13:21:12Z</time>
      </trkpt>
      <trkpt lat="43.85583" lon="7.48062">
        <ele>911.972</ele>
        <time>2020-06-24T13:21:27Z</time>
      </trkpt>
      <trkpt lat="43.85608" lon="7.48056">
        <ele>906.433</ele>
        <time>2020-06-24T13:21:42Z</time>
      </trkpt>
      <trkpt lat="43.8563" lon="7.48033">
        <ele>900.9</ele>
        <time>2020-06-24T13:21:58Z</time>
      </trkpt>
      <trkpt lat="43.85642" lon="7.48011">
        <ele>895.714</ele>
        <time>2020-06-24T13:22:13Z</time>
      </trkpt>
      <trkpt lat="43.85656" lon="7.47992">
        <ele>897.289</ele>
        <time>2020-06-24T13:22:29Z</time>
      </trkpt>
      <trkpt lat="43.85659" lon="7.47983">
        <ele>896.51</ele>
        <time>2020-06-24T13:22:44Z</time>
      </trkpt>
      <trkpt lat="43.85656" lon="7.47979">
        <ele>895.509</ele>
        <time>2020-06-24T13:22:59Z</time>
      </trkpt>
      <trkpt lat="43.8565" lon="7.47969">
        <ele>893.938</ele>
        <time>2020-06-24T13:23:15Z</time>
      </trkpt>
      <trkpt lat="43.85642" lon="7.47954">
        <ele>893.058</ele>
        <time>2020-06-24T13:23:31Z</time>
      </trkpt>
      <trkpt lat="43.85641" lon="7.47951">
        <ele>892.782</ele>
        <time>2020-06-24T13:23:46Z</time>
      </trkpt>
      <trkpt lat="43.85643" lon="7.47937">
        <ele>889.04</ele>
        <time>2020-06-24T13:24:02Z</time>
      </trkpt>
      <trkpt lat="43.85636" lon="7.47928">
        <ele>889.472</ele>
        <time>2020-06-24T13:24:18Z</time>
      </trkpt>
      <trkpt lat="43.85618" lon="7.4791">
        <ele>883.985</ele>
        <time>2020-06-24T13:24:33Z</time>
      </trkpt>
      <trkpt lat="43.85607" lon="7.47894">
        <ele>881.029</ele>
        <time>2020-06-24T13:24:49Z</time>
      </trkpt>
      <trkpt lat="43.85596" lon="7.47865">
        <ele>880.125</ele>
        <time>2020-06-24T13:25:04Z</time>
      </trkpt>
      <trkpt lat="43.85595" lon="7.47842">
        <ele>881.562</ele>
        <time>2020-06-24T13:25:20Z</time>
      </trkpt>
      <trkpt lat="43.85609" lon="7.47832">
        <ele>877.601</ele>
        <time>2020-06-24T13:25:36Z</time>
      </trkpt>
      <trkpt lat="43.85631" lon="7.47833">
        <ele>872.127</ele>
        <time>2020-06-24T13:25:52Z</time>
      </trkpt>
      <trkpt lat="43.85639" lon="7.47827">
        <ele>871.875</ele>
        <time>2020-06-24T13:26:07Z</time>
      </trkpt>
      <trkpt lat="43.85652" lon="7.47825">
        <ele>871.811</ele>
        <time>2020-06-24T13:26:22Z</time>
      </trkpt>
      <trkpt lat="43.85667" lon="7.47818">
        <ele>869.929</ele>
        <time>2020-06-24T13:26:37Z</time>
      </trkpt>
      <trkpt lat="43.85686" lon="7.47808">
        <ele>868.347</ele>
        <time>2020-06-24T13:26:53Z</time>
      </trkpt>
      <trkpt lat="43.85694" lon="7.47805">
        <ele>866.793</ele>
        <time>2020-06-24T13:27:08Z</time>
      </trkpt>
      <trkpt lat="43.85712" lon="7.47791">
        <ele>860.683</ele>
        <time>2020-06-24T13:27:23Z</time>
      </trkpt>
      <trkpt lat="43.85723" lon="7.47783">
        <ele>860.492</ele>
        <time>2020-06-24T13:27:38Z</time>
      </trkpt>
      <trkpt lat="43.85734" lon="7.47766">
        <ele>856.789</ele>
        <time>2020-06-24T13:27:53Z</time>
      </trkpt>
      <trkpt lat="43.85747" lon="7.47751">
        <ele>853.614</ele>
        <time>2020-06-24T13:28:09Z</time>
      </trkpt>
      <trkpt lat="43.8576" lon="7.47734">
        <ele>850.908</ele>
        <time>2020-06-24T13:28:24Z</time>
      </trkpt>
      <trkpt lat="43.85772" lon="7.47722">
        <ele>848.526</ele>
        <time>2020-06-24T13:28:40Z</time>
      </trkpt>
      <trkpt lat="43.85776" lon="7.47725">
        <ele>851.461</ele>
        <time>2020-06-24T13:28:56Z</time>
      </trkpt>
      <trkpt lat="43.85776" lon="7.47725">
        <ele>851.461</ele>
        <time>2020-06-24T13:29:11Z</time>
      </trkpt>
      <trkpt lat="43.85776" lon="7.47725">
        <ele>851.461</ele>
        <time>2020-06-24T13:29:26Z</time>
      </trkpt>
      <trkpt lat="43.85782" lon="7.47713">
        <ele>850.374</ele>
        <time>2020-06-24T13:29:42Z</time>
      </trkpt>
      <trkpt lat="43.858" lon="7.47695">
        <ele>850.259</ele>
        <time>2020-06-24T13:29:58Z</time>
      </trkpt>
      <trkpt lat="43.85817" lon="7.47679">
        <ele>844.378</ele>
        <time>2020-06-24T13:30:14Z</time>
      </trkpt>
      <trkpt lat="43.85823" lon="7.47676">
        <ele>842.74</ele>
        <time>2020-06-24T13:30:30Z</time>
      </trkpt>
      <trkpt lat="43.85823" lon="7.47676">
        <ele>842.74</ele>
        <time>2020-06-24T13:30:45Z</time>
      </trkpt>
      <trkpt lat="43.85823" lon="7.47676">
        <ele>842.74</ele>
        <time>2020-06-24T13:31:00Z</time>
      </trkpt>
      <trkpt lat="43.85825" lon="7.47675">
        <ele>843.424</ele>
        <time>2020-06-24T13:31:15Z</time>
      </trkpt>
      <trkpt lat="43.85832" lon="7.47667">
        <ele>842.984</ele>
        <time>2020-06-24T13:31:31Z</time>
      </trkpt>
      <trkpt lat="43.85843" lon="7.47655">
        <ele>845.753</ele>
        <time>2020-06-24T13:31:47Z</time>
      </trkpt>
      <trkpt lat="43.85856" lon="7.47646">
        <ele>844.874</ele>
        <time>2020-06-24T13:32:03Z</time>
      </trkpt>
      <trkpt lat="43.85865" lon="7.47631">
        <ele>845.218</ele>
        <time>2020-06-24T13:32:18Z</time>
      </trkpt>
      <trkpt lat="43.85882" lon="7.47618">
        <ele>847.083</ele>
        <time>2020-06-24T13:32:34Z</time>
      </trkpt>
      <trkpt lat="43.85905" lon="7.47612">
        <ele>846.842</ele>
        <time>2020-06-24T13:32:50Z</time>
      </trkpt>
      <trkpt lat="43.85918" lon="7.47596">
        <ele>841.512</ele>
        <time>2020-06-24T13:33:05Z</time>
      </trkpt>
      <trkpt lat="43.8593" lon="7.47582">
        <ele>842.027</ele>
        <time>2020-06-24T13:33:21Z</time>
      </trkpt>
      <trkpt lat="43.85944" lon="7.47562">
        <ele>844.914</ele>
        <time>2020-06-24T13:33:37Z</time>
      </trkpt>
      <trkpt lat="43.85958" lon="7.47554">
        <ele>844.959</ele>
        <time>2020-06-24T13:33:53Z</time>
      </trkpt>
      <trkpt lat="43.85962" lon="7.47557">
        <ele>843.928</ele>
        <time>2020-06-24T13:34:08Z</time>
      </trkpt>
      <trkpt lat="43.85975" lon="7.47569">
        <ele>841.896</ele>
        <time>2020-06-24T13:34:23Z</time>
      </trkpt>
      <trkpt lat="43.85986" lon="7.47575">
        <ele>840.517</ele>
        <time>2020-06-24T13:34:39Z</time>
      </trkpt>
      <trkpt lat="43.85998" lon="7.47581">
        <ele>838.303</ele>
        <time>2020-06-24T13:34:55Z</time>
      </trkpt>
      <trkpt lat="43.86012" lon="7.47588">
        <ele>836.951</ele>
        <time>2020-06-24T13:35:11Z</time>
      </trkpt>
      <trkpt lat="43.86028" lon="7.47602">
        <ele>836.977</ele>
        <time>2020-06-24T13:35:27Z</time>
      </trkpt>
      <trkpt lat="43.86038" lon="7.47616">
        <ele>834.833</ele>
        <time>2020-06-24T13:35:43Z</time>
      </trkpt>
      <trkpt lat="43.8605" lon="7.47624">
        <ele>831.737</ele>
        <time>2020-06-24T13:35:58Z</time>
      </trkpt>
      <trkpt lat="43.86057" lon="7.47625">
        <ele>829.458</ele>
        <time>2020-06-24T13:36:14Z</time>
      </trkpt>
      <trkpt lat="43.86064" lon="7.47644">
        <ele>832.368</ele>
        <time>2020-06-24T13:36:29Z</time>
      </trkpt>
      <trkpt lat="43.86071" lon="7.47663">
        <ele>836.635</ele>
        <time>2020-06-24T13:36:45Z</time>
      </trkpt>
      <trkpt lat="43.86079" lon="7.47672">
        <ele>837.837</ele>
        <time>2020-06-24T13:37:00Z</time>
      </trkpt>
      <trkpt lat="43.86091" lon="7.47682">
        <ele>842.478</ele>
        <time>2020-06-24T13:37:16Z</time>
      </trkpt>
      <trkpt lat="43.86104" lon="7.47691">
        <ele>845.896</ele>
        <time>2020-06-24T13:37:32Z</time>
      </trkpt>
      <trkpt lat="43.86117" lon="7.47697">
        <ele>843.939</ele>
        <time>2020-06-24T13:37:48Z</time>
      </trkpt>
      <trkpt lat="43.8613" lon="7.47702">
        <ele>847.076</ele>
        <time>2020-06-24T13:38:03Z</time>
      </trkpt>
      <trkpt lat="43.86147" lon="7.47706">
        <ele>848.884</ele>
        <time>2020-06-24T13:38:19Z</time>
      </trkpt>
      <trkpt lat="43.86164" lon="7.47707">
        <ele>849.526</ele>
        <time>2020-06-24T13:38:35Z</time>
      </trkpt>
      <trkpt lat="43.86182" lon="7.47706">
        <ele>849.125</ele>
        <time>2020-06-24T13:38:51Z</time>
      </trkpt>
      <trkpt lat="43.86198" lon="7.47701">
        <ele>850.307</ele>
        <time>2020-06-24T13:39:06Z</time>
      </trkpt>
      <trkpt lat="43.86218" lon="7.47704">
        <ele>851.211</ele>
        <time>2020-06-24T13:39:22Z</time>
      </trkpt>
      <trkpt lat="43.86231" lon="7.477">
        <ele>851.609</ele>
        <time>2020-06-24T13:39:38Z</time>
      </trkpt>
      <trkpt lat="43.86245" lon="7.47696">
        <ele>853.675</ele>
        <time>2020-06-24T13:39:54Z</time>
      </trkpt>
      <trkpt lat="43.86246" lon="7.47694">
        <ele>854.491</ele>
        <time>2020-06-24T13:40:09Z</time>
      </trkpt>
      <trkpt lat="43.86252" lon="7.47692">
        <ele>855.043</ele>
        <time>2020-06-24T13:40:24Z</time>
      </trkpt>
      <trkpt lat="43.86258" lon="7.4769">
        <ele>855.701</ele>
        <time>2020-06-24T13:40:39Z</time>
      </trkpt>
      <trkpt lat="43.86261" lon="7.47689">
        <ele>855.904</ele>
        <time>2020-06-24T13:40:55Z</time>
      </trkpt>
      <trkpt lat="43.86261" lon="7.47689">
        <ele>855.904</ele>
        <time>2020-06-24T13:41:11Z</time>
      </trkpt>
      <trkpt lat="43.86261" lon="7.47689">
        <ele>855.904</ele>
        <time>2020-06-24T13:41:26Z</time>
      </trkpt>
      <trkpt lat="43.86261" lon="7.47689">
        <ele>855.904</ele>
        <time>2020-06-24T13:41:42Z</time>
      </trkpt>
      <trkpt lat="43.86261" lon="7.47689">
        <ele>855.904</ele>
        <time>2020-06-24T13:41:57Z</time>
      </trkpt>
      <trkpt lat="43.86261" lon="7.47689">
        <ele>855.904</ele>
        <time>2020-06-24T13:42:12Z</time>
      </trkpt>
      <trkpt lat="43.86263" lon="7.47689">
        <ele>856.228</ele>
        <time>2020-06-24T13:42:27Z</time>
      </trkpt>
      <trkpt lat="43.86265" lon="7.47686">
        <ele>856.848</ele>
        <time>2020-06-24T13:42:43Z</time>
      </trkpt>
      <trkpt lat="43.86268" lon="7.47682">
        <ele>858.01</ele>
        <time>2020-06-24T13:42:59Z</time>
      </trkpt>
      <trkpt lat="43.86268" lon="7.47682">
        <ele>858.01</ele>
        <time>2020-06-24T13:43:15Z</time>
      </trkpt>
      <trkpt lat="43.86268" lon="7.47682">
        <ele>858.01</ele>
        <time>2020-06-24T13:43:31Z</time>
      </trkpt>
      <trkpt lat="43.86268" lon="7.47682">
        <ele>858.01</ele>
        <time>2020-06-24T13:43:47Z</time>
      </trkpt>
      <trkpt lat="43.86268" lon="7.47682">
        <ele>858.01</ele>
        <time>2020-06-24T13:44:03Z</time>
      </trkpt>
      <trkpt lat="43.86268" lon="7.47682">
        <ele>858.01</ele>
        <time>2020-06-24T13:44:19Z</time>
      </trkpt>
      <trkpt lat="43.86268" lon="7.47682">
        <ele>858.01</ele>
        <time>2020-06-24T13:44:35Z</time>
      </trkpt>
      <trkpt lat="43.86268" lon="7.47682">
        <ele>858.14</ele>
        <time>2020-06-24T13:44:51Z</time>
      </trkpt>
      <trkpt lat="43.86268" lon="7.47681">
        <ele>858.448</ele>
        <time>2020-06-24T13:45:07Z</time>
      </trkpt>
      <trkpt lat="43.86268" lon="7.47681">
        <ele>858.448</ele>
        <time>2020-06-24T13:45:23Z</time>
      </trkpt>
      <trkpt lat="43.8627" lon="7.47674">
        <ele>858.396</ele>
        <time>2020-06-24T13:45:38Z</time>
      </trkpt>
      <trkpt lat="43.86267" lon="7.47659">
        <ele>857.011</ele>
        <time>2020-06-24T13:45:54Z</time>
      </trkpt>
      <trkpt lat="43.86269" lon="7.47654">
        <ele>856.003</ele>
        <time>2020-06-24T13:46:09Z</time>
      </trkpt>
      <trkpt lat="43.86276" lon="7.47656">
        <ele>851.545</ele>
        <time>2020-06-24T13:46:24Z</time>
      </trkpt>
      <trkpt lat="43.8629" lon="7.47661">
        <ele>851.317</ele>
        <time>2020-06-24T13:46:40Z</time>
      </trkpt>
      <trkpt lat="43.86293" lon="7.47663">
        <ele>850.716</ele>
        <time>2020-06-24T13:46:56Z</time>
      </trkpt>
      <trkpt lat="43.86309" lon="7.47666">
        <ele>849.6</ele>
        <time>2020-06-24T13:47:11Z</time>
      </trkpt>
      <trkpt lat="43.86311" lon="7.47662">
        <ele>848.361</ele>
        <time>2020-06-24T13:47:27Z</time>
      </trkpt>
      <trkpt lat="43.86315" lon="7.47658">
        <ele>845.847</ele>
        <time>2020-06-24T13:47:42Z</time>
      </trkpt>
      <trkpt lat="43.86322" lon="7.47666">
        <ele>841.151</ele>
        <time>2020-06-24T13:47:58Z</time>
      </trkpt>
      <trkpt lat="43.86323" lon="7.47663">
        <ele>840.858</ele>
        <time>2020-06-24T13:48:14Z</time>
      </trkpt>
      <trkpt lat="43.86328" lon="7.47665">
        <ele>839.38</ele>
        <time>2020-06-24T13:48:30Z</time>
      </trkpt>
      <trkpt lat="43.86342" lon="7.47666">
        <ele>837.689</ele>
        <time>2020-06-24T13:48:46Z</time>
      </trkpt>
      <trkpt lat="43.86348" lon="7.47668">
        <ele>836.319</ele>
        <time>2020-06-24T13:49:01Z</time>
      </trkpt>
      <trkpt lat="43.86372" lon="7.47669">
        <ele>829.05</ele>
        <time>2020-06-24T13:49:17Z</time>
      </trkpt>
      <trkpt lat="43.86376" lon="7.4767">
        <ele>826.633</ele>
        <time>2020-06-24T13:49:32Z</time>
      </trkpt>
      <trkpt lat="43.86376" lon="7.4767">
        <ele>826.633</ele>
        <time>2020-06-24T13:49:48Z</time>
      </trkpt>
      <trkpt lat="43.86376" lon="7.4767">
        <ele>826.633</ele>
        <time>2020-06-24T13:50:04Z</time>
      </trkpt>
      <trkpt lat="43.8638" lon="7.47672">
        <ele>826.11</ele>
        <time>2020-06-24T13:50:19Z</time>
      </trkpt>
      <trkpt lat="43.8638" lon="7.47672">
        <ele>826.11</ele>
        <time>2020-06-24T13:50:35Z</time>
      </trkpt>
      <trkpt lat="43.8641" lon="7.47688">
        <ele>824.85</ele>
        <time>2020-06-24T13:50:50Z</time>
      </trkpt>
      <trkpt lat="43.86429" lon="7.47696">
        <ele>819.315</ele>
        <time>2020-06-24T13:51:06Z</time>
      </trkpt>
      <trkpt lat="43.86434" lon="7.47699">
        <ele>816.577</ele>
        <time>2020-06-24T13:51:21Z</time>
      </trkpt>
      <trkpt lat="43.86434" lon="7.47699">
        <ele>816.577</ele>
        <time>2020-06-24T13:51:37Z</time>
      </trkpt>
      <trkpt lat="43.86434" lon="7.47699">
        <ele>816.577</ele>
        <time>2020-06-24T13:51:53Z</time>
      </trkpt>
      <trkpt lat="43.86435" lon="7.47695">
        <ele>815.648</ele>
        <time>2020-06-24T13:52:08Z</time>
      </trkpt>
      <trkpt lat="43.86434" lon="7.47687">
        <ele>814.636</ele>
        <time>2020-06-24T13:52:24Z</time>
      </trkpt>
      <trkpt lat="43.86434" lon="7.47687">
        <ele>814.636</ele>
        <time>2020-06-24T13:52:39Z</time>
      </trkpt>
      <trkpt lat="43.86434" lon="7.47687">
        <ele>814.636</ele>
        <time>2020-06-24T13:52:55Z</time>
      </trkpt>
      <trkpt lat="43.86434" lon="7.47687">
        <ele>814.636</ele>
        <time>2020-06-24T13:53:11Z</time>
      </trkpt>
      <trkpt lat="43.86462" lon="7.47681">
        <ele>813.056</ele>
        <time>2020-06-24T13:53:26Z</time>
      </trkpt>
      <trkpt lat="43.86477" lon="7.47678">
        <ele>810.359</ele>
        <time>2020-06-24T13:53:42Z</time>
      </trkpt>
      <trkpt lat="43.86477" lon="7.47678">
        <ele>810.359</ele>
        <time>2020-06-24T13:53:57Z</time>
      </trkpt>
      <trkpt lat="43.86477" lon="7.47678">
        <ele>810.359</ele>
        <time>2020-06-24T13:54:13Z</time>
      </trkpt>
      <trkpt lat="43.86477" lon="7.47678">
        <ele>810.359</ele>
        <time>2020-06-24T13:54:29Z</time>
      </trkpt>
      <trkpt lat="43.86477" lon="7.47678">
        <ele>810.359</ele>
        <time>2020-06-24T13:54:45Z</time>
      </trkpt>
      <trkpt lat="43.86487" lon="7.47676">
        <ele>807.248</ele>
        <time>2020-06-24T13:55:01Z</time>
      </trkpt>
      <trkpt lat="43.86496" lon="7.47673">
        <ele>805.217</ele>
        <time>2020-06-24T13:55:16Z</time>
      </trkpt>
      <trkpt lat="43.86496" lon="7.47673">
        <ele>805.217</ele>
        <time>2020-06-24T13:55:31Z</time>
      </trkpt>
      <trkpt lat="43.86496" lon="7.47673">
        <ele>805.217</ele>
        <time>2020-06-24T13:55:47Z</time>
      </trkpt>
      <trkpt lat="43.86496" lon="7.47673">
        <ele>805.217</ele>
        <time>2020-06-24T13:56:02Z</time>
      </trkpt>
      <trkpt lat="43.86496" lon="7.47673">
        <ele>805.217</ele>
        <time>2020-06-24T13:56:17Z</time>
      </trkpt>
      <trkpt lat="43.86496" lon="7.47673">
        <ele>805.217</ele>
        <time>2020-06-24T13:56:32Z</time>
      </trkpt>
      <trkpt lat="43.86496" lon="7.47673">
        <ele>805.217</ele>
        <time>2020-06-24T13:56:48Z</time>
      </trkpt>
      <trkpt lat="43.86496" lon="7.47673">
        <ele>805.217</ele>
        <time>2020-06-24T13:57:03Z</time>
      </trkpt>
      <trkpt lat="43.86503" lon="7.47676">
        <ele>805.961</ele>
        <time>2020-06-24T13:57:19Z</time>
      </trkpt>
      <trkpt lat="43.86503" lon="7.47676">
        <ele>805.961</ele>
        <time>2020-06-24T13:57:34Z</time>
      </trkpt>
      <trkpt lat="43.86503" lon="7.47676">
        <ele>805.961</ele>
        <time>2020-06-24T13:57:50Z</time>
      </trkpt>
      <trkpt lat="43.86503" lon="7.47676">
        <ele>805.961</ele>
        <time>2020-06-24T13:58:06Z</time>
      </trkpt>
      <trkpt lat="43.86503" lon="7.47676">
        <ele>805.961</ele>
        <time>2020-06-24T13:58:22Z</time>
      </trkpt>
      <trkpt lat="43.86503" lon="7.47676">
        <ele>805.961</ele>
        <time>2020-06-24T13:58:38Z</time>
      </trkpt>
      <trkpt lat="43.86503" lon="7.47676">
        <ele>805.961</ele>
        <time>2020-06-24T13:58:53Z</time>
      </trkpt>
      <trkpt lat="43.86503" lon="7.47676">
        <ele>805.961</ele>
        <time>2020-06-24T13:59:09Z</time>
      </trkpt>
      <trkpt lat="43.86521" lon="7.4767">
        <ele>803.454</ele>
        <time>2020-06-24T13:59:24Z</time>
      </trkpt>
      <trkpt lat="43.86521" lon="7.4767">
        <ele>803.454</ele>
        <time>2020-06-24T13:59:40Z</time>
      </trkpt>
      <trkpt lat="43.8652" lon="7.47671">
        <ele>801.364</ele>
        <time>2020-06-24T13:59:55Z</time>
      </trkpt>
      <trkpt lat="43.86532" lon="7.47655">
        <ele>785.907</ele>
        <time>2020-06-24T14:00:11Z</time>
      </trkpt>
      <trkpt lat="43.86538" lon="7.47648">
        <ele>782.516</ele>
        <time>2020-06-24T14:00:27Z</time>
      </trkpt>
      <trkpt lat="43.86538" lon="7.47648">
        <ele>782.516</ele>
        <time>2020-06-24T14:00:43Z</time>
      </trkpt>
      <trkpt lat="43.86553" lon="7.47649">
        <ele>778.639</ele>
        <time>2020-06-24T14:00:58Z</time>
      </trkpt>
      <trkpt lat="43.86553" lon="7.47649">
        <ele>778.639</ele>
        <time>2020-06-24T14:01:14Z</time>
      </trkpt>
      <trkpt lat="43.86572" lon="7.4765">
        <ele>774.438</ele>
        <time>2020-06-24T14:01:29Z</time>
      </trkpt>
      <trkpt lat="43.86574" lon="7.47652">
        <ele>771.85</ele>
        <time>2020-06-24T14:01:45Z</time>
      </trkpt>
      <trkpt lat="43.8658" lon="7.47651">
        <ele>768.31</ele>
        <time>2020-06-24T14:02:01Z</time>
      </trkpt>
      <trkpt lat="43.8659" lon="7.47651">
        <ele>765.516</ele>
        <time>2020-06-24T14:02:16Z</time>
      </trkpt>
      <trkpt lat="43.86614" lon="7.47647">
        <ele>759.123</ele>
        <time>2020-06-24T14:02:32Z</time>
      </trkpt>
      <trkpt lat="43.86623" lon="7.47647">
        <ele>750.688</ele>
        <time>2020-06-24T14:02:48Z</time>
      </trkpt>
      <trkpt lat="43.86636" lon="7.47647">
        <ele>747.72</ele>
        <time>2020-06-24T14:03:03Z</time>
      </trkpt>
      <trkpt lat="43.86654" lon="7.47646">
        <ele>741.954</ele>
        <time>2020-06-24T14:03:19Z</time>
      </trkpt>
      <trkpt lat="43.86671" lon="7.47641">
        <ele>735.829</ele>
        <time>2020-06-24T14:03:35Z</time>
      </trkpt>
      <trkpt lat="43.86679" lon="7.47638">
        <ele>734.888</ele>
        <time>2020-06-24T14:03:50Z</time>
      </trkpt>
      <trkpt lat="43.86683" lon="7.47635">
        <ele>731.88</ele>
        <time>2020-06-24T14:04:06Z</time>
      </trkpt>
      <trkpt lat="43.86699" lon="7.47625">
        <ele>728.319</ele>
        <time>2020-06-24T14:04:21Z</time>
      </trkpt>
      <trkpt lat="43.86709" lon="7.47619">
        <ele>727.101</ele>
        <time>2020-06-24T14:04:36Z</time>
      </trkpt>
      <trkpt lat="43.86727" lon="7.47605">
        <ele>726.288</ele>
        <time>2020-06-24T14:04:52Z</time>
      </trkpt>
      <trkpt lat="43.8674" lon="7.47587">
        <ele>722.978</ele>
        <time>2020-06-24T14:05:08Z</time>
      </trkpt>
      <trkpt lat="43.86753" lon="7.47571">
        <ele>721.037</ele>
        <time>2020-06-24T14:05:24Z</time>
      </trkpt>
      <trkpt lat="43.86761" lon="7.47558">
        <ele>716.959</ele>
        <time>2020-06-24T14:05:39Z</time>
      </trkpt>
      <trkpt lat="43.86777" lon="7.47537">
        <ele>713.781</ele>
        <time>2020-06-24T14:05:55Z</time>
      </trkpt>
      <trkpt lat="43.86791" lon="7.4752">
        <ele>712.827</ele>
        <time>2020-06-24T14:06:11Z</time>
      </trkpt>
      <trkpt lat="43.86802" lon="7.47511">
        <ele>711.882</ele>
        <time>2020-06-24T14:06:27Z</time>
      </trkpt>
      <trkpt lat="43.86816" lon="7.47503">
        <ele>710.207</ele>
        <time>2020-06-24T14:06:43Z</time>
      </trkpt>
      <trkpt lat="43.86822" lon="7.47502">
        <ele>709.114</ele>
        <time>2020-06-24T14:06:59Z</time>
      </trkpt>
      <trkpt lat="43.86822" lon="7.47502">
        <ele>709.114</ele>
        <time>2020-06-24T14:07:15Z</time>
      </trkpt>
      <trkpt lat="43.86849" lon="7.47496">
        <ele>705.06</ele>
        <time>2020-06-24T14:07:30Z</time>
      </trkpt>
      <trkpt lat="43.8686" lon="7.47496">
        <ele>702.863</ele>
        <time>2020-06-24T14:07:46Z</time>
      </trkpt>
      <trkpt lat="43.86885" lon="7.47501">
        <ele>694.642</ele>
        <time>2020-06-24T14:08:01Z</time>
      </trkpt>
      <trkpt lat="43.86907" lon="7.47503">
        <ele>692.682</ele>
        <time>2020-06-24T14:08:17Z</time>
      </trkpt>
      <trkpt lat="43.86924" lon="7.475">
        <ele>685.121</ele>
        <time>2020-06-24T14:08:32Z</time>
      </trkpt>
      <trkpt lat="43.86943" lon="7.47502">
        <ele>682.127</ele>
        <time>2020-06-24T14:08:48Z</time>
      </trkpt>
      <trkpt lat="43.86958" lon="7.47512">
        <ele>681.143</ele>
        <time>2020-06-24T14:09:04Z</time>
      </trkpt>
      <trkpt lat="43.86973" lon="7.4751">
        <ele>680.735</ele>
        <time>2020-06-24T14:09:19Z</time>
      </trkpt>
      <trkpt lat="43.86991" lon="7.47501">
        <ele>679.273</ele>
        <time>2020-06-24T14:09:34Z</time>
      </trkpt>
      <trkpt lat="43.87004" lon="7.47481">
        <ele>676.66</ele>
        <time>2020-06-24T14:09:50Z</time>
      </trkpt>
      <trkpt lat="43.87013" lon="7.47466">
        <ele>675.454</ele>
        <time>2020-06-24T14:10:05Z</time>
      </trkpt>
      <trkpt lat="43.8702" lon="7.47449">
        <ele>671.37</ele>
        <time>2020-06-24T14:10:21Z</time>
      </trkpt>
      <trkpt lat="43.87028" lon="7.47442">
        <ele>670.657</ele>
        <time>2020-06-24T14:10:37Z</time>
      </trkpt>
      <trkpt lat="43.87032" lon="7.47435">
        <ele>668.733</ele>
        <time>2020-06-24T14:10:53Z</time>
      </trkpt>
      <trkpt lat="43.87032" lon="7.47435">
        <ele>668.733</ele>
        <time>2020-06-24T14:11:08Z</time>
      </trkpt>
      <trkpt lat="43.87032" lon="7.47435">
        <ele>668.733</ele>
        <time>2020-06-24T14:11:24Z</time>
      </trkpt>
      <trkpt lat="43.87032" lon="7.47435">
        <ele>668.733</ele>
        <time>2020-06-24T14:11:39Z</time>
      </trkpt>
      <trkpt lat="43.87032" lon="7.47435">
        <ele>668.733</ele>
        <time>2020-06-24T14:11:54Z</time>
      </trkpt>
      <trkpt lat="43.87032" lon="7.47435">
        <ele>668.733</ele>
        <time>2020-06-24T14:12:09Z</time>
      </trkpt>
      <trkpt lat="43.87032" lon="7.47435">
        <ele>668.733</ele>
        <time>2020-06-24T14:12:25Z</time>
      </trkpt>
      <trkpt lat="43.87032" lon="7.47435">
        <ele>668.733</ele>
        <time>2020-06-24T14:12:40Z</time>
      </trkpt>
      <trkpt lat="43.87033" lon="7.47434">
        <ele>668.024</ele>
        <time>2020-06-24T14:12:56Z</time>
      </trkpt>
      <trkpt lat="43.87034" lon="7.47434">
        <ele>667.694</ele>
        <time>2020-06-24T14:13:11Z</time>
      </trkpt>
      <trkpt lat="43.87037" lon="7.47426">
        <ele>665.376</ele>
        <time>2020-06-24T14:13:27Z</time>
      </trkpt>
      <trkpt lat="43.87041" lon="7.47415">
        <ele>661.384</ele>
        <time>2020-06-24T14:13:43Z</time>
      </trkpt>
      <trkpt lat="43.87046" lon="7.474">
        <ele>659.394</ele>
        <time>2020-06-24T14:13:59Z</time>
      </trkpt>
      <trkpt lat="43.87061" lon="7.47379">
        <ele>657.938</ele>
        <time>2020-06-24T14:14:14Z</time>
      </trkpt>
      <trkpt lat="43.87064" lon="7.47376">
        <ele>657.396</ele>
        <time>2020-06-24T14:14:29Z</time>
      </trkpt>
      <trkpt lat="43.87083" lon="7.47357">
        <ele>655.464</ele>
        <time>2020-06-24T14:14:44Z</time>
      </trkpt>
      <trkpt lat="43.87105" lon="7.47342">
        <ele>645.957</ele>
        <time>2020-06-24T14:15:00Z</time>
      </trkpt>
      <trkpt lat="43.87124" lon="7.47325">
        <ele>642.537</ele>
        <time>2020-06-24T14:15:16Z</time>
      </trkpt>
      <trkpt lat="43.87133" lon="7.47304">
        <ele>641.066</ele>
        <time>2020-06-24T14:15:32Z</time>
      </trkpt>
      <trkpt lat="43.87137" lon="7.47283">
        <ele>638.157</ele>
        <time>2020-06-24T14:15:47Z</time>
      </trkpt>
      <trkpt lat="43.87138" lon="7.47256">
        <ele>635.618</ele>
        <time>2020-06-24T14:16:03Z</time>
      </trkpt>
      <trkpt lat="43.87142" lon="7.47228">
        <ele>633.048</ele>
        <time>2020-06-24T14:16:19Z</time>
      </trkpt>
      <trkpt lat="43.87142" lon="7.47202">
        <ele>629.226</ele>
        <time>2020-06-24T14:16:35Z</time>
      </trkpt>
      <trkpt lat="43.8714" lon="7.47173">
        <ele>626.858</ele>
        <time>2020-06-24T14:16:51Z</time>
      </trkpt>
      <trkpt lat="43.8714" lon="7.47147">
        <ele>624.944</ele>
        <time>2020-06-24T14:17:06Z</time>
      </trkpt>
      <trkpt lat="43.87138" lon="7.47122">
        <ele>623.104</ele>
        <time>2020-06-24T14:17:21Z</time>
      </trkpt>
      <trkpt lat="43.87135" lon="7.47096">
        <ele>619.039</ele>
        <time>2020-06-24T14:17:37Z</time>
      </trkpt>
      <trkpt lat="43.87133" lon="7.47068">
        <ele>617.32</ele>
        <time>2020-06-24T14:17:52Z</time>
      </trkpt>
      <trkpt lat="43.87136" lon="7.47041">
        <ele>615.794</ele>
        <time>2020-06-24T14:18:08Z</time>
      </trkpt>
      <trkpt lat="43.87137" lon="7.47014">
        <ele>615.628</ele>
        <time>2020-06-24T14:18:23Z</time>
      </trkpt>
      <trkpt lat="43.8713" lon="7.46989">
        <ele>614.203</ele>
        <time>2020-06-24T14:18:39Z</time>
      </trkpt>
      <trkpt lat="43.87131" lon="7.46965">
        <ele>613.851</ele>
        <time>2020-06-24T14:18:54Z</time>
      </trkpt>
      <trkpt lat="43.8714" lon="7.46947">
        <ele>617.256</ele>
        <time>2020-06-24T14:19:10Z</time>
      </trkpt>
      <trkpt lat="43.87152" lon="7.46936">
        <ele>614.128</ele>
        <time>2020-06-24T14:19:25Z</time>
      </trkpt>
      <trkpt lat="43.87174" lon="7.46932">
        <ele>612.239</ele>
        <time>2020-06-24T14:19:41Z</time>
      </trkpt>
      <trkpt lat="43.87191" lon="7.46925">
        <ele>608.254</ele>
        <time>2020-06-24T14:19:56Z</time>
      </trkpt>
      <trkpt lat="43.87208" lon="7.46917">
        <ele>604.977</ele>
        <time>2020-06-24T14:20:12Z</time>
      </trkpt>
      <trkpt lat="43.87227" lon="7.46912">
        <ele>600.766</ele>
        <time>2020-06-24T14:20:28Z</time>
      </trkpt>
      <trkpt lat="43.87248" lon="7.46911">
        <ele>597.823</ele>
        <time>2020-06-24T14:20:43Z</time>
      </trkpt>
      <trkpt lat="43.87267" lon="7.46895">
        <ele>594.055</ele>
        <time>2020-06-24T14:20:59Z</time>
      </trkpt>
      <trkpt lat="43.87282" lon="7.46878">
        <ele>591.663</ele>
        <time>2020-06-24T14:21:14Z</time>
      </trkpt>
      <trkpt lat="43.87294" lon="7.46862">
        <ele>589.595</ele>
        <time>2020-06-24T14:21:29Z</time>
      </trkpt>
      <trkpt lat="43.87306" lon="7.46839">
        <ele>587.16</ele>
        <time>2020-06-24T14:21:44Z</time>
      </trkpt>
      <trkpt lat="43.87319" lon="7.46813">
        <ele>581.553</ele>
        <time>2020-06-24T14:22:00Z</time>
      </trkpt>
      <trkpt lat="43.87331" lon="7.468">
        <ele>581.158</ele>
        <time>2020-06-24T14:22:15Z</time>
      </trkpt>
      <trkpt lat="43.87332" lon="7.46792">
        <ele>582.646</ele>
        <time>2020-06-24T14:22:31Z</time>
      </trkpt>
      <trkpt lat="43.87338" lon="7.46773">
        <ele>582.54</ele>
        <time>2020-06-24T14:22:47Z</time>
      </trkpt>
      <trkpt lat="43.87343" lon="7.46757">
        <ele>582.24</ele>
        <time>2020-06-24T14:23:02Z</time>
      </trkpt>
      <trkpt lat="43.87345" lon="7.46756">
        <ele>582.426</ele>
        <time>2020-06-24T14:23:18Z</time>
      </trkpt>
      <trkpt lat="43.87359" lon="7.46751">
        <ele>583.612</ele>
        <time>2020-06-24T14:23:34Z</time>
      </trkpt>
      <trkpt lat="43.87372" lon="7.46741">
        <ele>581.255</ele>
        <time>2020-06-24T14:23:49Z</time>
      </trkpt>
      <trkpt lat="43.87382" lon="7.46733">
        <ele>577.814</ele>
        <time>2020-06-24T14:24:05Z</time>
      </trkpt>
      <trkpt lat="43.87388" lon="7.46723">
        <ele>574.624</ele>
        <time>2020-06-24T14:24:21Z</time>
      </trkpt>
      <trkpt lat="43.87395" lon="7.46707">
        <ele>572.176</ele>
        <time>2020-06-24T14:24:37Z</time>
      </trkpt>
      <trkpt lat="43.87398" lon="7.4669">
        <ele>571.258</ele>
        <time>2020-06-24T14:24:52Z</time>
      </trkpt>
      <trkpt lat="43.87398" lon="7.46688">
        <ele>571.632</ele>
        <time>2020-06-24T14:25:08Z</time>
      </trkpt>
      <trkpt lat="43.87405" lon="7.46672">
        <ele>568.981</ele>
        <time>2020-06-24T14:25:24Z</time>
      </trkpt>
      <trkpt lat="43.87404" lon="7.46661">
        <ele>567.988</ele>
        <time>2020-06-24T14:25:40Z</time>
      </trkpt>
      <trkpt lat="43.8741" lon="7.46647">
        <ele>564.525</ele>
        <time>2020-06-24T14:25:56Z</time>
      </trkpt>
      <trkpt lat="43.87412" lon="7.46635">
        <ele>561.479</ele>
        <time>2020-06-24T14:26:11Z</time>
      </trkpt>
      <trkpt lat="43.87415" lon="7.46626">
        <ele>558.331</ele>
        <time>2020-06-24T14:26:27Z</time>
      </trkpt>
      <trkpt lat="43.87418" lon="7.46617">
        <ele>557.778</ele>
        <time>2020-06-24T14:26:43Z</time>
      </trkpt>
      <trkpt lat="43.8742" lon="7.466">
        <ele>556.578</ele>
        <time>2020-06-24T14:26:58Z</time>
      </trkpt>
      <trkpt lat="43.87424" lon="7.46591">
        <ele>554.55</ele>
        <time>2020-06-24T14:27:13Z</time>
      </trkpt>
      <trkpt lat="43.87426" lon="7.46581">
        <ele>551.708</ele>
        <time>2020-06-24T14:27:29Z</time>
      </trkpt>
      <trkpt lat="43.87442" lon="7.46548">
        <ele>545.934</ele>
        <time>2020-06-24T14:27:45Z</time>
      </trkpt>
      <trkpt lat="43.87448" lon="7.46531">
        <ele>541.638</ele>
        <time>2020-06-24T14:28:00Z</time>
      </trkpt>
      <trkpt lat="43.87449" lon="7.46528">
        <ele>539.381</ele>
        <time>2020-06-24T14:28:16Z</time>
      </trkpt>
      <trkpt lat="43.87449" lon="7.46528">
        <ele>539.381</ele>
        <time>2020-06-24T14:28:31Z</time>
      </trkpt>
      <trkpt lat="43.87449" lon="7.46515">
        <ele>536.311</ele>
        <time>2020-06-24T14:28:47Z</time>
      </trkpt>
      <trkpt lat="43.87443" lon="7.46492">
        <ele>531.319</ele>
        <time>2020-06-24T14:29:03Z</time>
      </trkpt>
      <trkpt lat="43.87436" lon="7.46473">
        <ele>528.213</ele>
        <time>2020-06-24T14:29:19Z</time>
      </trkpt>
      <trkpt lat="43.87432" lon="7.46467">
        <ele>527.025</ele>
        <time>2020-06-24T14:29:34Z</time>
      </trkpt>
      <trkpt lat="43.87425" lon="7.46442">
        <ele>524.844</ele>
        <time>2020-06-24T14:29:50Z</time>
      </trkpt>
      <trkpt lat="43.87418" lon="7.46414">
        <ele>522.053</ele>
        <time>2020-06-24T14:30:06Z</time>
      </trkpt>
      <trkpt lat="43.87419" lon="7.46388">
        <ele>519.498</ele>
        <time>2020-06-24T14:30:21Z</time>
      </trkpt>
      <trkpt lat="43.87416" lon="7.46363">
        <ele>518.903</ele>
        <time>2020-06-24T14:30:36Z</time>
      </trkpt>
      <trkpt lat="43.87419" lon="7.46338">
        <ele>517.767</ele>
        <time>2020-06-24T14:30:52Z</time>
      </trkpt>
      <trkpt lat="43.87419" lon="7.4631">
        <ele>510.921</ele>
        <time>2020-06-24T14:31:08Z</time>
      </trkpt>
      <trkpt lat="43.87416" lon="7.46283">
        <ele>508.669</ele>
        <time>2020-06-24T14:31:23Z</time>
      </trkpt>
      <trkpt lat="43.87414" lon="7.46254">
        <ele>506.42</ele>
        <time>2020-06-24T14:31:39Z</time>
      </trkpt>
      <trkpt lat="43.87413" lon="7.4623">
        <ele>506.328</ele>
        <time>2020-06-24T14:31:54Z</time>
      </trkpt>
      <trkpt lat="43.87414" lon="7.46202">
        <ele>503.299</ele>
        <time>2020-06-24T14:32:09Z</time>
      </trkpt>
      <trkpt lat="43.87419" lon="7.4618">
        <ele>503.937</ele>
        <time>2020-06-24T14:32:25Z</time>
      </trkpt>
      <trkpt lat="43.87411" lon="7.46163">
        <ele>503.075</ele>
        <time>2020-06-24T14:32:40Z</time>
      </trkpt>
      <trkpt lat="43.87394" lon="7.4615">
        <ele>499.686</ele>
        <time>2020-06-24T14:32:56Z</time>
      </trkpt>
      <trkpt lat="43.87379" lon="7.46142">
        <ele>495.441</ele>
        <time>2020-06-24T14:33:11Z</time>
      </trkpt>
      <trkpt lat="43.87359" lon="7.46138">
        <ele>493.779</ele>
        <time>2020-06-24T14:33:27Z</time>
      </trkpt>
      <trkpt lat="43.87346" lon="7.4612">
        <ele>493.187</ele>
        <time>2020-06-24T14:33:43Z</time>
      </trkpt>
      <trkpt lat="43.87332" lon="7.46107">
        <ele>491.227</ele>
        <time>2020-06-24T14:33:58Z</time>
      </trkpt>
      <trkpt lat="43.87329" lon="7.46087">
        <ele>489.692</ele>
        <time>2020-06-24T14:34:14Z</time>
      </trkpt>
      <trkpt lat="43.87344" lon="7.46066">
        <ele>491.608</ele>
        <time>2020-06-24T14:34:30Z</time>
      </trkpt>
      <trkpt lat="43.87362" lon="7.46059">
        <ele>490.098</ele>
        <time>2020-06-24T14:34:45Z</time>
      </trkpt>
      <trkpt lat="43.87377" lon="7.46046">
        <ele>490.822</ele>
        <time>2020-06-24T14:35:01Z</time>
      </trkpt>
      <trkpt lat="43.87391" lon="7.46028">
        <ele>490.257</ele>
        <time>2020-06-24T14:35:16Z</time>
      </trkpt>
      <trkpt lat="43.87396" lon="7.46014">
        <ele>486.185</ele>
        <time>2020-06-24T14:35:32Z</time>
      </trkpt>
      <trkpt lat="43.87407" lon="7.45999">
        <ele>483.39</ele>
        <time>2020-06-24T14:35:47Z</time>
      </trkpt>
      <trkpt lat="43.87423" lon="7.45983">
        <ele>478.554</ele>
        <time>2020-06-24T14:36:02Z</time>
      </trkpt>
      <trkpt lat="43.87435" lon="7.4596">
        <ele>471.995</ele>
        <time>2020-06-24T14:36:18Z</time>
      </trkpt>
      <trkpt lat="43.87444" lon="7.45935">
        <ele>471.529</ele>
        <time>2020-06-24T14:36:34Z</time>
      </trkpt>
      <trkpt lat="43.87448" lon="7.45908">
        <ele>467.148</ele>
        <time>2020-06-24T14:36:50Z</time>
      </trkpt>
      <trkpt lat="43.87451" lon="7.45886">
        <ele>465.369</ele>
        <time>2020-06-24T14:37:05Z</time>
      </trkpt>
      <trkpt lat="43.87452" lon="7.4586">
        <ele>462.16</ele>
        <time>2020-06-24T14:37:20Z</time>
      </trkpt>
      <trkpt lat="43.87453" lon="7.45836">
        <ele>461.423</ele>
        <time>2020-06-24T14:37:36Z</time>
      </trkpt>
      <trkpt lat="43.87453" lon="7.45809">
        <ele>458.166</ele>
        <time>2020-06-24T14:37:51Z</time>
      </trkpt>
      <trkpt lat="43.87451" lon="7.45779">
        <ele>457.884</ele>
        <time>2020-06-24T14:38:07Z</time>
      </trkpt>
      <trkpt lat="43.87447" lon="7.45755">
        <ele>457.51</ele>
        <time>2020-06-24T14:38:23Z</time>
      </trkpt>
      <trkpt lat="43.87437" lon="7.45733">
        <ele>452.783</ele>
        <time>2020-06-24T14:38:38Z</time>
      </trkpt>
      <trkpt lat="43.8743" lon="7.45712">
        <ele>448.51</ele>
        <time>2020-06-24T14:38:53Z</time>
      </trkpt>
      <trkpt lat="43.87429" lon="7.45686">
        <ele>446.204</ele>
        <time>2020-06-24T14:39:09Z</time>
      </trkpt>
      <trkpt lat="43.87437" lon="7.45666">
        <ele>448.218</ele>
        <time>2020-06-24T14:39:24Z</time>
      </trkpt>
      <trkpt lat="43.87454" lon="7.45653">
        <ele>443.031</ele>
        <time>2020-06-24T14:39:39Z</time>
      </trkpt>
      <trkpt lat="43.8747" lon="7.45629">
        <ele>437.857</ele>
        <time>2020-06-24T14:39:55Z</time>
      </trkpt>
      <trkpt lat="43.87478" lon="7.45607">
        <ele>434.729</ele>
        <time>2020-06-24T14:40:10Z</time>
      </trkpt>
      <trkpt lat="43.87482" lon="7.45585">
        <ele>430.962</ele>
        <time>2020-06-24T14:40:26Z</time>
      </trkpt>
      <trkpt lat="43.87487" lon="7.45558">
        <ele>429.843</ele>
        <time>2020-06-24T14:40:41Z</time>
      </trkpt>
      <trkpt lat="43.87495" lon="7.45537">
        <ele>429.138</ele>
        <time>2020-06-24T14:40:57Z</time>
      </trkpt>
      <trkpt lat="43.87506" lon="7.45511">
        <ele>428.127</ele>
        <time>2020-06-24T14:41:12Z</time>
      </trkpt>
      <trkpt lat="43.87515" lon="7.45488">
        <ele>423.816</ele>
        <time>2020-06-24T14:41:28Z</time>
      </trkpt>
      <trkpt lat="43.87517" lon="7.45465">
        <ele>421.679</ele>
        <time>2020-06-24T14:41:43Z</time>
      </trkpt>
      <trkpt lat="43.87518" lon="7.4544">
        <ele>418.92</ele>
        <time>2020-06-24T14:41:58Z</time>
      </trkpt>
      <trkpt lat="43.87522" lon="7.45428">
        <ele>415.45</ele>
        <time>2020-06-24T14:42:14Z</time>
      </trkpt>
      <trkpt lat="43.87522" lon="7.45428">
        <ele>415.45</ele>
        <time>2020-06-24T14:42:29Z</time>
      </trkpt>
      <trkpt lat="43.87529" lon="7.4543">
        <ele>416.236</ele>
        <time>2020-06-24T14:42:44Z</time>
      </trkpt>
      <trkpt lat="43.8755" lon="7.45432">
        <ele>417.196</ele>
        <time>2020-06-24T14:43:00Z</time>
      </trkpt>
      <trkpt lat="43.87553" lon="7.45421">
        <ele>411.976</ele>
        <time>2020-06-24T14:43:16Z</time>
      </trkpt>
      <trkpt lat="43.87553" lon="7.45421">
        <ele>411.976</ele>
        <time>2020-06-24T14:43:32Z</time>
      </trkpt>
      <trkpt lat="43.87553" lon="7.45421">
        <ele>411.976</ele>
        <time>2020-06-24T14:43:48Z</time>
      </trkpt>
      <trkpt lat="43.87553" lon="7.45421">
        <ele>411.976</ele>
        <time>2020-06-24T14:44:04Z</time>
      </trkpt>
      <trkpt lat="43.87553" lon="7.45421">
        <ele>411.976</ele>
        <time>2020-06-24T14:44:20Z</time>
      </trkpt>
      <trkpt lat="43.87553" lon="7.45421">
        <ele>411.976</ele>
        <time>2020-06-24T14:44:35Z</time>
      </trkpt>
      <trkpt lat="43.87553" lon="7.45421">
        <ele>411.976</ele>
        <time>2020-06-24T14:44:51Z</time>
      </trkpt>
      <trkpt lat="43.87553" lon="7.45421">
        <ele>411.976</ele>
        <time>2020-06-24T14:45:07Z</time>
      </trkpt>
      <trkpt lat="43.87553" lon="7.45421">
        <ele>411.976</ele>
        <time>2020-06-24T14:45:23Z</time>
      </trkpt>
      <trkpt lat="43.87553" lon="7.45421">
        <ele>411.976</ele>
        <time>2020-06-24T14:45:39Z</time>
      </trkpt>
      <trkpt lat="43.87553" lon="7.45421">
        <ele>411.976</ele>
        <time>2020-06-24T14:45:54Z</time>
      </trkpt>
      <trkpt lat="43.87553" lon="7.45421">
        <ele>411.976</ele>
        <time>2020-06-24T14:46:10Z</time>
      </trkpt>
      <trkpt lat="43.87553" lon="7.45421">
        <ele>411.976</ele>
        <time>2020-06-24T14:46:26Z</time>
      </trkpt>
      <trkpt lat="43.87553" lon="7.45421">
        <ele>411.976</ele>
        <time>2020-06-24T14:46:42Z</time>
      </trkpt>
      <trkpt lat="43.87553" lon="7.45421">
        <ele>411.976</ele>
        <time>2020-06-24T14:46:58Z</time>
      </trkpt>
      <trkpt lat="43.87553" lon="7.45421">
        <ele>411.976</ele>
        <time>2020-06-24T14:47:13Z</time>
      </trkpt>
      <trkpt lat="43.87553" lon="7.45421">
        <ele>411.976</ele>
        <time>2020-06-24T14:47:29Z</time>
      </trkpt>
      <trkpt lat="43.87553" lon="7.45421">
        <ele>411.976</ele>
        <time>2020-06-24T14:47:44Z</time>
      </trkpt>
      <trkpt lat="43.87553" lon="7.45421">
        <ele>411.976</ele>
        <time>2020-06-24T14:47:59Z</time>
      </trkpt>
      <trkpt lat="43.87553" lon="7.45421">
        <ele>411.976</ele>
        <time>2020-06-24T14:48:15Z</time>
      </trkpt>
      <trkpt lat="43.87561" lon="7.4541">
        <ele>411.1</ele>
        <time>2020-06-24T14:48:30Z</time>
      </trkpt>
      <trkpt lat="43.87561" lon="7.4541">
        <ele>411.1</ele>
        <time>2020-06-24T14:48:46Z</time>
      </trkpt>
      <trkpt lat="43.87561" lon="7.45396">
        <ele>411.173</ele>
        <time>2020-06-24T14:49:02Z</time>
      </trkpt>
      <trkpt lat="43.87561" lon="7.4537">
        <ele>410.552</ele>
        <time>2020-06-24T14:49:18Z</time>
      </trkpt>
      <trkpt lat="43.8757" lon="7.45343">
        <ele>413.007</ele>
        <time>2020-06-24T14:49:34Z</time>
      </trkpt>
      <trkpt lat="43.87577" lon="7.45317">
        <ele>413.301</ele>
        <time>2020-06-24T14:49:50Z</time>
      </trkpt>
      <trkpt lat="43.87584" lon="7.45291">
        <ele>411.384</ele>
        <time>2020-06-24T14:50:05Z</time>
      </trkpt>
      <trkpt lat="43.87589" lon="7.45264">
        <ele>410.757</ele>
        <time>2020-06-24T14:50:21Z</time>
      </trkpt>
      <trkpt lat="43.87601" lon="7.45238">
        <ele>408.944</ele>
        <time>2020-06-24T14:50:37Z</time>
      </trkpt>
      <trkpt lat="43.87616" lon="7.45226">
        <ele>412.943</ele>
        <time>2020-06-24T14:50:52Z</time>
      </trkpt>
      <trkpt lat="43.87633" lon="7.45221">
        <ele>414.537</ele>
        <time>2020-06-24T14:51:08Z</time>
      </trkpt>
      <trkpt lat="43.87655" lon="7.45212">
        <ele>413.03</ele>
        <time>2020-06-24T14:51:23Z</time>
      </trkpt>
      <trkpt lat="43.87669" lon="7.45188">
        <ele>407.57</ele>
        <time>2020-06-24T14:51:39Z</time>
      </trkpt>
      <trkpt lat="43.87661" lon="7.45159">
        <ele>403.469</ele>
        <time>2020-06-24T14:51:54Z</time>
      </trkpt>
      <trkpt lat="43.87657" lon="7.45135">
        <ele>401.16</ele>
        <time>2020-06-24T14:52:10Z</time>
      </trkpt>
      <trkpt lat="43.87659" lon="7.4511">
        <ele>403.66</ele>
        <time>2020-06-24T14:52:25Z</time>
      </trkpt>
      <trkpt lat="43.87656" lon="7.45087">
        <ele>400.086</ele>
        <time>2020-06-24T14:52:41Z</time>
      </trkpt>
      <trkpt lat="43.87656" lon="7.45066">
        <ele>399.332</ele>
        <time>2020-06-24T14:52:56Z</time>
      </trkpt>
      <trkpt lat="43.87671" lon="7.45043">
        <ele>404.111</ele>
        <time>2020-06-24T14:53:12Z</time>
      </trkpt>
      <trkpt lat="43.87691" lon="7.4503">
        <ele>401.441</ele>
        <time>2020-06-24T14:53:28Z</time>
      </trkpt>
      <trkpt lat="43.87711" lon="7.45019">
        <ele>398.974</ele>
        <time>2020-06-24T14:53:44Z</time>
      </trkpt>
      <trkpt lat="43.87731" lon="7.45006">
        <ele>394.527</ele>
        <time>2020-06-24T14:53:59Z</time>
      </trkpt>
      <trkpt lat="43.87733" lon="7.44991">
        <ele>393.276</ele>
        <time>2020-06-24T14:54:15Z</time>
      </trkpt>
      <trkpt lat="43.87748" lon="7.44982">
        <ele>398.152</ele>
        <time>2020-06-24T14:54:31Z</time>
      </trkpt>
      <trkpt lat="43.87752" lon="7.4497">
        <ele>398.052</ele>
        <time>2020-06-24T14:54:46Z</time>
      </trkpt>
      <trkpt lat="43.87759" lon="7.4495">
        <ele>395.851</ele>
        <time>2020-06-24T14:55:01Z</time>
      </trkpt>
      <trkpt lat="43.87763" lon="7.44941">
        <ele>395.524</ele>
        <time>2020-06-24T14:55:17Z</time>
      </trkpt>
      <trkpt lat="43.87765" lon="7.44938">
        <ele>394.808</ele>
        <time>2020-06-24T14:55:32Z</time>
      </trkpt>
      <trkpt lat="43.87765" lon="7.44938">
        <ele>394.808</ele>
        <time>2020-06-24T14:55:47Z</time>
      </trkpt>
      <trkpt lat="43.87766" lon="7.44936">
        <ele>394.973</ele>
        <time>2020-06-24T14:56:02Z</time>
      </trkpt>
      <trkpt lat="43.87766" lon="7.4494">
        <ele>395.447</ele>
        <time>2020-06-24T14:56:17Z</time>
      </trkpt>
      <trkpt lat="43.87762" lon="7.44942">
        <ele>394.734</ele>
        <time>2020-06-24T14:56:33Z</time>
      </trkpt>
      <trkpt lat="43.87759" lon="7.44938">
        <ele>394.709</ele>
        <time>2020-06-24T14:56:48Z</time>
      </trkpt>
      <trkpt lat="43.87781" lon="7.44909">
        <ele>397.843</ele>
        <time>2020-06-24T14:57:16Z</time>
      </trkpt>
      <trkpt lat="43.87778" lon="7.44909">
        <ele>397.863</ele>
        <time>2020-06-24T14:57:33Z</time>
      </trkpt>
      <trkpt lat="43.87768" lon="7.44918">
        <ele>424.528</ele>
        <time>2020-06-24T14:57:49Z</time>
      </trkpt>
      <trkpt lat="43.87763" lon="7.44921">
        <ele>407.002</ele>
        <time>2020-06-24T14:58:05Z</time>
      </trkpt>
      <trkpt lat="43.87757" lon="7.44934">
        <ele>386.898</ele>
        <time>2020-06-24T14:58:20Z</time>
      </trkpt>
      <trkpt lat="43.87759" lon="7.44916">
        <ele>394.157</ele>
        <time>2020-06-24T14:58:35Z</time>
      </trkpt>
      <trkpt lat="43.87761" lon="7.44948">
        <ele>388.717</ele>
        <time>2020-06-24T14:58:50Z</time>
      </trkpt>
      <trkpt lat="43.87766" lon="7.44934">
        <ele>385.165</ele>
        <time>2020-06-24T14:59:06Z</time>
      </trkpt>
      <trkpt lat="43.8775" lon="7.44929">
        <ele>391.023</ele>
        <time>2020-06-24T14:59:21Z</time>
      </trkpt>
      <trkpt lat="43.87717" lon="7.44949">
        <ele>401.894</ele>
        <time>2020-06-24T14:59:36Z</time>
      </trkpt>
      <trkpt lat="43.8773" lon="7.4497">
        <ele>411.349</ele>
        <time>2020-06-24T14:59:52Z</time>
      </trkpt>
      <trkpt lat="43.87733" lon="7.44963">
        <ele>412.903</ele>
        <time>2020-06-24T15:00:07Z</time>
      </trkpt>
      <trkpt lat="43.87779" lon="7.4495">
        <ele>404.183</ele>
        <time>2020-06-24T15:00:22Z</time>
      </trkpt>
      <trkpt lat="43.87765" lon="7.44969">
        <ele>404.268</ele>
        <time>2020-06-24T15:00:37Z</time>
      </trkpt>
      <trkpt lat="43.8775" lon="7.44972">
        <ele>421.034</ele>
        <time>2020-06-24T15:00:53Z</time>
      </trkpt>
      <trkpt lat="43.87774" lon="7.44953">
        <ele>398.046</ele>
        <time>2020-06-24T15:05:14Z</time>
      </trkpt>
      <trkpt lat="43.87756" lon="7.44942">
        <ele>399.006</ele>
        <time>2020-06-24T15:05:30Z</time>
      </trkpt>
      <trkpt lat="43.87756" lon="7.44942">
        <ele>401.351</ele>
        <time>2020-06-24T15:05:46Z</time>
      </trkpt>
      <trkpt lat="43.87756" lon="7.44942">
        <ele>401.351</ele>
        <time>2020-06-24T15:06:01Z</time>
      </trkpt>
      <trkpt lat="43.87756" lon="7.44942">
        <ele>401.351</ele>
        <time>2020-06-24T15:06:16Z</time>
      </trkpt>
      <trkpt lat="43.87756" lon="7.44941">
        <ele>402.33</ele>
        <time>2020-06-24T15:06:32Z</time>
      </trkpt>
      <trkpt lat="43.87767" lon="7.44958">
        <ele>402.488</ele>
        <time>2020-06-24T15:06:48Z</time>
      </trkpt>
      <trkpt lat="43.87779" lon="7.45017">
        <ele>405.811</ele>
        <time>2020-06-24T15:07:04Z</time>
      </trkpt>
      <trkpt lat="43.87775" lon="7.45009">
        <ele>407.769</ele>
        <time>2020-06-24T15:07:20Z</time>
      </trkpt>
      <trkpt lat="43.87747" lon="7.44944">
        <ele>406.809</ele>
        <time>2020-06-24T15:07:36Z</time>
      </trkpt>
      <trkpt lat="43.87745" lon="7.44933">
        <ele>405.951</ele>
        <time>2020-06-24T15:07:52Z</time>
      </trkpt>
      <trkpt lat="43.87756" lon="7.4495">
        <ele>406.544</ele>
        <time>2020-06-24T15:08:07Z</time>
      </trkpt>
      <trkpt lat="43.87762" lon="7.4496">
        <ele>406.08</ele>
        <time>2020-06-24T15:08:23Z</time>
      </trkpt>
      <trkpt lat="43.87761" lon="7.44951">
        <ele>397.843</ele>
        <time>2020-06-24T15:08:53Z</time>
      </trkpt>
      <trkpt lat="43.87757" lon="7.44947">
        <ele>384.741</ele>
        <time>2020-06-24T15:09:09Z</time>
      </trkpt>
      <trkpt lat="43.87757" lon="7.44947">
        <ele>384.741</ele>
        <time>2020-06-24T15:09:24Z</time>
      </trkpt>
      <trkpt lat="43.87757" lon="7.44947">
        <ele>384.741</ele>
        <time>2020-06-24T15:09:39Z</time>
      </trkpt>
      <trkpt lat="43.8776" lon="7.44944">
        <ele>393.699</ele>
        <time>2020-06-24T15:09:55Z</time>
      </trkpt>
      <trkpt lat="43.87758" lon="7.44947">
        <ele>390.3</ele>
        <time>2020-06-24T15:10:10Z</time>
      </trkpt>
      <trkpt lat="43.87756" lon="7.44946">
        <ele>392.197</ele>
        <time>2020-06-24T15:10:26Z</time>
      </trkpt>
      <trkpt lat="43.87756" lon="7.44945">
        <ele>394.346</ele>
        <time>2020-06-24T15:10:41Z</time>
      </trkpt>
      <trkpt lat="43.87756" lon="7.44945">
        <ele>394.346</ele>
        <time>2020-06-24T15:10:57Z</time>
      </trkpt>
      <trkpt lat="43.87756" lon="7.44945">
        <ele>394.346</ele>
        <time>2020-06-24T15:11:12Z</time>
      </trkpt>
      <trkpt lat="43.87756" lon="7.44945">
        <ele>394.346</ele>
        <time>2020-06-24T15:11:28Z</time>
      </trkpt>
      <trkpt lat="43.87756" lon="7.44945">
        <ele>394.346</ele>
        <time>2020-06-24T15:11:44Z</time>
      </trkpt>
      <trkpt lat="43.87756" lon="7.44945">
        <ele>394.346</ele>
        <time>2020-06-24T15:11:59Z</time>
      </trkpt>
      <trkpt lat="43.87756" lon="7.44945">
        <ele>394.346</ele>
        <time>2020-06-24T15:12:14Z</time>
      </trkpt>
      <trkpt lat="43.87766" lon="7.44934">
        <ele>397.871</ele>
        <time>2020-06-24T15:12:30Z</time>
      </trkpt>
      <trkpt lat="43.87768" lon="7.44934">
        <ele>397.778</ele>
        <time>2020-06-24T15:12:46Z</time>
      </trkpt>
      <trkpt lat="43.87755" lon="7.44943">
        <ele>398.678</ele>
        <time>2020-06-24T15:13:02Z</time>
      </trkpt>
      <trkpt lat="43.87753" lon="7.44948">
        <ele>398.585</ele>
        <time>2020-06-24T15:13:18Z</time>
      </trkpt>
      <trkpt lat="43.87756" lon="7.44945">
        <ele>400.137</ele>
        <time>2020-06-24T15:13:34Z</time>
      </trkpt>
      <trkpt lat="43.87756" lon="7.44945">
        <ele>400.137</ele>
        <time>2020-06-24T15:13:50Z</time>
      </trkpt>
      <trkpt lat="43.87761" lon="7.4494">
        <ele>401.908</ele>
        <time>2020-06-24T15:14:05Z</time>
      </trkpt>
      <trkpt lat="43.87762" lon="7.44939">
        <ele>402.812</ele>
        <time>2020-06-24T15:14:21Z</time>
      </trkpt>
      <trkpt lat="43.87762" lon="7.44939">
        <ele>402.812</ele>
        <time>2020-06-24T15:14:36Z</time>
      </trkpt>
      <trkpt lat="43.87785" lon="7.44907">
        <ele>384.732</ele>
        <time>2020-06-24T15:16:35Z</time>
      </trkpt>
      <trkpt lat="43.87762" lon="7.44948">
        <ele>334.44</ele>
        <time>2020-06-24T15:16:50Z</time>
      </trkpt>
      <trkpt lat="43.87762" lon="7.44948">
        <ele>353.578</ele>
        <time>2020-06-24T15:17:06Z</time>
      </trkpt>
      <trkpt lat="43.87768" lon="7.44942">
        <ele>386.593</ele>
        <time>2020-06-24T15:17:22Z</time>
      </trkpt>
      <trkpt lat="43.87768" lon="7.44942">
        <ele>386.593</ele>
        <time>2020-06-24T15:17:37Z</time>
      </trkpt>
      <trkpt lat="43.87756" lon="7.4495">
        <ele>369.983</ele>
        <time>2020-06-24T15:17:53Z</time>
      </trkpt>
      <trkpt lat="43.87742" lon="7.44954">
        <ele>359.42</ele>
        <time>2020-06-24T15:18:09Z</time>
      </trkpt>
      <trkpt lat="43.8776" lon="7.44947">
        <ele>355.603</ele>
        <time>2020-06-24T15:18:24Z</time>
      </trkpt>
      <trkpt lat="43.87753" lon="7.44946">
        <ele>354.623</ele>
        <time>2020-06-24T15:18:40Z</time>
      </trkpt>
      <trkpt lat="43.87743" lon="7.44946">
        <ele>353.578</ele>
        <time>2020-06-24T15:18:56Z</time>
      </trkpt>
      <trkpt lat="43.87743" lon="7.44946">
        <ele>353.578</ele>
        <time>2020-06-24T15:19:11Z</time>
      </trkpt>
      <trkpt lat="43.87758" lon="7.44947">
        <ele>358.095</ele>
        <time>2020-06-24T15:19:27Z</time>
      </trkpt>
      <trkpt lat="43.8777" lon="7.44947">
        <ele>364.248</ele>
        <time>2020-06-24T15:19:42Z</time>
      </trkpt>
      <trkpt lat="43.87751" lon="7.44953">
        <ele>373.486</ele>
        <time>2020-06-24T15:19:58Z</time>
      </trkpt>
      <trkpt lat="43.8775" lon="7.44952">
        <ele>377.228</ele>
        <time>2020-06-24T15:20:14Z</time>
      </trkpt>
      <trkpt lat="43.8775" lon="7.44952">
        <ele>377.228</ele>
        <time>2020-06-24T15:20:29Z</time>
      </trkpt>
      <trkpt lat="43.8775" lon="7.44952">
        <ele>377.228</ele>
        <time>2020-06-24T15:20:45Z</time>
      </trkpt>
      <trkpt lat="43.8775" lon="7.44952">
        <ele>377.228</ele>
        <time>2020-06-24T15:21:00Z</time>
      </trkpt>
      <trkpt lat="43.87746" lon="7.44956">
        <ele>383.02</ele>
        <time>2020-06-24T15:21:15Z</time>
      </trkpt>
      <trkpt lat="43.87739" lon="7.44967">
        <ele>399.974</ele>
        <time>2020-06-24T15:21:31Z</time>
      </trkpt>
      <trkpt lat="43.87739" lon="7.44967">
        <ele>400.196</ele>
        <time>2020-06-24T15:21:47Z</time>
      </trkpt>
      <trkpt lat="43.87739" lon="7.44967">
        <ele>400.196</ele>
        <time>2020-06-24T15:22:03Z</time>
      </trkpt>
      <trkpt lat="43.87784" lon="7.44915">
        <ele>385.477</ele>
        <time>2020-06-24T15:22:19Z</time>
      </trkpt>
      <trkpt lat="43.8777" lon="7.44932">
        <ele>384.783</ele>
        <time>2020-06-24T15:22:34Z</time>
      </trkpt>
      <trkpt lat="43.87742" lon="7.44967">
        <ele>382.273</ele>
        <time>2020-06-24T15:22:49Z</time>
      </trkpt>
      <trkpt lat="43.87753" lon="7.44947">
        <ele>380.638</ele>
        <time>2020-06-24T15:23:05Z</time>
      </trkpt>
      <trkpt lat="43.87798" lon="7.44896">
        <ele>383.254</ele>
        <time>2020-06-24T15:23:21Z</time>
      </trkpt>
      <trkpt lat="43.87784" lon="7.44906">
        <ele>387.322</ele>
        <time>2020-06-24T15:23:37Z</time>
      </trkpt>
      <trkpt lat="43.87781" lon="7.44919">
        <ele>385.269</ele>
        <time>2020-06-24T15:23:53Z</time>
      </trkpt>
      <trkpt lat="43.87776" lon="7.44933">
        <ele>394.58</ele>
        <time>2020-06-24T15:24:09Z</time>
      </trkpt>
      <trkpt lat="43.87781" lon="7.44928">
        <ele>392.802</ele>
        <time>2020-06-24T15:24:25Z</time>
      </trkpt>
      <trkpt lat="43.87768" lon="7.44935">
        <ele>391.621</ele>
        <time>2020-06-24T15:24:40Z</time>
      </trkpt>
      <trkpt lat="43.8776" lon="7.44943">
        <ele>392.309</ele>
        <time>2020-06-24T15:24:56Z</time>
      </trkpt>
      <trkpt lat="43.87789" lon="7.44917">
        <ele>392.264</ele>
        <time>2020-06-24T15:25:11Z</time>
      </trkpt>
      <trkpt lat="43.87774" lon="7.44919">
        <ele>390.823</ele>
        <time>2020-06-24T15:25:27Z</time>
      </trkpt>
      <trkpt lat="43.87762" lon="7.4494">
        <ele>359.763</ele>
        <time>2020-06-24T15:30:52Z</time>
      </trkpt>
    </trkseg>
  </trk>
</gpx>